     2              OBSERVATION DATA    GPS                 RINEX VERSION / TYPE
teqc 1999Jul19 19991123 03:08:35UTC                         PGM / RUN BY / DATE
                                                            COMMENT
Original Marker Name: 0906                                  COMMENT
Campaign Name: HPGN 1991                                    COMMENT
4-Character Station Name: 0906                              COMMENT
6-Character Antenna Code: TRMSST                            COMMENT
Vertical Measurement Point: BPA                             COMMENT
Vertical Offset to Rinex Ref. Point: 0.0000                 COMMENT
Radial Measurement Point: RRP                               COMMENT
Radial Offset to Rinex Ref. Point: 0.0000                   COMMENT
Antenna Height from Field Measurement: 2.2200 m             COMMENT
                                                            COMMENT
Original XYZ: -2369960.4203 -4480316.9164 3861290.2878      COMMENT
New XYZ position is based on association with SCEC monument COMMENT
E1G0R1C8+0011. Position of that monument is believed to be  COMMENT
valid to within 1 m horizontally; vertical accuracy         COMMENT
should be no worse than 3-times this value.                 COMMENT
                                                            COMMENT
Revised Rinex header created by UCSD GPS archive for        COMMENT
GSAC on 10-Mar-2000 (2000:070) 17:20:21 GMT                 COMMENT
For assistance contact dagnew@ucsd.edu or hjohnson@ucsd.edu COMMENT
                                                            COMMENT
OASIS                                                       MARKER NAME
0906                                                        MARKER NUMBER
-Unknown- CALIF DEPT TRANSPORTATION                         OBSERVER / AGENCY
486 TRIMBLE 4000 SST NP 4.30 / SP 4.20                      REC # / TYPE / VERS
17 TR 4000SST L1/L2 GEO                                     ANT # / TYPE
 -2369962.1044 -4480319.7281  3861284.5433                  APPROX POSITION XYZ
        2.2200        0.0000        0.0000                  ANTENNA: DELTA H/E/N
     1     1     0                                          WAVELENGTH FACT L1/2
     5    C1    L1    L2    S1    S2                        # / TYPES OF OBSERV
     0                                                      INTERVAL
  1991     6     6    16    43   30.000000                  TIME OF FIRST OBS
  1991     6     6    22    47   60.000000                  TIME OF LAST OBS
                                                            END OF HEADER
 91  6  6 16 43 30.0000000  0  3G18G11G 2
  20561134.977          -0.41118        -0.33432        29.500           2.156
  24143360.531          -0.62316        -0.23831        12.750           0.438
  24455150.867          -0.39015        -0.36031         9.500           0.406
 91  6  6 16 44  0.0000000  0  3G18G11G 2
  20564426.711       17296.838 8     13477.98922        29.500           2.094
  24126135.391      -90534.308 6    -70545.80521        13.500           0.469
  24433421.609     -114176.340 5    -88968.39121         8.750           0.281
 91  6  6 16 44 15.0000000  0  3G18G11G 2
  20566095.516       26067.835 8     20312.50422        29.250           2.156
  24117529.852     -135738.934 6   -105770.12621        13.500           0.469
  24422556.469     -171264.345 5   -133452.43821         7.750           0.344
 91  6  6 16 44 30.0000000  0  3G18G11G 2
  20567780.289       34923.216 8     27212.77122        29.500           2.156
  24108935.500     -180898.763 6   -140959.51921        13.000           0.438
  24411692.719     -228349.457 5   -177934.22921         7.750           0.375
 91  6  6 16 44 45.0000000  0  3G18G11G 2
  20569483.125       43869.042 8     34183.51222        29.250           2.000
  24100352.508     -226007.297 6   -176108.95521        13.000           0.500
  24400833.813     -285425.303 5   -222408.78121         8.250           0.344
 91  6  6 16 45  0.0000000  0  3G18G11G 2
  20571201.203       52896.447 8     41217.82622        29.250           2.125
  24091776.531     -271072.947 6   -211224.97321        12.500           0.344
  24389971.992     -342500.507 5   -266882.85121         8.250           0.344
 91  6  6 16 45 15.0000000  0  3G18G11G 2
  20572935.258       62010.494 8     48319.65222        29.250           2.094
  24083212.023     -316090.234 6   -246303.29821        12.750           0.438
  24379112.531     -399569.927 5   -311352.41421         8.750           0.344
 91  6  6 16 45 30.0000000  0  3G18G11G 2
  20574688.125       71218.456 8     55494.65922        29.250           2.125
  24074654.422     -361051.493 6   -281337.96621        12.500           0.344
  24368255.461     -456626.135 5   -355811.67521         8.250           0.250
 91  6  6 16 45 45.0000000  0  3G18G11G 2
  20576457.070       80516.221 8     62739.64122        29.000           1.969
  24066109.531     -405960.389 6   -316331.83421        12.250           0.344
  24357396.859     -513672.876 5   -400263.57421         8.500           0.219
 91  6  6 16 46  0.0000000  0  3G18G11G 2
  20578242.945       89901.927 8     70053.14922        29.000           2.094
  24057572.773     -450818.561 5   -351286.18221        11.750           0.375
  24346544.234     -570712.108 5   -444709.61021         9.000           0.156
 91  6  6 16 46 15.0000000  0  3G18G11G 2
  20580046.148       99376.113 8     77435.60322        29.000           2.063
  24049045.891     -495624.659 6   -386199.94521        12.000           0.438
  24335691.180     -627742.645 5   -489148.87521         9.500           0.281
 91  6  6 16 46 30.0000000  0  3G18G11G 2
  20581866.430      108940.311 8     84888.19022        28.750           2.031
  24040530.969     -540377.130 5   -421071.92621        11.500           0.344
  24324840.227     -684763.050 5   -533580.27421         9.500           0.313
 91  6  6 16 46 45.0000000  0  3G18G11G 2
  20583701.625      118587.962 8     92405.81122        28.750           2.000
  24032021.773     -585081.992 5   -455906.81321        11.750           0.375
  24313991.539     -741779.739 5   -578008.76321         9.500           0.344
 91  6  6 16 47  0.0000000  0  3G18G11G 2
  20585554.898      128324.544 8     99992.72822        28.500           1.969
  24023527.352     -629733.259 6   -490699.92921        12.250           0.438
  24303143.086     -798786.815 5   -622429.74021         9.500           0.313
 91  6  6 16 47 15.0000000  0  3G18G11G 2
  20587424.930      138150.545 8    107649.31622        28.500           1.906
  24015039.750     -674330.087 6   -525450.64221        12.250           0.500
  24292296.438     -855783.510 5   -666842.63221         9.250           0.375
 91  6  6 16 47 30.0000000  0  3G18G11G 2
  20589311.625      148065.382 8    115375.13722        28.000           1.938
  24006562.055     -718872.565 6   -560159.00821        12.000           0.406
  24281453.727     -912770.252 5   -711247.76721        10.000           0.344
 91  6  6 16 47 45.0000000  0  3G18G11G 2
  20591214.797      158068.042 8    123169.38822        28.250           2.031
  23998095.742     -763361.336 6   -594825.51121        12.000           0.375
  24270607.922     -969747.934 5   -755645.84221        10.500           0.469
 91  6  6 16 48  0.0000000  0  3G18G11G 2
  20593135.742      168161.691 8    131034.53822        28.000           2.094
  23989643.234     -807792.876 6   -629447.44121        12.250           0.469
  24259771.680    -1026713.302 5   -800034.32221        10.250           0.344
 91  6  6 16 48 15.0000000  0  3G18G11G 2
  20595074.055      178346.101 8    138970.41522        28.000           1.906
  23981196.344     -852167.096 6   -664024.69121        12.250           0.500
  24248931.539    -1083666.321 5   -844413.16921        10.750           0.406
 91  6  6 16 48 30.0000000  0  3G18G11G 2
  20597027.422      188612.842 7    146970.44022        27.750           1.969
  23972762.352     -896491.855 6   -698563.40521        12.250           0.281
  24238096.000    -1140615.225 5   -888788.82521        10.750           0.406
 91  6  6 16 48 45.0000000  0  3G18G11G 2
  20598997.438      198966.179 7    155037.94322        27.750           1.938
  23964336.047     -940762.560 6   -733060.00121        12.750           0.406
  24227260.695    -1197555.646 5   -933157.87621        10.750           0.438
 91  6  6 16 49  0.0000000  0  3G18G11G 2
  20600985.242      209409.986 7    163175.94722        27.750           1.938
  23955926.414     -984974.648 6   -767510.92521        13.000           0.438
  24216424.844    -1254483.163 5   -977516.86221        10.750           0.469
 91  6  6 16 49 15.0000000  0  3G18G11G 2
  20602989.586      219943.163 7    171383.58322        27.750           1.938
  23947523.148    -1029128.955 6   -801916.81821        13.000           0.563
  24205594.234    -1311398.891 5  -1021866.67021        10.250           0.438
 91  6  6 16 49 30.0000000  0  3G18G11G 2
  20605011.102      230567.236 7    179662.05622        27.750           1.906
  23939132.563    -1073223.460 6   -836276.12021        13.000           0.531
  24194767.359    -1368301.111 5  -1066205.93521        10.750           0.313
 91  6  6 16 49 45.0000000  0  3G18G11G 2
  20607049.563      241279.630 7    188009.34922        27.750           2.000
  23930752.836    -1117260.210 6   -870590.41721        13.000           0.406
  24183940.891    -1425191.944 5  -1110536.35821        11.000           0.250
 91  6  6 16 50  0.0000000  0  3G18G11G 2
  20609104.961      252081.502 7    196426.36322        27.500           1.969
  23922383.398    -1161237.644 6   -904858.49721        13.250           0.563
  24173118.469    -1482070.032 5  -1154856.83421        11.000           0.438
 91  6  6 16 50 15.0000000  0  3G18G11G 2
  20611177.711      262971.946 7    204912.39622        27.500           1.938
  23914026.766    -1205156.772 6   -939081.14821        13.250           0.563
  24162296.703    -1538936.565 5  -1199168.30721        11.000           0.313
 91  6  6 16 50 30.0000000  0  3G18G11G 2
  20613266.820      273950.088 7    213466.76322        27.250           2.031
  23905682.328    -1249017.422 6   -973258.23021        13.500           0.563
  24151476.313    -1595791.764 5  -1243470.93621        11.000           0.438
 91  6  6 16 50 45.0000000  0  3G18G11G 2
  20615372.945      285018.205 7    222091.24022        27.250           2.063
  23897345.063    -1292817.129 6  -1007387.82321        13.500           0.531
  24140661.734    -1652633.020 5  -1287762.70421        11.000           0.375
 91  6  6 16 51  0.0000000  0  3G18G11G 2
  20617497.195      296178.421 7    230787.48322        27.000           2.031
  23889022.578    -1336553.419 6  -1041467.99521        13.500           0.625
  24129847.422    -1709458.273 5  -1332042.01321        11.500           0.344
 91  6  6 16 51 15.0000000  0  3G18G11G 2
  20619638.031      307430.203 7    239555.07722        27.250           2.125
  23880712.180    -1380226.196 6  -1075498.68121        13.500           0.531
  24119035.797    -1766267.723 5  -1376309.00821        11.250           0.375
 91  6  6 16 51 30.0000000  0  3G18G11G 2
  20621797.063      318777.678 7    248397.23622        27.000           2.031
  23872415.359    -1423831.106 6  -1109476.48821        13.750           0.688
  24108230.125    -1823057.200 5  -1420560.43021        11.500           0.313
 91  6  6 16 51 45.0000000  0  3G18G11G 2
  20623973.172      330213.016 7    257307.86422        27.000           2.063
  23864127.477    -1467375.461 6  -1143407.10521        13.750           0.531
  24097425.250    -1879834.118 5  -1464802.06221        11.000           0.344
 91  6  6 16 52  0.0000000  0  3G18G11G 2
  20626165.648      341733.761 7    266285.04122        27.000           1.969
  23855851.734    -1510861.386 6  -1177292.19821        13.750           0.406
  24086622.766    -1936600.918 5  -1509035.82721        10.750           0.375
 91  6  6 16 52 15.0000000  0  3G18G11G 2
  20628376.719      353352.088 7    275338.25422        27.000           2.125
  23847590.961    -1554276.073 6  -1211121.78521        13.750           0.563
  24075825.250    -1993345.011 5  -1553251.88821        10.750           0.344
 91  6  6 16 52 30.0000000  0  3G18G11G 2
  20630605.109      365061.839 7    284462.71322        26.750           2.031
  23839342.039    -1597625.345 6  -1244900.39721        14.000           0.656
  24065029.383    -2050072.433 5  -1597454.95121        10.500           0.375
 91  6  6 16 53  0.0000000  0  3G18G11G 2
  20635112.953      388751.179 7    302921.88522        26.750           2.125
  23822881.438    -1684130.362 6  -1312306.80921        13.750           0.469
  24043447.398    -2163481.020 5  -1685825.04321        10.750           0.344
 91  6  6 16 53 15.0000000  0  3G18G11G 2
  20637393.391      400734.609 7    312259.59622        26.750           2.063
  23814669.938    -1727281.306 6  -1345930.87821        13.500           0.594
  24032663.141    -2220157.643 5  -1729988.53221        11.500           0.375
 91  6  6 16 53 30.0000000  0  3G18G11G 2
  20639690.523      412805.855 7    321665.73522        27.000           2.031
  23806468.516    -1770368.756 6  -1379505.48221        13.500           0.594
  24021881.031    -2276820.259 5  -1774141.11621        11.500           0.438
 91  6  6 16 53 45.0000000  0  3G18G11G 2
  20642004.555      424967.384 7    331142.22622        27.000           2.188
  23798282.609    -1813389.784 6  -1413028.30721        13.250           0.594
  24011100.688    -2333466.081 5  -1818280.59821        11.250           0.469
 91  6  6 16 54  0.0000000  0  3G18G11G 2
  20644336.438      437221.057 7    340690.51822        27.000           2.063
  23790109.508    -1856341.942 6  -1446497.48621        13.250           0.469
  24000325.156    -2390093.125 5  -1862405.46621        11.750           0.375
 91  6  6 16 54 15.0000000  0  3G18G11G 2
  20646685.516      449566.039 7    350309.96122        27.500           2.063
  23781948.867    -1899225.709 6  -1479913.35821        13.250           0.500
  23989552.438    -2446702.000 5  -1906516.15221        11.500           0.438
 91  6  6 16 54 30.0000000  0  3G18G11G 2
  20649052.852      462004.397 7    360002.16122        27.750           2.031
  23773800.969    -1942038.765 6  -1513274.15121        13.000           0.563
  23978785.023    -2503290.517 5  -1950611.00321        11.750           0.406
 91  6  6 16 54 45.0000000  0  3G18G11G 2
  20651437.672      474536.882 7    369767.70622        27.750           2.063
  23765669.922    -1984779.606 6  -1546578.66121        13.000           0.438
  23968020.117    -2559857.424 5  -1994689.00421        11.750           0.406
 91  6  6 16 55  0.0000000  0  3G18G11G 2
  20653839.500      487161.072 7    379604.70822        27.500           2.000
  23757547.188    -2027450.550 6  -1579828.71221        13.000           0.531
  23957258.945    -2616405.271 5  -2038752.15621        11.500           0.469
 91  6  6 16 55 15.0000000  0  3G18G11G 2
  20656260.320      499877.540 7    389513.62122        27.750           2.063
  23749442.672    -2070050.538 6  -1613023.46921        13.500           0.406
  23946501.758    -2672933.127 5  -2082799.72821        11.500           0.438
 91  6  6 16 55 30.0000000  0  3G18G11G 2
  20658696.500      512682.387 7    399491.39822        27.750           2.094
  23741348.008    -2112582.880 6  -1646165.51421        13.500           0.531
  23935747.844    -2729444.584 5  -2126834.53321        11.500           0.406
 91  6  6 16 55 45.0000000  0  3G18G11G 2
  20661151.328      525583.453 7    409544.14822        27.750           2.000
  23733271.234    -2155039.377 6  -1679248.45121        13.500           0.438
  23924999.305    -2785931.624 6  -2170850.29421        12.000           0.375
 91  6  6 16 56  0.0000000  0  3G18G11G 2
  20663624.031      538576.160 8    419668.30922        28.000           2.031
  23725205.188    -2197424.120 6  -1712275.48721        13.250           0.469
  23914254.617    -2842398.565 5  -2214850.41421        11.500           0.469
 91  6  6 16 56 15.0000000  0  3G18G11G 2
  20666114.078      551659.751 8    429863.28422        28.000           2.156
  23717150.922    -2239737.493 6  -1745246.90421        13.500           0.469
  23903511.898    -2898845.874 5  -2258835.21821        11.250           0.594
 91  6  6 16 56 30.0000000  0  3G18G11G 2
  20668622.453      564843.594 7    440136.38322        27.750           2.156
  23709113.336    -2281969.737 6  -1778155.13021        13.750           0.375
  23892777.258    -2955264.036 5  -2302797.31421        11.500           0.469
 91  6  6 16 56 45.0000000  0  3G18G11G 2
  20671149.508      578121.641 8    450482.88222        28.250           2.031
  23701093.742    -2324126.597 6  -1811004.58921        13.750           0.469
  23882044.164    -3011659.115 5  -2346741.43021        11.750           0.438
 91  6  6 16 57  0.0000000  0  3G18G11G 2
  20673693.867      591491.568 8    460900.98022        28.250           2.063
  23693086.313    -2366209.478 6  -1843796.40021        13.500           0.438
  23871316.016    -3068032.692 5  -2390668.78721        11.500           0.563
 91  6  6 16 57 15.0000000  0  3G18G11G 2
  20676254.719      604949.196 8    471387.42022        28.250           2.125
  23685089.836    -2408222.345 6  -1876533.65821        14.000           0.438
  23860592.430    -3124388.898 5  -2434582.60221        11.750           0.531
 91  6  6 16 57 30.0000000  0  3G18G11G 2
  20678833.578      618501.383 8    481947.54422        28.250           2.063
  23677113.000    -2450157.917 6  -1909210.69721        13.750           0.531
  23849872.805    -3180720.765 5  -2478477.45721        11.750           0.531
 91  6  6 16 57 45.0000000  0  3G18G11G 2
  20681429.398      632142.870 8    492577.24822        28.000           1.844
  23669141.727    -2492020.929 6  -1941831.18821        14.000           0.344
  23839156.992    -3237033.237 6  -2522357.20921        12.250           0.500
 91  6  6 16 58  0.0000000  0  3G18G11G 2
  20684043.000      645878.632 8    503280.41322        28.000           2.031
  23661193.211    -2533805.918 6  -1974390.89021        14.750           0.531
  23828446.750    -3293320.998 6  -2566217.69621        12.250           0.563
 91  6  6 16 58 15.0000000  0  3G18G11G 2
  20686675.242      659706.316 8    514055.20422        28.250           2.031
  23653254.438    -2575515.305 6  -2006891.67221        15.250           0.594
  23817739.984    -3349586.591 6  -2610060.91621        12.000           0.500
 91  6  6 16 58 30.0000000  0  3G18G11G 2
  20689325.242      673632.928 8    524907.08522        28.500           2.094
  23645334.672    -2617141.294 6  -2039327.47721        14.750           0.375
  23807038.234    -3405822.580 5  -2653881.06221        11.750           0.469
 91  6  6 16 58 45.0000000  0  3G18G11G 2
  20691992.906      687652.902 8    535831.71322        28.250           2.156
  23637428.180    -2658688.923 6  -2071702.21921        14.750           0.469
  23796339.969    -3462034.176 6  -2697682.21721        12.250           0.469
 91  6  6 16 59  0.0000000  0  3G18G11G 2
  20694678.273      701763.090 8    546826.63522        28.250           2.156
  23629537.453    -2700161.053 6  -2104018.13321        14.750           0.438
  23785648.352    -3518224.491 6  -2741466.78521        12.000           0.438
 91  6  6 16 59 15.0000000  0  3G18G11G 2
  20697379.828      715961.227 7    557890.08622        27.750           2.094
  23621657.961    -2741559.336 6  -2136276.50821        14.500           0.438
  23774959.156    -3574395.292 5  -2785236.15321        11.750           0.531
 91  6  6 16 59 30.0000000  0  3G18G11G 2
  20700099.734      730252.898 8    569026.42022        28.000           2.125
  23613793.820    -2782877.957 6  -2168472.80221        14.500           0.469
  23764273.789    -3630540.918 5  -2828985.90221        11.500           0.500
 91  6  6 16 59 45.0000000  0  3G18G11G 2
  20702836.688      744635.755 7    580233.80822        27.750           2.094
  23605948.523    -2824118.996 6  -2200608.65221        15.000           0.406
  23753593.813    -3686663.684 5  -2872717.83921        11.750           0.531
 91  6  6 17  0  0.0000000  0  3G18G11G 2
  20705590.445      759106.575 7    591509.73222        27.250           1.938
  23598111.625    -2865284.876 6  -2232685.94021        15.500           0.406
  23742916.836    -3742766.223 5  -2916434.05121        11.750           0.531
 91  6  6 17  0 15.0000000  0  3G18G11G 2
  20708362.188      773672.596 7    602859.84722        27.750           2.188
  23590295.492    -2906367.915 6  -2264698.66221        15.000           0.469
  23732247.094    -3798841.143 5  -2960128.70821        11.500           0.469
 91  6  6 17  0 30.0000000  0  4G18G11G 2G16
  20711151.922      788333.892 8    614284.20122        28.250           2.188
  23582491.680    -2947367.746 6  -2296646.56521        15.000           0.469
  23721582.711    -3854888.140 5  -3003801.61621        11.750           0.625
  24217419.414          -0.74315                         9.250
 91  6  6 17  0 45.0000000  0  4G18G11G 2G16
  20713959.656      803086.621 8    625779.80222        28.500           2.125
  23574706.203    -2988287.716 6  -2328532.21921        15.250           0.500
  23710921.930    -3910910.840 6  -3047455.58621        12.250           0.563
  24210305.969      -37376.268 5                         9.000
 91  6  6 17  1  0.0000000  0  4G18G11G 2G16
  20716784.617      817932.885 8    637348.29322        28.500           2.375
  23566935.070    -3029125.017 6  -2360353.44621        14.750           0.438
  23700266.445    -3966906.599 6  -3091088.54821        12.500           0.563
  24203212.344      -74653.233 5                         8.750
 91  6  6 17  1 15.0000000  0  4G18G11G 2G16
  20719628.297      832877.711 8    648993.58722        28.750           2.250
  23559184.070    -3069874.492 6  -2392106.23321        15.000           0.438
  23689615.367    -4022870.521 6  -3134696.71321        12.000           0.594
  24196140.750     -111826.333 5                         8.750
 91  6  6 17  1 30.0000000  0  4G18G11G 2G16
  20722490.875      847918.892 8    660713.95422        28.500           2.219
  23551443.281    -3110537.889 6  -2423791.95821        15.000           0.563
  23678972.047    -4078804.374 6  -3178281.43221        12.250           0.625
  24189084.859     -148897.651 5        -0.36831         9.000           0.188
 91  6  6 17  1 45.0000000  0  4G18G11G 2G16
  20725370.719      863055.203 8    672508.45222        28.250           2.219
  23543722.039    -3151115.853 6  -2455411.10421        15.000           0.531
  23668333.625    -4134709.220 6  -3221843.55721        12.250           0.469
  24182049.047     -185867.884 5    -28808.33721         9.250           0.250
 91  6  6 17  2  0.0000000  0  4G18G11G 2G16
  20728269.891      878287.713 8    684377.90922        28.500           2.313
  23536019.234    -3191607.187 6  -2486962.75421        15.000           0.531
  23657699.969    -4190584.014 6  -3265382.27721        12.500           0.531
  24175034.195     -222735.852 5    -57536.62121         9.750           0.188
 91  6  6 17  2 15.0000000  0  4G18G11G 2G16
  20731184.836      893605.767 8    696314.02222        28.250           2.313
  23528327.055    -3232021.650 6  -2518454.49021        15.250           0.531
  23647072.891    -4246438.671 6  -3308905.29821        12.500           0.594
  24168037.086     -259511.774 5    -86193.16221         9.250           0.281
 91  6  6 17  2 30.0000000  0  4G18G11G 2G16
  20734116.992      909015.817 8    708321.82922        28.500           2.313
  23520651.273    -3272352.748 6  -2549881.28121        14.750           0.531
  23636448.391    -4302266.873 6  -3352407.71421        12.250           0.594
  24161055.969     -296189.375 5   -114773.10021         9.000           0.219
 91  6  6 17  2 45.0000000  0  4G18G11G 2G16
  20737068.320      924523.287 8    720405.54422        28.500           2.438
  23512993.922    -3312594.419 6  -2581238.37621        15.000           0.531
  23625830.508    -4358062.659 6  -3395884.85621        12.500           0.656
  24154095.570     -332762.676 5   -143271.76121         9.000           0.250
 91  6  6 17  3  0.0000000  0  4G18G11G 2G16
  20740037.055      940126.093 8    732563.54522        28.250           2.344
  23505351.422    -3352748.398 6  -2612527.14421        15.000           0.500
  23615217.961    -4413828.094 6  -3439338.36021        12.500           0.625
  24147156.375     -369233.459 5   -171690.53921         9.500           0.313
 91  6  6 17  3 15.0000000  0  4G18G11G 2G16
  20743024.367      955821.842 8    744793.97222        28.250           2.375
  23497729.023    -3392816.463 6  -2643748.95621        15.250           0.563
  23604612.742    -4469565.150 6  -3482769.74821        13.000           0.625
  24140235.148     -405603.601 5   -200030.89021         9.000           0.344
 91  6  6 17  3 30.0000000  0  4G18G11G 2G16
  20746029.555      971613.540 8    757099.16022        28.250           2.438
  23490120.211    -3432795.241 6  -2674901.21121        14.750           0.594
  23594012.906    -4525270.680 6  -3526176.58021        13.000           0.750
  24133334.031     -441869.755 5   -228290.20521         9.500           0.219
 91  6  6 17  3 45.0000000  0  4G18G11G 2G16
  20749052.148      987502.490 8    769480.12622        28.000           2.438
  23482527.063    -3472683.033 6  -2705982.55721        14.750           0.500
  23583419.055    -4580943.120 6  -3569557.62621        13.250           0.656
  24126452.352     -478030.403 5   -256467.36221         9.000           0.250
 91  6  6 17  4  0.0000000  0  4G18G11G 2G16
  20752092.781     1003477.513 8    781928.16822        28.000           2.375
  23474954.008    -3512490.564 6  -2737001.36121        15.500           0.688
  23572828.781    -4636593.457 6  -3612921.44121        13.000           0.656
  24119589.484     -514096.912 5   -284571.10121         9.000           0.313
 91  6  6 17  4 15.0000000  0  4G18G11G 2G16
  20755150.570     1019544.264 8    794447.68022        28.250           2.469
  23467395.000    -3552211.793 6  -2767952.92721        15.250           0.594
  23562244.813    -4692215.647 6  -3656263.32821        13.250           0.625
  24112745.359     -550063.201 5   -312596.78421         9.000           0.188
 91  6  6 17  4 30.0000000  0  4G18G11G 2G16
  20758227.711     1035715.896 8    807048.91922        28.000           2.438
  23459854.961    -3591833.286 6  -2798826.76621        15.500           0.531
  23551666.852    -4747796.532 6  -3699573.02921        13.000           0.688
  24105922.945     -585915.882 5   -340533.91021         9.000           0.219
 91  6  6 17  4 45.0000000  0  4G18G11G 2G16
  20761324.281     1051985.355 8    819726.38823        28.000           2.500
  23452332.641    -3631361.265 6  -2829627.74721        15.250           0.656
  23541096.430    -4803342.444 6  -3742855.48621        12.750           0.625
  24099119.828     -621661.255 5   -368387.44921         8.500           0.313
 91  6  6 17  5  0.0000000  0  4G18G11G 2G16
  20764437.055     1068347.616 8    832476.16623        28.250           2.500
  23444831.359    -3670800.427 6  -2860359.51821        15.250           0.563
  23530532.391    -4858858.503 6  -3786114.67321        12.750           0.719
  24092336.703     -657304.180 5   -396161.12521         8.500           0.344
 91  6  6 17  5 15.0000000  0  4G18G11G 2G16
  20767569.063     1084805.684 8    845300.60222        28.250           2.438
  23437339.531    -3710147.380 6  -2891019.42921        15.000           0.594
  23519973.117    -4914341.480 6  -3829348.09421        12.750           0.656
  24085575.695     -692841.771 5   -423852.76121         8.750           0.219
 91  6  6 17  5 30.0000000  0  4G18G11G 2G16
  20770718.984     1101357.986 7    858198.46223        27.750           2.531
  23429871.477    -3749403.167 6  -2921608.30721        15.500           0.531
  23509421.375    -4969792.638 6  -3872556.72521        12.500           0.688
  24078834.016     -728275.124 5   -451463.16421         9.000           0.281
 91  6  6 17  5 45.0000000  0  4G18G11G 2G16
  20773889.242     1118016.058 7    871178.74522        27.500           2.438
  23422419.461    -3788555.884 6  -2952116.86421        15.750           0.531
  23498878.266    -5025200.314 6  -3915731.46021        12.500           0.625
  24072112.813     -763592.164 5   -478982.93121         9.500           0.344
 91  6  6 17  6  0.0000000  0  4G18G11G 2G16
  20777078.328     1134774.237 7    884237.03323        27.750           2.531
  23414987.180    -3827611.024 6  -2982549.40721        15.750           0.594
  23488341.516    -5080569.945 6  -3958876.56021        12.750           0.688
  24065413.414     -798798.672 5   -506416.56021         9.250           0.344
 91  6  6 17  6 15.0000000  0  4G18G11G 2G16
  20780284.313     1151625.133 8    897367.56723        28.000           2.563
  23407574.531    -3866575.138 6  -3012911.01221        15.750           0.563
  23477811.508    -5135908.314 6  -4001997.30321        12.750           0.688
  24058732.469     -833901.569 5   -533769.46221         9.000           0.250
 91  6  6 17  6 30.0000000  0  4G18G11G 2G16
  20783510.117     1168574.630 8    910574.93622        28.000           2.469
  23400178.500    -3905442.153 6  -3043196.95021        15.750           0.594
  23467287.500    -5191209.421 6  -4045089.00621        12.750           0.719
  24052073.414     -868894.570 5   -561036.71021         9.500           0.281
 91  6  6 17  6 45.0000000  0  4G18G11G 2G16
  20786753.828     1185620.194 8    923857.15923        28.000           2.625
  23392800.266    -3944214.078 6  -3073408.80421        16.000           0.625
  23456770.375    -5246475.569 6  -4088153.46521        13.000           0.688
  24045436.703     -903779.981 5   -588220.13721         9.500           0.281
 91  6  6 17  7  0.0000000  0  4G18G11G 2G16
  20790015.281     1202759.654 8    937212.54123        28.000           2.594
  23385439.813    -3982892.529 6  -3103547.81421        15.750           0.688
  23446260.008    -5301708.688 6  -4131192.18721        13.000           0.719
  24038815.773     -938559.649 5   -615321.16821         9.750           0.281
 91  6  6 17  7 15.0000000  0  4G18G11G 2G16
  20793294.867     1219992.606 7    950640.78022        27.750           2.469
  23378097.313    -4021477.573 6  -3133614.02921        15.750           0.719
  23435756.344    -5356909.067 6  -4174205.39621        13.000           0.688
  24032217.297     -973233.811 5   -642339.96821         9.750           0.250
 91  6  6 17  7 30.0000000  0  4G18G11G 2G16
  20796592.352     1237319.578 7    964142.28223        27.750           2.594
  23370773.648    -4059968.244 6  -3163606.72821        16.000           0.563
  23425258.180    -5412075.799 6  -4217192.38821        13.250           0.656
  24025639.609    -1007801.862 5   -669276.11821        10.000           0.219
 91  6  6 17  7 45.0000000  0  4G18G11G 2G16
  20799907.375     1254740.686 7    977717.13423        27.750           2.531
  23363465.203    -4098363.772 6  -3193525.27221        16.250           0.594
  23414767.297    -5467208.247 6  -4260152.66921        13.000           0.781
  24019081.945    -1042262.881 5   -696128.86421         9.750           0.250
 91  6  6 17  8  0.0000000  0  4G18G11G 2G16
  20803242.250     1272262.667 8    991370.58123        28.000           2.594
  23356180.078    -4136657.237 6  -3223364.29721        16.250           0.656
  23404282.867    -5522299.697 6  -4303080.99121        13.000           0.781
  24012546.648    -1076610.059 5   -722892.87621         9.750           0.219
 91  6  6 17  8 15.0000000  0  4G18G11G 2G16
  20806593.875     1289877.298 7   1005096.22623        27.750           2.625
  23348911.773    -4174856.237 6  -3253129.70921        16.750           0.594
  23393806.219    -5577358.148 6  -4345983.60121        13.750           0.750
  24006031.086    -1110851.334 5   -749574.37821        10.250           0.344
 91  6  6 17  8 30.0000000  0  4G18G11G 2G16
  20809962.648     1307584.243 8   1018893.80423        28.000           2.563
  23341660.555    -4212960.667 6  -3282821.44221        16.250           0.719
  23383334.445    -5632383.478 6  -4388860.41121        14.000           0.719
  23999535.914    -1144986.816 5   -776173.46121        10.250           0.250
 91  6  6 17  8 45.0000000  0  4G18G11G 2G16
  20813350.047     1325382.825 8   1032762.78723        28.000           2.531
  23334425.883    -4250970.985 6  -3312439.83421        16.250           0.625
  23372869.633    -5687376.362 6  -4431711.93721        13.750           0.531
  23993060.656    -1179016.976 5   -802690.44921        10.500           0.219
 91  6  6 17  9  0.0000000  0  4G18G11G 2G16
  20816755.289     1343276.799 7   1046706.10523        27.750           2.500
  23327208.977    -4288883.078 6  -3341981.69021        16.500           0.594
  23362411.805    -5742332.946 6  -4474535.16821        14.250           0.656
  23986605.422    -1212937.716 5   -829122.18421        10.250           0.344
 91  6  6 17  9 15.0000000  0  4G18G11G 2G16
  20820178.102     1361264.257 7   1060722.26323        27.750           2.500
  23320014.930    -4326698.076 6  -3371447.87121        16.250           0.563
  23351959.477    -5797254.537 6  -4517331.14621        13.750           0.688
  23980169.547    -1246750.863 5   -855470.08621        10.500           0.219
 91  6  6 17  9 30.0000000  0  4G18G11G 2G16
  20823618.461     1379342.993 7   1074809.54423        27.750           2.688
  23312835.570    -4364417.948 6  -3400839.94221        16.250           0.625
  23341516.539    -5852143.077 6  -4560101.35821        14.250           0.656
  23973756.484    -1280458.030 5   -881735.39621        10.750           0.344
 91  6  6 17  9 45.0000000  0  4G18G11G 2G16
  20827077.422     1397518.001 7   1088971.84123        27.750           2.500
  23305679.430    -4402036.969 6  -3430153.41421        16.000           0.625
  23331078.570    -5906993.134 6  -4602841.58921        14.500           0.656
  23967361.547    -1314053.909 5   -907913.99021        10.750           0.344
 91  6  6 17 10  0.0000000  0  4G18G11G 2G16
  20830554.898     1415792.917 8   1103211.98823        28.000           2.500
  23298538.922    -4439551.258 6  -3459385.29821        16.250           0.719
  23320648.305    -5961801.130 6  -4645549.04021        14.250           0.594
  23960990.961    -1347534.953 5   -934003.11221        10.750           0.313
 91  6  6 17 10 14.9990000  0  4G18G11G 2G16
  20834051.472     1434164.405 8   1117527.38922        28.000           2.469
  23291422.058    -4476960.035 6  -3488534.95821        16.250           0.594
  23310226.472    -6016565.157 6  -4688222.22321        14.000           0.625
  23954642.370    -1380900.390 5   -960002.17721        10.750           0.375
 91  6  6 17 10 29.9990000  0  4G18G11G 2G16
  20837564.503     1452632.715 8   1131918.23323        28.000           2.500
  23284320.167    -4514270.199 6  -3517607.76521        16.000           0.688
  23299813.534    -6071294.677 6  -4730868.53521        14.250           0.594
  23948313.292    -1414156.772 5   -985916.21521        10.750           0.313
 91  6  6 17 10 44.9990000  0  4G18G11G 2G16
  20841097.995     1471196.509 7   1146383.48123        27.750           2.563
  23277242.183    -4551478.651 6  -3546601.32521        15.750           0.625
  23289404.940    -6125985.577 6  -4773484.74221        14.500           0.656
  23942005.300    -1447301.607 5  -1011743.36121        10.750           0.313
 91  6  6 17 10 59.9990000  0  4G18G11G 2G16
  20844648.644     1489855.042 7   1160922.55022        27.750           2.406
  23270181.089    -4588585.790 6  -3575515.94321        16.250           0.688
  23279004.612    -6180638.361 6  -4816071.23821        14.500           0.625
  23935721.550    -1480335.184 5  -1037483.79221        11.000           0.250
 91  6  6 17 11 14.9990000  0  4G18G11G 2G16
  20848218.026     1508612.405 7   1175538.62823        27.750           2.563
  23263138.605    -4625587.046 6  -3604348.05021        16.500           0.688
  23268613.019    -6235248.822 6  -4858624.76521        14.750           0.563
  23929455.667    -1513253.201 5  -1063134.20321        11.000           0.250
 91  6  6 17 11 29.9990000  0  4G18G11G 2G16
  20851806.409     1527465.529 7   1190229.32622        27.750           2.375
  23256116.331    -4662485.030 6  -3633099.68021        16.750           0.719
  23258228.698    -6289819.749 6  -4901147.48221        14.750           0.594
  23923212.894    -1546058.735 5  -1088696.93821        10.750           0.313
 91  6  6 17 11 44.9990000  0  4G18G11G 2G16
  20855411.151     1546415.039 7   1204995.13622        27.500           2.313
  23249115.167    -4699278.627 6  -3661769.97721        16.500           0.750
  23247852.855    -6344350.298 6  -4943638.73521        15.000           0.688
  23916992.620    -1578750.692 5  -1114171.19221        11.000           0.281
 91  6  6 17 11 59.9990000  0  4G18G11G 2G16
  20859035.065     1565458.816 7   1219834.39622        27.500           2.469
  23242132.628    -4735969.787 6  -3690360.45421        16.500           0.750
  23237481.815    -6398842.500 6  -4986100.10621        15.000           0.594
  23910792.253    -1611331.135 5  -1139558.56621        10.750           0.219
 91  6  6 17 12 14.9990000  0  4G18G11G 2G16
  20862677.651     1584598.523 7   1234748.40822        27.250           2.375
  23235172.276    -4772556.081 6  -3718869.20721        16.750           0.750
  23227120.362    -6453294.150 6  -5028529.87521        15.000           0.594
  23904616.394    -1643798.072 5  -1164857.45021        10.750           0.281
 91  6  6 17 12 29.9990000  0  4G18G11G 2G16
  20866338.855     1603836.205 7   1249738.76422        27.250           2.344
  23228230.237    -4809035.366 6  -3747294.58321        17.000           0.719
  23216767.847    -6507703.118 6  -5070926.38721        15.250           0.594
  23898459.730    -1676149.280 5  -1190066.17521        10.750           0.313
 91  6  6 17 12 44.9990000  0  4G18G11G 2G16
  20870017.347     1623168.512 7   1264802.85322        27.250           2.406
  23221306.339    -4845410.309 6  -3775638.65021        16.750           0.625
  23206420.855    -6562072.183 6  -5113291.81721        15.000           0.563
  23892322.636    -1708387.291 5  -1215186.70221        10.750           0.156
 91  6  6 17 12 59.9990000  0  4G18G11G 2G16
  20873713.597     1642594.061 7   1279939.60022        27.250           2.344
  23214404.120    -4881681.656 6  -3803901.99821        17.000           0.719
  23196080.769    -6616402.302 6  -5155626.88421        14.250           0.625
  23886208.347    -1740513.438 5  -1240220.06621        10.500           0.156
 91  6  6 17 13 14.9990000  0  4G18G11G 2G16
  20877428.589     1662115.332 7   1295150.92422        27.500           2.344
  23207521.065    -4917846.524 6  -3832082.37321        17.250           0.750
  23185750.917    -6670690.911 6  -5197929.61421        14.250           0.625
  23880119.323    -1772525.318 5  -1265164.36421        10.500           0.219
 91  6  6 17 13 29.9990000  0  4G18G11G 2G16
  20881163.019     1681737.335 7   1310440.74222        27.000           2.281
  23200661.339    -4953899.804 6  -3860175.79321        17.250           0.750
  23175427.636    -6724932.958 6  -5240196.04921        14.250           0.625
  23874048.589    -1804417.329 5  -1290015.29121        10.500           0.219
 91  6  6 17 13 44.9990000  0  4G18G11G 2G16
  20884915.433     1701458.189 7   1325807.58922        27.000           2.188
  23193823.230    -4989842.563 6  -3888183.10021        17.500           0.625
  23165115.511    -6779129.819 6  -5282427.28121        14.500           0.656
  23868003.394    -1836190.924 5  -1314773.92521        10.500           0.188
 91  6  6 17 13 59.9990000  0  4G18G11G 2G16
  20888685.980     1721273.072 7   1341247.70322        27.250           2.313
  23187003.651    -5025679.546 6  -3916107.97721        17.500           0.688
  23154809.222    -6833286.265 6  -5324627.02221        14.750           0.594
  23861980.409    -1867850.786 5  -1339443.93721        10.250           0.250
 91  6  6 17 14 14.9990000  0  4G18G11G 2G16
  20892475.073     1741185.339 7   1356763.70822        27.000           2.438
  23180203.878    -5061406.890 6  -3943947.42021        17.250           0.563
  23144513.683    -6887398.708 6  -5366792.47321        15.250           0.656
  23855975.558    -1899393.686 5  -1364022.82621        10.500           0.250
 91  6  6 17 14 29.9990000  0  4G18G11G 2G16
  20896281.284     1761188.791 7   1372350.76222        27.000           2.375
  23173424.722    -5097030.265 6  -3971705.85221        17.500           0.719
  23134222.519    -6941472.983 6  -5408928.18421        15.250           0.594
  23849994.839    -1930825.071 5  -1388514.83021        10.500           0.188
 91  6  6 17 14 44.9990000  0  4G18G11G 2G16
  20900105.987     1781282.425 7   1388008.08722        27.000           2.281
  23166668.917    -5132550.399 6  -3999383.83921        17.250           0.656
  23123938.940    -6995509.835 6  -5451034.73921        15.250           0.531
  23844036.675    -1962145.741 5  -1412920.53321        11.000           0.281
 91  6  6 17 14 59.9990000  0  4G18G11G 2G16
  20903948.651     1801475.576 7   1403742.95722        27.250           2.375
  23159929.081    -5167957.642 6  -4026973.85821        17.250           0.656
  23113665.151    -7049499.765 6  -5493104.73621        14.750           0.625
  23838097.120    -1993346.277 5  -1437232.63921        11.000           0.281
 91  6  6 17 15 14.9990000  0  4G18G11G 2G16
  20907809.612     1821765.160 7   1419552.97222        27.500           2.469
  23153208.964    -5203254.118 6  -4054477.56721        17.250           0.750
  23103399.253    -7103445.209 6  -5535140.07521        14.750           0.625
  23832182.401    -2024429.061 5  -1461453.00721        10.750           0.313
 91  6  6 17 15 29.9990000  0  4G18G11G 2G16
  20911688.487     1842146.013 7   1435434.10422        27.500           2.344
  23146517.511    -5238444.704 6  -4081898.76421        17.250           0.625
  23093141.034    -7157351.139 6  -5577144.60821        14.750           0.594
  23826287.698    -2055399.380 5  -1485585.71521        11.000           0.250
 91  6  6 17 15 44.9990000  0  4G18G11G 2G16
  20915585.862     1862628.579 7   1451394.49322        27.500           2.406
  23139839.620    -5273518.477 6  -4109228.94021        17.500           0.563
  23082892.714    -7211206.697 6  -5619109.89621        14.750           0.594
  23820419.261    -2086246.432 5  -1509622.39121        10.750           0.188
 91  6  6 17 15 59.9990000  0  4G18G11G 2G16
  20919502.097     1883209.656 7   1467431.64122        27.500           2.313
  23133189.245    -5308478.341 6  -4136470.35721        17.250           0.688
  23072653.081    -7265015.107 6  -5661038.45421        14.500           0.438
  23814572.378    -2116973.155 5  -1533565.28021        11.000           0.219
 91  6  6 17 16 14.9990000  0  4G18G11G 2G16
  20923437.620     1903887.641 7   1483544.30322        27.750           2.313
  23126558.308    -5343325.511 6  -4163623.96221        17.000           0.719
  23062421.753    -7318777.799 6  -5702931.39321        14.500           0.594
  23808747.144    -2147580.980 5  -1557415.54721        11.250           0.250
 91  6  6 17 16 29.9990000  0  4G18G11G 2G16
  20927390.620     1924662.268 7   1499732.27422        27.750           2.313
  23119948.159    -5378059.850 6  -4190689.64321        17.250           0.656
  23052200.128    -7372494.726 6  -5744788.65721        14.750           0.594
  23802945.300    -2178069.739 5  -1581173.00921        11.000           0.250
 91  6  6 17 16 44.9990000  0  4G18G11G 2G16
  20931362.206     1945532.689 7   1515994.88022        27.750           2.250
  23113358.206    -5412681.821 6  -4217667.76821        17.000           0.594
  23041986.558    -7426166.598 6  -5786610.82121        14.750           0.563
  23797166.636    -2208440.194 5  -1604838.28521        10.500           0.188
 91  6  6 17 16 59.9990000  0  4G18G11G 2G16
  20935352.683     1966500.582 8   1532333.44622        28.000           2.313
  23106793.839    -5447189.072 6  -4244556.49821        16.750           0.594
  23031782.776    -7479791.208 6  -5828396.16621        15.000           0.594
  23791411.417    -2238690.219 5  -1628409.74421        10.500           0.219
 91  6  6 17 17 14.9990000  0  4G18G11G 2G16
  20939359.862     1987561.038 7   1548744.13722        27.750           2.469
  23100245.589    -5481586.018 6  -4271359.27921        17.000           0.625
  23021586.464    -7533372.913 6  -5870148.07721        15.000           0.688
  23785676.050    -2268824.315 5  -1651890.85421        10.500           0.250
 91  6  6 17 17 29.9990000  0  4G18G11G 2G16
  20943385.065     2008713.313 8   1565226.37022        28.000           2.406
  23093720.261    -5515873.095 6  -4298076.45121        17.000           0.563
  23011397.745    -7586912.460 6  -5911867.13021        15.250           0.656
  23779964.448    -2298843.164 5  -1675282.17021        10.500           0.250
 91  6  6 17 17 44.9990000  0  4G18G11G 2G16
  20947428.198     2029961.780 8   1581783.56122        28.000           2.344
  23087219.800    -5550045.356 6  -4324704.15621        17.000           0.688
  23001219.769    -7640405.199 6  -5953549.71821        15.000           0.656
  23774274.855    -2328741.792 5  -1698579.80321        10.250           0.375
 91  6  6 17 17 59.9990000  0  4G18G11G 2G16
  20951488.698     2051297.298 8   1598408.58322        28.000           2.406
  23080735.730    -5584111.499 6  -4351249.18121        16.500           0.594
  22991047.245    -7693859.929 6  -5995202.68321        15.500           0.750
  23768606.237    -2358529.429 5  -1721790.95721        10.000           0.250
 91  6  6 17 18 14.9990000  0  4G18G11G 2G16
  20955566.261     2072724.226 8   1615104.83322        28.250           2.438
  23074274.987    -5618067.012 6  -4377707.99121        16.250           0.563
  22980882.855    -7747272.253 6  -6036822.62021        15.250           0.625
  23762959.448    -2388201.420 5  -1744911.98021        10.250           0.281
 91  6  6 17 18 29.9990000  0  4G18G11G 2G16
  20959661.292     2094246.260 8   1631875.19422        28.250           2.469
  23067835.675    -5651907.873 6  -4404077.46021        16.500           0.719
  22970727.948    -7800638.222 6  -6078406.42621        15.250           0.625
  23757333.886    -2417753.949 5  -1767939.94321         9.750           0.188
 91  6  6 17 18 44.9990000  0  4G18G11G 2G16
  20963776.503     2115869.805 8   1648724.65422        28.000           2.344
  23061417.472    -5685626.972 6  -4430352.05421        16.250           0.625
  22960582.706    -7853950.928 6  -6119948.73321        15.250           0.656
  23751736.534    -2447180.257 5  -1790869.52421         9.750           0.313
 91  6  6 17 18 59.9990000  0  4G18G11G 2G16
  20967910.144     2137592.322 8   1665651.22922        28.000           2.438
  23055026.237    -5719226.454 6  -4456533.44421        16.250           0.594
  22950449.487    -7907212.557 6  -6161451.24321        15.250           0.625
  23746160.745    -2476482.245 5  -1813702.23421         9.750           0.281
 91  6  6 17 19 14.9990000  0  4G18G11G 2G16
  20972061.175     2159406.595 8   1682649.30922        28.000           2.438
  23048654.550    -5752713.078 6  -4482626.89021        16.250           0.625
  22940320.042    -7960430.021 6  -6202919.32621        15.000           0.656
  23740607.097    -2505666.855 5  -1836443.49521        10.000           0.281
 91  6  6 17 19 29.9990000  0  4G18G11G 2G16
  20976230.050     2181314.029 8   1699719.97422        28.000           2.438
  23042302.011    -5786085.020 6  -4508630.97821        16.500           0.656
  22930202.081    -8013601.757 6  -6244351.79021        15.250           0.750
  23735076.401    -2534732.809 5  -1859092.31221        10.000           0.250
 91  6  6 17 19 44.9990000  0  4G18G11G 2G16
  20980418.003     2203318.079 8   1716865.92822        28.000           2.438
  23035972.769    -5819338.424 6  -4534542.69921        16.250           0.625
  22920092.683    -8066724.118 6  -6285745.77321        15.250           0.688
  23729566.862    -2563676.497 5  -1881645.80621        10.250           0.219
 91  6  6 17 19 59.9990000  0  4G18G11G 2G16
  20984622.581     2225415.499 8   1734084.63622        28.000           2.375
  23029670.269    -5852476.116 6  -4560364.25821        16.250           0.625
  22909992.847    -8119800.021 6  -6327103.56021        15.750           0.813
  23724082.495    -2592500.763 5  -1904106.29621        10.250           0.344
 91  6  6 17 20 14.9990000  0  4G18G11G 2G16
  20988846.644     2247611.680 8   1751380.29922        28.000           2.313
  23023385.683    -5885492.251 6  -4586091.08721        16.250           0.719
  22899902.698    -8172823.700 6  -6368420.65221        15.500           0.719
  23718621.698    -2621199.773 5  -1926469.14721        10.500           0.313
 91  6  6 17 20 29.9990000  0  5G18G11G 2G16G 6
  20993088.597     2269904.730 7   1768751.44422        27.750           2.313
  23017125.730    -5918388.277 6  -4611724.33721        16.250           0.656
  22889821.886    -8225796.853 6  -6409698.38221        15.750           0.656
  23713184.909    -2649775.176 5  -1948735.69821        10.250           0.188
  24263482.019          -0.02114                         7.000
 91  6  6 17 20 44.9990000  0  5G18G11G 2G16G 6
  20997348.792     2292291.965 8   1786195.98322        28.000           2.438
  23010884.253    -5951166.133 6  -4637265.49921        16.250           0.563
  22879751.269    -8278721.724 6  -6450938.48221        16.250           0.688
  23707769.690    -2678229.212 5  -1970907.69021        10.250           0.281
  24254736.230      -45943.592 4                         6.750
 91  6  6 17 20 59.9990000  0  5G18G11G 2G16G 6
  21001626.409     2314772.867 7   1803713.51022        27.750           2.313
  23004675.386    -5983826.351 6  -4662714.99721        16.750           0.688
  22869688.659    -8331598.988 6  -6492141.48921        16.500           0.813
  23702377.503    -2706562.351 5  -1992985.45521        10.500           0.281
  24245995.878      -91881.706 4                         6.500
 91  6  6 17 21 14.9990000  0  5G18G11G 2G16G 6
  21005922.534     2337345.210 7   1821302.28622        27.750           2.344
  22998483.026    -6016370.588 6  -4688074.11421        16.500           0.656
  22859634.503    -8384430.227 6  -6533308.63321        16.000           0.844
  23697008.003    -2734776.522 5  -2014970.53921        10.250           0.219
  24237252.058     -137816.175 4                         6.250
 91  6  6 17 21 29.9990000  0  5G18G11G 2G16G 6
  21010234.081     2360007.676 7   1838961.28822        27.500           2.406
  22992309.659    -6048799.750 6  -4713343.56921        16.750           0.594
  22849590.808    -8437216.543 6  -6574440.76521        16.500           0.781
  23691662.690    -2762873.082 5  -2036863.96421        10.500           0.250
  24228512.245     -183748.378 3                         6.000
 91  6  6 17 21 44.9990000  0  5G18G11G 2G16G 6
  21014565.698     2382766.459 7   1856695.34122        27.500           2.281
  22986160.597    -6081107.090 6  -4738518.09421        16.750           0.656
  22839556.542    -8489951.235 6  -6615532.67821        16.750           0.813
  23686340.940    -2790844.954 5  -2058660.24021        10.250           0.250
  24219772.308     -229671.765 3        -0.30531         5.500           0.188
 91  6  6 17 21 59.9990000  0  5G18G11G 2G16G 6
  21018913.659     2405619.161 7   1874502.58322        27.500           2.313
  22980034.730    -6113294.816 6  -4763599.42521        17.250           0.750
  22829529.253    -8542636.695 6  -6656586.23421        16.500           0.750
  23681040.261    -2818694.709 5  -2080361.35321        10.250           0.375
  24211038.081     -275588.956 3    -35779.87921         5.750           0.125
 91  6  6 17 22 14.9990000  0  5G18G11G 2G16G 6
  21023281.519     2428566.671 7   1892383.69422        27.250           2.281
  22973933.144    -6145361.384 6  -4788586.34121        17.500           0.750
  22819512.995    -8595271.605 6  -6697600.39821        16.500           0.719
  23675762.550    -2846421.210 5  -2101966.41721        10.000           0.344
  24202298.972     -321498.737 3    -71553.71821         5.750           0.250
 91  6  6 17 22 29.9990000  0  5G18G11G 2G16G 6
  21027665.933     2451608.417 7   1910338.23222        27.000           2.250
  22967854.925    -6177306.823 6  -4813478.86121        17.500           0.719
  22809507.105    -8647856.326 6  -6738575.44321        16.250           0.750
  23670509.097    -2874024.463 5  -2123475.45221        10.250           0.344
  24193563.714     -367401.353 3   -107321.95021         5.750           0.250
 91  6  6 17 22 44.9990000  0  5G18G11G 2G16G 6
  21032070.151     2474746.970 7   1928368.21122        27.000           2.250
  22961797.644    -6209128.512 6  -4838274.95621        17.250           0.719
  22799510.120    -8700388.170 6  -6779509.29221        16.500           0.813
  23665283.808    -2901501.946 5  -2144886.48021        10.000           0.406
  24184833.362     -413294.548 3   -143082.84521         6.000           0.281
 91  6  6 17 22 59.9990000  0  5G18G11G 2G16G 6
  21036490.948     2497978.945 7   1946470.98722        27.000           2.250
  22955766.065    -6240829.407 6  -4862976.93221        17.250           0.781
  22789523.073    -8752870.149 6  -6820404.29021        16.750           0.750
  23660077.855    -2928856.674 5  -2166201.85821         9.750           0.313
  24176099.073     -459181.439 3   -178838.83221         6.000           0.344
 91  6  6 17 23 14.9990000  0  5G18G11G 2G16G 6
  21040928.667     2521304.747 7   1964646.87122        26.750           2.281
  22949755.909    -6272408.371 6  -4887583.89121        17.250           0.781
  22779545.417    -8805301.333 6  -6861259.69921        16.750           0.844
  23654895.769    -2956087.887 5  -2187420.98121         9.500           0.344
  24167369.167     -505061.351 3   -214589.38421         6.000           0.156
 91  6  6 17 23 29.9990000  0  5G18G11G 2G16G 6
  21045386.495     2544728.977 7   1982899.45322        26.750           2.250
  22943773.237    -6303860.436 6  -4912091.95721        17.500           0.750
  22769579.690    -8857676.865 6  -6902071.75721        16.750           0.781
  23649737.425    -2983190.740 5  -2208540.09921         9.500           0.375
  24158639.620     -550929.663 4   -250330.88621         6.500           0.250
 91  6  6 17 23 44.9990000  0  5G18G11G 2G16G 6
  21049862.534     2568248.722 7   2001226.46622        27.000           2.063
  22937811.581    -6335188.078 6  -4936503.08921        17.500           0.719
  22759621.972    -8909999.532 6  -6942842.61121        16.500           0.719
  23644601.964    -3010167.904 5  -2229561.26621         9.500           0.375
  24149914.120     -596789.137 3   -286065.53621         6.000           0.219
 91  6  6 17 23 59.9990000  0  5G18G11G 2G16G 6
  21054354.870     2591855.512 7   2019621.29822        27.000           2.281
  22931872.495    -6366399.566 6  -4960823.70321        17.500           0.625
  22749674.230    -8962277.744 6  -6983578.82821        16.750           0.781
  23639492.651    -3037027.683 5  -2250490.94921         9.500           0.281
  24141188.058     -642648.347 4   -321799.95021         6.250           0.219
 91  6  6 17 24 14.9990000  0  5G18G11G 2G16G 6
  21058865.237     2615562.096 7   2038093.90222        26.500           2.219
  22925959.362    -6397481.468 6  -4985043.33921        17.750           0.750
  22739737.167    -9014498.304 6  -7024270.13021        16.750           0.781
  23634405.550    -3063757.061 5  -2271319.05821         9.500           0.313
  24132462.214     -688494.118 3   -357523.90221         6.000           0.344
 91  6  6 17 24 29.9990000  0  5G18G11G 2G16G 6
  21063395.698     2639365.558 7   2056641.98522        26.250           2.219
  22920065.886    -6428436.436 6  -5009164.06621        17.750           0.719
  22729811.503    -9066663.750 6  -7064918.47921        17.000           0.813
  23629343.323    -3090359.017 5  -2292047.85321        10.000           0.406
  24123738.605     -734329.437 3   -393239.68021         6.000           0.188
 91  6  6 17 24 44.9990000  0  5G18G11G 2G16G 6
  21067945.362     2663273.755 7   2075271.68122        26.250           2.219
  22914201.464    -6459256.157 6  -5033179.40421        17.750           0.750
  22719896.073    -9118765.995 6  -7105517.58621        17.000           0.875
  23624308.597    -3116825.126 5  -2312670.79821         9.500           0.406
  24115020.925     -780146.287 4   -428941.10521         6.500           0.281
 91  6  6 17 24 59.9990000  0  5G18G11G 2G16G 6
  21072513.519     2687276.926 7   2093975.38322        26.000           2.094
  22908361.730    -6489949.709 6  -5057096.43521        17.750           0.719
  22709991.331    -9170814.250 6  -7146074.61921        17.000           0.938
  23619294.386    -3143164.663 5  -2333195.11321         9.500           0.375
  24106304.198     -825954.101 4   -464635.47521         6.750           0.313
 91  6  6 17 25 14.9990000  0  5G18G11G 2G16G 6
  21077098.261     2711376.378 7   2112754.11522        25.750           2.281
  22902544.847    -6520515.684 6  -5080914.04621        17.750           0.781
  22700096.995    -9222807.117 6  -7186588.49221        16.750           0.813
  23614305.800    -3169376.230 5  -2353619.72121         9.750           0.313
  24097589.222     -871751.646 4   -500321.83321         7.000           0.250
 91  6  6 17 25 29.9990000  0  5G18G11G 2G16G 6
  21081704.112     2735574.219 7   2131609.50922        25.750           2.281
  22896751.605    -6550951.389 6  -5104630.15221        17.500           0.750
  22690214.526    -9274742.099 6  -7227057.25621        17.750           0.750
  23609343.058    -3195457.436 5  -2373942.74821        10.000           0.313
  24088875.573     -917536.596 4   -535998.39421         7.250           0.188
 91  6  6 17 25 44.9990000  0  5G18G11G 2G16G 6
  21086325.065     2759863.020 7   2150535.77822        25.750           2.281
  22890983.956    -6581263.722 6  -5128250.12621        18.250           0.813
  22680341.815    -9326626.188 6  -7267486.37721        18.000           0.938
  23604403.831    -3221415.568 5  -2394169.85621         9.750           0.438
  24080167.526     -963315.992 4   -571670.63221         7.250           0.219
 91  6  6 17 25 59.9990000  0  5G18G11G 2G16G 6
  21090965.909     2784244.843 7   2169534.54022        25.500           2.313
  22885240.722    -6611450.544 6  -5151772.29721        18.250           0.688
  22670478.308    -9378457.392 6  -7307874.28021        17.750           0.813
  23599488.909    -3247248.200 5  -2414299.19021         9.750           0.375
  24071453.175    -1009088.046 5   -607337.12621         7.500           0.188
 91  6  6 17 26 14.9990000  0  5G18G11G 2G16G 6
  21095623.081     2808720.116 7   2188606.11922        25.500           2.250
  22879518.511    -6641510.909 6  -5175195.92421        18.000           0.719
  22660624.230    -9430234.899 6  -7348220.34921        17.500           0.906
  23594597.284    -3272954.864 5  -2434330.36321         9.250           0.344
  24062745.698    -1054852.170 5   -642997.47521         7.500           0.219
 91  6  6 17 26 29.9990000  0  5G18G11G 2G16G 6
  21100299.042     2833289.395 7   2207750.94422        25.500           2.313
  22873822.073    -6671443.582 6  -5198520.05821        17.500           0.719
  22650782.558    -9481957.589 6  -7388523.70321        17.750           0.781
  23589729.565    -3298534.275 5  -2454262.36021         9.500           0.344
  24054040.894    -1100607.430 5   -678650.86421         7.500           0.188
 91  6  6 17 26 44.9990000  0  5G18G11G 2G16G 6
  21104991.839     2857952.874 7   2226969.17222        25.500           2.125
  22868151.300    -6701248.545 6  -5221744.67121        17.750           0.719
  22640950.964    -9533625.694 6  -7428784.51021        18.000           0.813
  23584884.308    -3323986.656 5  -2474095.38621         9.250           0.313
  24045334.456    -1146354.001 5   -714297.51921         7.500           0.219
 91  6  6 17 26 59.9990000  0  5G18G11G 2G16G 6
  21109703.167     2882712.740 7   2246262.50922        25.750           2.313
  22862504.651    -6730922.835 6  -5244867.46321        17.750           0.719
  22631129.065    -9585236.373 6  -7469000.58421        17.750           0.875
  23580066.667    -3349309.372 5  -2493827.39121         9.500           0.375
  24036630.331    -1192089.269 5   -749935.36921         7.750           0.219
 91  6  6 17 27 14.9990000  0  5G18G11G 2G16G 6
  21114432.972     2907564.935 7   2265627.78922        25.750           2.281
  22856882.409    -6760470.187 6  -5267891.34121        17.500           0.719
  22621318.636    -9636793.422 6  -7509174.86221        17.750           0.875
  23575272.237    -3374505.969 5  -2513461.11421         9.250           0.438
  24027929.237    -1237817.168 5   -785567.45521         8.000           0.219
 91  6  6 17 27 29.9990000  0  5G18G11G 2G16G 6
  21119180.308     2932509.664 7   2285065.17022        25.750           2.250
  22851283.948    -6789889.588 6  -5290815.51821        17.750           0.750
  22611516.995    -9688296.124 6  -7549306.78821        17.500           0.906
  23570503.495    -3399575.994 5  -2532996.20321         9.500           0.344
  24019228.425    -1283537.194 5   -821193.41021         8.500           0.188
 91  6  6 17 27 44.9990000  0  5G18G11G 2G16G 6
  21123942.745     2957541.369 7   2304570.33222        25.500           2.219
  22845709.050    -6819186.292 6  -5313644.09021        17.500           0.813
  22601725.823    -9739749.777 6  -7589400.49321        17.250           0.938
  23565753.487    -3424524.668 5  -2552436.73321         9.250           0.344
  24010529.933    -1329254.749 5   -856817.46121         8.500           0.188
 91  6  6 17 27 59.9990000  0  5G18G11G 2G16G 6
  21128724.659     2982667.511 7   2324149.07922        25.750           2.188
  22840158.589    -6848352.444 6  -5336370.93621        18.000           0.750
  22591945.019    -9791146.503 6  -7629449.84221        17.250           0.844
  23561030.784    -3449344.662 5  -2571777.00321         9.750           0.406
  24001831.995    -1374962.342 5   -892433.73721         8.250           0.125
 91  6  6 17 28 14.9990000  0  5G18G11G 2G16G 6
  21133523.667     3007887.107 7   2343800.65122        25.500           2.250
  22834632.526    -6877388.679 6  -5358996.53921        17.750           0.688
  22582175.800    -9842487.230 6  -7669455.55921        17.750           0.938
  23556331.433    -3474036.541 5  -2591017.44921         9.750           0.250
  23993134.339    -1420660.775 5   -928042.88321         8.500           0.125
 91  6  6 17 28 29.9990000  0  5G18G11G 2G16G 6
  21138340.855     3033198.645 7   2363523.86022        25.500           2.094
  22829134.214    -6906296.230 6  -5381521.88121        17.750           0.781
  22572415.597    -9893773.286 6  -7709418.66921        17.750           0.906
  23551657.722    -3498601.644 5  -2610159.07121        10.000           0.281
  23984442.487    -1466351.514 5   -963646.01221         8.500           0.188
 91  6  6 17 28 44.9990000  0  5G18G11G 2G16G 6
  21143175.362     3058603.942 7   2383320.12722        25.500           2.219
  22823655.940    -6935072.650 6  -5403945.03121        18.000           0.719
  22562666.511    -9945002.319 6  -7749337.34521        18.000           1.031
  23547009.315    -3523037.785 5  -2629200.24721        10.000           0.375
  23975749.753    -1512032.458 5   -999241.50521         8.750           0.281
 91  6  6 17 28 59.9990000  0  5G18G11G 2G16G 6
  21148026.909     3084098.783 7   2403186.16922        25.500           2.219
  22818205.753    -6963721.835 6  -5426269.05021        18.000           0.719
  22552928.456    -9996178.401 6  -7789214.76621        17.500           1.063
  23542383.089    -3547348.795 5  -2648143.87921        10.250           0.313
  23967055.206    -1557707.641 5  -1034832.53021         8.500           0.125
 91  6  6 17 29 14.9990000  0  5G18G11G 2G16G 6
  21152895.433     3109684.030 7   2423122.65922        25.500           2.219
  22812778.034    -6992242.366 6  -5448492.80821        17.750           0.750
  22543200.737   -10047300.125 6  -7829049.82721        17.500           1.063
  23537778.964    -3571533.496 5  -2666989.12521        10.250           0.281
  23958367.284    -1603376.116 5  -1070418.30721         8.250           0.219
 91  6  6 17 29 29.9990000  0  5G18G11G 2G16G 6
  21157782.847     3135369.620 7   2443137.33722        25.500           2.281
  22807376.737    -7020624.156 6  -5470608.46221        17.750           0.656
  22533485.105   -10098357.519 6  -7868834.76021        17.500           1.125
  23533202.542    -3595582.111 5  -2685728.31021        10.250           0.406
  23949679.440    -1649027.903 5  -1105991.09321         8.250           0.219
 91  6  6 17 29 44.9990000  0  5G18G11G 2G16G 6
  21162688.190     3161145.428 7   2463222.31622        25.250           2.250
  22802000.401    -7048876.912 6  -5492623.57221        17.750           0.719
  22523779.112   -10149360.425 6  -7908577.23421        17.500           0.969
  23528649.886    -3619504.431 5  -2704369.10021        10.000           0.313
  23940993.378    -1694673.102 5  -1141558.73521         8.500           0.156
 91  6  6 17 29 59.9990000  0  5G18G11G 2G16G 6
  21167610.511     3187010.748 7   2483377.04222        25.250           2.250
  22796647.440    -7077000.881 6  -5514538.32121        17.750           0.719
  22514083.776   -10200309.227 6  -7948277.55021        17.750           1.125
  23524123.745    -3643300.779 5  -2722911.72321        10.250           0.313
  23932308.026    -1740312.145 5  -1177121.58721         8.250           0.125
 91  6  6 17 30 14.9990000  0  5G18G11G 2G16G 6
  21172549.761     3212966.930 7   2503602.56922        25.250           2.313
  22791321.222    -7104994.110 6  -5536351.19721        17.750           0.719
  22504400.011   -10251202.076 6  -7987934.26421        18.250           1.094
  23519620.019    -3666969.391 5  -2741354.78621        10.250           0.313
  23923624.448    -1785943.428 5  -1212678.42221         8.250           0.188
 91  6  6 17 30 29.9990000  0  5G18G11G 2G16G 6
  21177507.042     3239019.046 7   2523902.84622        25.000           2.156
  22786019.019    -7132851.127 6  -5558057.94221        18.000           0.719
  22494725.675   -10302033.498 6  -8027543.12321        18.250           1.000
  23515140.222    -3690504.883 5  -2759694.16021        10.250           0.313
  23914945.073    -1831561.629 5  -1248225.01921         8.250           0.250
 91  6  6 17 30 44.9990000  0  5G18G11G 2G16G 6
  21182482.698     3265166.648 7   2544277.52522        25.250           2.188
  22780744.472    -7160572.065 6  -5579658.63921        18.000           0.813
  22485066.105   -10352803.735 6  -8067104.29721        18.500           1.000
  23510684.448    -3713907.636 5  -2777930.06721        10.000           0.313
  23906265.644    -1877167.166 5  -1283761.78221         8.000           0.188
 91  6  6 17 30 59.9990000  0  5G18G11G 2G16G 6
  21187475.784     3291404.673 7   2564722.67622        25.000           2.094
  22775493.800    -7188161.597 6  -5601156.94621        18.250           0.719
  22475415.151   -10403517.580 6  -8106621.53021        18.500           1.031
  23506257.550    -3737182.840 5  -2796066.59521        10.250           0.344
  23897589.878    -1922765.013 5  -1319292.53621         8.250           0.313
 91  6  6 17 31 14.9990000  0  5G18G11G 2G16G 6
  21192485.659     3317732.756 7   2585237.99722        25.000           2.188
  22770270.612    -7215619.675 6  -5622552.82421        18.250           0.688
  22465774.636   -10454175.263 6  -8146095.01421        18.500           1.063
  23501853.081    -3760330.513 5  -2814103.77121        10.250           0.313
  23888911.636    -1968355.406 5  -1354817.49121         8.000           0.219
 91  6  6 17 31 29.9990000  0  5G18G11G 2G16G 6
  21197514.433     3344156.438 7   2605827.81122        25.000           2.219
  22765068.917    -7242940.236 6  -5643841.54821        18.500           0.719
  22456146.190   -10504771.026 6  -8185520.23521        18.250           1.063
  23497473.808    -3783344.567 5  -2832036.82521        10.250           0.344
  23880240.933    -2013932.496 5  -1390332.08521         7.750           0.219
 91  6  6 17 31 44.9990000  0  5G18G11G 2G16G 6
  21202559.995     3370670.149 7   2626487.76622        24.750           2.063
  22759896.550    -7270128.654 6  -5665027.30821        18.250           0.719
  22446528.339   -10555310.012 6  -8224901.22421        18.500           1.031
  23493119.253    -3806230.471 5  -2849870.01521        10.250           0.375
  23871567.386    -2059501.841 4  -1425840.64921         7.250           0.281
 91  6  6 17 31 59.9990000  0  5G18G11G 2G16G 6
  21207622.003     3397272.292 7   2647216.63522        25.000           2.063
  22754748.714    -7297186.019 6  -5686110.94021        18.750           0.750
  22436922.933   -10605793.646 6  -8264239.07621        18.500           1.219
  23488787.355    -3828989.569 5  -2867604.40421        10.500           0.219
  23862896.526    -2105064.964 4  -1461344.33821         7.000           0.219
 91  6  6 17 32 14.9990000  0  5G18G11G 2G16G 6
  21212700.745     3423963.121 7   2668014.61022        24.750           2.031
  22749623.808    -7324111.788 6  -5707092.04121        18.500           0.813
  22427325.847   -10656221.392 6  -8303533.38221        18.750           1.094
  23484480.855    -3851621.376 5  -2885239.59821        10.500           0.313
  23854229.870    -2150621.391 4  -1496842.85021         7.000           0.281
 91  6  6 17 32 29.9990000  0  5G18G11G 2G16G 6
  21217798.339     3450746.449 7   2688884.64822        24.500           2.000
  22744525.315    -7350901.664 6  -5727967.25021        18.750           0.750
  22417742.769   -10706589.129 6  -8342780.93921        19.000           1.094
  23480199.855    -3874121.874 5  -2902772.47621        10.500           0.313
  23845563.526    -2196167.197 4  -1532333.07021         7.000           0.375
 91  6  6 17 32 44.9990000  0  5G18G11G 2G16G 6
  21222910.675     3477614.897 7   2709821.02722        24.750           2.094
  22739452.808    -7377562.786 6  -5748742.12721        18.500           0.656
  22408167.081   -10756904.006 6  -8381987.29421        18.750           1.063
  23475942.284    -3896498.401 5  -2920208.74821        10.500           0.344
  23836894.019    -2241709.690 4  -1567820.69621         6.750           0.344
 91  6  6 17 32 59.9990000  0  5G18G11G 2G16G 6
  21228041.753     3504578.543 7   2730831.58922        24.500           2.031
  22734404.480    -7404084.568 6  -5769408.42821        18.750           0.844
  22398604.753   -10807155.432 6  -8421144.20821        18.750           1.000
  23471708.628    -3918740.655 5  -2937540.39221        10.750           0.313
  23828230.628    -2287238.686 4  -1603297.80721         6.750           0.219
 91  6  6 17 33 14.9990000  0  5G18G11G 2G16G 6
  21233189.909     3531631.292 7   2751911.57822        24.250           2.063
  22729385.167    -7430472.544 6  -5789970.46221        19.000           0.719
  22389053.167   -10857348.971 6  -8460256.01421        18.750           1.063
  23467499.175    -3940854.049 5  -2954771.62721        10.750           0.313
  23819569.151    -2332759.847 4  -1638768.80421         7.250           0.375
 91  6  6 17 33 29.9990000  0  5G18G11G 2G16G 6
  21238354.370     3558770.085 7   2773058.61322        24.250           1.969
  22724387.581    -7456729.014 6  -5810430.02121        19.000           0.750
  22379511.659   -10907487.278 6  -8499324.78321        19.000           1.125
  23463317.073    -3962841.123 5  -2971904.44721        10.750           0.375
  23810907.034    -2378275.705 4  -1674235.70721         7.000           0.281
 91  6  6 17 33 44.9990000  0  5G18G11G 2G16G 6
  21243535.026     3585997.070 7   2794274.37322        24.250           1.844
  22719417.870    -7482851.829 6  -5830785.44821        18.750           0.688
  22369981.737   -10957568.247 6  -8538348.88421        19.250           1.063
  23459156.276    -3984699.807 5  -2988937.19521        10.500           0.219
  23802246.964    -2423784.413 4  -1709697.02621         7.000           0.344
 91  6  6 17 33 59.9990000  0  5G18G11G 2G16G 6
  21248733.136     3613313.984 7   2815560.19522        24.500           2.031
  22714469.526    -7508839.304 6  -5851035.41821        18.750           0.719
  22360462.542   -11007590.219 6  -8577327.00521        19.250           1.000
  23455022.933    -4006428.609 5  -3005868.75721        10.500           0.375
  23793587.714    -2469284.378 4  -1745151.53821         7.000           0.281
 91  6  6 17 34 14.9990000  0  5G18G11G 2G16G 6
  21253949.526     3640719.922 7   2836915.39822        24.250           2.125
  22709553.034    -7534691.417 6  -5871179.90721        18.750           0.844
  22350954.745   -11057553.331 6  -8616259.27021        19.750           1.156
  23450911.659    -4028027.936 5  -3022699.43321        10.500           0.375
  23784930.878    -2514775.879 4  -1780599.44021         7.000           0.438
 91  6  6 17 34 29.9990000  0  5G18G11G 2G16G 6
  21259181.940     3668215.319 7   2858340.30422        24.000           2.031
  22704658.605    -7560407.541 6  -5891218.42721        18.500           0.813
  22341459.667   -11107457.090 7  -8655145.28621        20.000           1.219
  23446825.401    -4049497.111 5  -3039428.67221        10.500           0.344
  23776276.511    -2560258.554 4  -1816040.46721         7.000           0.250
 91  6  6 17 34 44.9990000  0  5G18G11G 2G16G 6
  21264431.089     3695801.917 7   2879836.27022        24.000           2.000
  22699790.675    -7585985.328 6  -5911149.15321        18.500           0.813
  22331974.847   -11157299.145 6  -8693983.22121        19.750           1.250
  23442767.409    -4070833.877 5  -3056054.77621        10.250           0.250
  23767624.698    -2605730.310 4  -1851473.01121         7.250           0.313
 91  6  6 17 34 59.9990000  0  5G18G11G 2G16G 6
  21269697.261     3723475.968 7   2901400.37422        23.750           2.031
  22694950.198    -7611428.084 6  -5930974.68021        18.500           0.719
  22322500.073   -11207082.934 6  -8732775.76321        19.000           1.156
  23438730.605    -4092041.850 5  -3072580.50221        10.250           0.281
  23758972.644    -2651194.640 5  -1886899.77021         7.500           0.344
 91  6  6 17 35 14.9990000  0  5G18G11G 2G16G 6
  21274980.558     3751236.797 7   2923032.10222        23.750           2.000
  22690134.042    -7636736.244 6  -5950695.32321        19.000           0.688
  22313038.128   -11256809.122 6  -8771523.41921        19.500           1.125
  23434717.753    -4113122.036 5  -3089006.67421        10.000           0.375
  23750322.183    -2696652.400 5  -1922321.39421         7.500           0.250
 91  6  6 17 35 29.9990000  0  5G18G11G 2G16G 6
  21280280.081     3779090.366 7   2944736.09622        23.750           2.031
  22685343.964    -7661903.489 6  -5970306.15721        19.000           0.844
  22303587.581   -11306471.405 6  -8810221.26121        19.750           1.219
  23430732.683    -4134068.000 5  -3105328.23221         9.750           0.344
  23741675.175    -2742097.362 5  -1957733.06721         7.750           0.344
 91  6  6 17 35 44.9990000  0  5G18G11G 2G16G 6
  21285597.417     3807032.096 7   2966508.79322        23.500           1.938
  22680581.284    -7686933.639 6  -5989810.16421        19.000           0.813
  22294149.339   -11356073.720 6  -8848872.39021        19.750           1.156
  23426772.542    -4154883.551 5  -3121548.17221        10.000           0.281
  23733028.558    -2787533.463 5  -1993137.82221         7.750           0.219
 91  6  6 17 35 59.9990000  0  5G18G11G 2G16G 6
  21290930.573     3835057.489 7   2988346.67422        23.500           2.031
  22675844.308    -7711831.220 6  -6009210.86721        19.000           0.781
  22284720.698   -11405620.753 7  -8887480.43721        20.000           1.156
  23422834.378    -4175573.492 5  -3137670.23521        10.250           0.313
  23724381.558    -2832965.628 5  -2028539.49521         7.750           0.344
 91  6  6 17 36 14.9990000  0  5G18G11G 2G16G 6
  21296281.355     3863172.813 7   3010254.64122        23.750           1.938
  22671132.487    -7736589.234 6  -6028502.81921        19.250           0.813
  22275303.667   -11455105.442 6  -8926039.89621        19.750           1.313
  23418921.370    -4196130.931 5  -3153689.04821         9.750           0.281
  23715740.636    -2878387.044 5  -2063932.77021         7.750           0.344
 91  6  6 17 36 29.9990000  0  5G18G11G 2G16G 6
  21301648.573     3891377.942 7   3032232.58922        23.500           2.000
  22666447.987    -7761207.877 6  -6047686.16521        19.000           0.844
  22265899.190   -11504528.166 6  -8964551.06921        19.750           1.125
  23415037.472    -4216556.094 5  -3169604.77421        10.000           0.344
  23707096.425    -2923797.981 5  -2099317.89421         8.000           0.281
 91  6  6 17 36 44.9990000  0  5G18G11G 2G16G 6
  21307032.815     3919675.586 7   3054282.62422        23.500           1.906
  22661790.042    -7785683.707 6  -6066758.23221        19.250           0.875
  22256506.925   -11553885.532 7  -9003011.32121        20.000           1.188
  23411175.480    -4236845.887 5  -3185415.01821         9.750           0.344
  23698459.847    -2969195.265 5  -2134692.37121         8.250           0.219
 91  6  6 17 36 59.9990000  0  5G18G11G 2G16G 6
  21312434.909     3948062.506 7   3076402.22422        23.250           1.938
  22657156.839    -7810019.929 6  -6085721.52321        19.000           0.813
  22247125.878   -11603180.698 7  -9041423.09921        20.000           1.219
  23407336.589    -4257003.556 5  -3201122.31821        10.000           0.250
  23689820.964    -3014582.299 5  -2170058.90521         8.250           0.188
 91  6  6 17 37 14.9990000  0  5G18G11G 2G16G 6
  21317853.034     3976534.619 7   3098588.20922        23.000           1.969
  22652556.565    -7834220.167 6  -6104578.84021        19.000           0.781
  22237756.714   -11652417.447 7  -9079789.36721        20.250           1.250
  23403528.433    -4277032.872 5  -3216729.60421        10.500           0.313
  23681186.378    -3059962.949 5  -2205420.44121         8.250           0.219
 91  6  6 17 37 29.9990000  0  5G18G11G 2G16G 6
  21323288.003     4005092.452 7   3120840.99222        23.250           2.000
  22647973.690    -7858283.270 6  -6123329.30521        18.750           0.781
  22228397.933   -11701594.581 7  -9118109.17721        20.000           1.094
  23399741.956    -4296933.118 5  -3232236.30021        10.500           0.375
  23672554.120    -3105336.308 5  -2240776.26921         8.250           0.250
 91  6  6 17 37 44.9990000  0  5G18G11G 2G16G 6
  21328740.065     4033741.168 7   3143164.59722        23.000           1.969
  22643424.042    -7882203.878 6  -6141968.73721        19.000           0.750
  22219052.011   -11750707.034 7  -9156378.58221        20.250           1.125
  23395978.714    -4316699.006 5  -3247638.29321        10.250           0.406
  23663921.808    -3150697.278 5  -2276122.44621         8.250           0.313
 91  6  6 17 37 59.9990000  0  5G18G11G 2G16G 6
  21334207.503     4062473.598 7   3165553.43222        23.250           1.969
  22638896.628    -7905988.584 6  -6160502.27021        18.750           0.875
  22209717.667   -11799761.406 7  -9194602.72721        20.250           1.125
  23392242.355    -4336337.186 5  -3262940.79321        10.500           0.313
  23655288.698    -3196052.643 5  -2311464.25621         8.250           0.188
 91  6  6 17 38 14.9990000  0  5G18G11G 2G16G 6
  21339691.745     4091295.456 7   3188011.94422        22.750           1.938
  22634397.503    -7929631.176 6  -6178925.06121        19.000           0.844
  22200395.128   -11848751.569 7  -9232776.84721        20.500           1.219
  23388532.714    -4355841.690 5  -3278139.12221        10.500           0.344
  23646663.378    -3241396.415 5  -2346797.04321         8.500           0.406
 91  6  6 17 38 29.9990000  0  5G18G11G 2G16G 6
  21345191.136     4120197.716 7   3210533.11422        23.000           2.031
  22629922.503    -7953140.486 6  -6197244.00021        19.000           0.906
  22191083.128   -11897686.598 7  -9270907.99621        20.250           1.313
  23384843.589    -4375221.155 5  -3293240.01421        10.500           0.313
  23638033.800    -3286737.695 5  -2382127.88221         8.250           0.281
 91  6  6 17 38 44.9990000  0  5G18G11G 2G16G 6
  21350708.237     4149185.371 7   3233120.82222        23.000           1.875
  22625477.089    -7976511.051 6  -6215454.82721        19.000           0.781
  22181782.511   -11946561.075 7  -9308991.95821        20.000           1.250
  23381179.315    -4394470.795 5  -3308239.73821        10.500           0.344
  23629405.675    -3332071.128 5  -2417452.59321         8.250           0.250
 91  6  6 17 38 59.9990000  0  5G18G11G 2G16G 6
  21356239.683     4178259.479 7   3255775.89922        22.750           1.969
  22621056.823    -7999741.557 6  -6233556.51821        19.000           0.781
  22172492.980   -11995373.628 7  -9347027.67621        20.250           1.281
  23377542.956    -4413589.470 5  -3323137.42721        10.750           0.375
  23620779.370    -3377395.673 5  -2452770.39121         8.750           0.281
 91  6  6 17 39 14.9990000  0  5G18G11G 2G16G 6
  21361789.355     4207419.324 7   3278497.78622        22.750           2.031
  22616662.339    -8022832.158 6  -6251549.18621        18.750           0.750
  22163217.089   -12044124.421 7  -9385015.26221        20.250           1.250
  23373928.269    -4432577.299 5  -3337933.14221        11.000           0.344
  23612158.940    -3422711.575 5  -2488081.44421         9.000           0.313
 91  6  6 17 39 29.9990000  0  5G18G11G 2G16G 6
  21367356.097     4236671.897 7   3301291.93022        22.500           1.969
  22612296.675    -8045775.485 6  -6269427.09921        18.750           0.781
  22153952.581   -12092806.476 7  -9422949.28921        20.000           1.406
  23370341.698    -4451427.256 5  -3352621.44221        11.000           0.375
  23603536.308    -3468011.841 5  -2523380.31821         9.000           0.375
 91  6  6 17 39 44.9990000  0  5G18G11G 2G16G 6
  21372938.503     4266003.951 7   3324147.99522        22.000           1.938
  22607954.894    -8068584.503 6  -6287200.35721        18.500           0.781
  22144701.136   -12141432.814 7  -9460839.90221        20.000           1.250
  23366779.425    -4470152.231 5  -3367212.33721        11.000           0.375
  23594916.605    -3513309.521 5  -2558677.19421         9.000           0.250
 91  6  6 17 39 59.9990000  0  5G18G11G 2G16G 6
  21378536.308     4295420.113 7   3347069.60422        22.250           1.938
  22603641.378    -8091254.169 6  -6304865.03221        18.750           0.813
  22135457.894   -12189998.324 7  -9498683.10821        20.000           1.344
  23363240.464    -4488747.162 5  -3381701.91721        10.500           0.406
  23586299.464    -3558599.859 5  -2593968.34121         9.250           0.250
 91  6  6 17 40 14.9990000  0  5G18G11G 2G16G 6
  21384150.198     4324921.134 7   3370057.34422        22.750           2.000
  22599355.495    -8113783.540 6  -6322420.38121        19.000           0.781
  22126227.675   -12238502.098 6  -9536478.21221        19.750           1.438
  23359725.331    -4507211.308 5  -3396089.57721        10.500           0.281
  23577680.995    -3603881.975 5  -2629253.07221         8.750           0.219
 91  6  6 17 40 29.9990000  0  5G18G11G 2G16G 6
  21389779.800     4354506.988 7   3393111.18022        22.250           1.906
  22595093.050    -8136172.113 6  -6339866.03121        19.000           0.875
  22117009.558   -12286943.584 6  -9574224.78921        19.750           1.375
  23356239.011    -4525544.816 5  -3410375.43221        11.000           0.313
  23569066.206    -3649155.603 5  -2664531.19821         8.250           0.313
 91  6  6 17 40 44.9990000  0  5G18G11G 2G16G 6
  21395427.214     4384182.026 7   3416234.51122        22.250           2.000
  22590860.948    -8158415.031 6  -6357198.16921        19.000           0.875
  22107804.808   -12335318.110 7  -9611919.18821        20.000           1.438
  23352775.097    -4543742.747 5  -3424555.66021        11.000           0.281
  23560452.862    -3694416.104 5  -2699799.07621         8.250           0.281
 91  6  6 17 40 59.9990000  0  5G18G11G 2G16G 6
  21401089.612     4413941.338 7   3439423.50422        22.000           1.813
  22586655.190    -8180517.088 6  -6374420.56021        18.750           0.813
  22098610.151   -12383630.632 6  -9649565.28321        19.500           1.469
  23349336.503    -4561809.945 5  -3438634.01521        10.750           0.375
  23551842.862    -3739668.419 5  -2735060.60921         8.750           0.219
 91  6  6 17 41 14.9990000  0  5G18G11G 2G16G 6
  21406768.276     4443779.413 7   3462673.87522        22.000           1.906
  22582475.651    -8202483.189 6  -6391537.00721        19.250           0.875
  22089427.894   -12431886.089 6  -9687166.90321        19.500           1.438
  23345922.948    -4579751.913 5  -3452614.77721        11.250           0.375
  23543231.792    -3784917.747 5  -2770319.81321         8.500           0.281
 91  6  6 17 41 29.9990000  0  5G18G11G 2G16G 6
  21412462.230     4473704.516 7   3485992.06522        22.000           1.844
  22578323.987    -8224304.862 6  -6408540.90821        19.250           0.813
  22080257.870   -12480076.091 6  -9724717.52122        19.500           1.531
  23342533.886    -4597559.754 5  -3466491.03821        11.250           0.344
  23534622.675    -3830155.796 5  -2805570.20921         8.250           0.156
 91  6  6 17 41 44.9990000  0  5G18G11G 2G16G 6
  21418171.417     4503711.412 7   3509373.98422        21.750           1.875
  22574196.456    -8245986.788 6  -6425435.91421        19.250           0.844
  22071100.073   -12528205.350 7  -9762220.80021        20.000           1.375
  23339170.776    -4615238.557 5  -3480266.73421        10.750           0.406
  23526016.644    -3875387.304 5  -2840815.51021         8.000           0.219
 91  6  6 17 41 59.9990000  0  5G18G11G 2G16G 6
  21423899.761     4533802.729 7   3532821.69122        22.250           1.875
  22570098.167    -8267525.973 6  -6442219.69221        19.250           0.781
  22061951.940   -12576270.945 6  -9799674.47321        19.250           1.469
  23335830.737    -4632785.635 5  -3493939.80421        10.750           0.313
  23517410.151    -3920609.567 5  -2876053.59721         8.000           0.125
 91  6  6 17 42 14.9990000  0  5G18G11G 2G16G 6
  21429641.222     4563977.198 7   3556334.19122        22.000           1.875
  22566030.230    -8288923.373 6  -6458892.99921        19.500           0.813
  22052818.206   -12624273.788 6  -9837079.24722        19.250           1.500
  23332514.980    -4650202.169 5  -3507511.14721        10.750           0.438
  23508808.214    -3965823.741 5  -2911285.40021         8.500           0.250
 91  6  6 17 42 29.9990000  0  5G18G11G 2G16G 6
  21435399.542     4594237.205 7   3579913.34222        22.000           1.813
  22561983.034    -8310176.512 6  -6475453.87821        19.500           0.844
  22043695.448   -12672211.700 6  -9874433.42422        19.250           1.500
  23329227.964    -4667485.602 5  -3520978.76821        10.750           0.250
  23500206.776    -4011027.496 5  -2946509.08321         8.250           0.219
 91  6  6 17 42 44.9990000  0  5G18G11G 2G16G 6
  21441174.151     4624585.016 7   3603560.91522        22.000           1.750
  22557965.308    -8331282.549 6  -6491900.14221        19.500           0.875
  22034585.370   -12720081.890 6  -9911734.82822        19.250           1.531
  23325963.355    -4684633.216 5  -3534340.55721        10.500           0.313
  23491603.948    -4056218.248 5  -2981722.60821         8.250           0.188
 91  6  6 17 42 59.9990000  0  5G18G11G 2G16G 6
  21446965.276     4655017.090 7   3627274.14622        21.750           1.781
  22553975.440    -8352244.395 6  -6508234.04121        19.500           0.781
  22025488.651   -12767887.276 6  -9948985.74422        19.000           1.500
  23322727.948    -4701648.384 5  -3547599.16421        10.500           0.344
  23483007.472    -4101398.960 5  -3016928.33921         8.250           0.219
 91  6  6 17 43 14.9990000  0  5G18G11G 2G16G 6
  21452772.394     4685530.513 7   3651050.76322        21.750           1.719
  22550016.308    -8373064.923 6  -6524457.82921        19.500           0.875
  22016403.940   -12815630.730 6  -9986188.39322        19.000           1.500
  23319513.605    -4718534.128 5  -3560756.88921        10.500           0.313
  23474411.698    -4146572.756 5  -3052128.67821         8.000           0.063
 91  6  6 17 43 29.9990000  0  5G18G11G 2G16G 6
  21458594.042     4716128.391 7   3674893.19222        21.750           1.719
  22546079.683    -8393740.536 6  -6540568.69421        19.250           0.844
  22007330.933   -12863308.771 6 -10023340.07522        19.000           1.594
  23316327.472    -4735286.669 5  -3573810.83221        10.250           0.281
  23465816.159    -4191736.093 5  -3087320.84821         8.000           0.250
 91  6  6 17 43 44.9990000  0  5G18G11G 2G16G 6
  21464433.034     4746807.320 7   3698798.77522        22.000           1.688
  22542174.065    -8414274.271 6  -6556568.99921        19.500           0.781
  21998269.565   -12910924.549 6 -10060443.23822        18.750           1.500
  23313161.550    -4751909.384 5  -3586763.62021        10.250           0.281
  23457223.300    -4236892.313 5  -3122507.50621         8.000           0.250
 91  6  6 17 43 59.9990000  0  5G18G11G 2G16G 6
  21470286.261     4777566.666 7   3722767.02422        21.500           1.750
  22538293.315    -8434666.269 6  -6572458.86321        19.750           0.813
  21989220.573   -12958478.049 6 -10097497.85922        18.750           1.563
  23310023.878    -4768402.563 5  -3599615.45221        10.250           0.313
  23448631.136    -4282041.693 5  -3157688.79921         8.250           0.219
 91  6  6 17 44 14.9990000  0  5G18G11G 2G16G 6
  21476154.956     4808407.797 7   3746798.99822        21.250           1.750
  22534437.917    -8454915.046 6  -6588237.12421        19.500           0.938
  21980183.847   -13005967.844 6 -10134502.85222        19.250           1.531
  23306909.948    -4784764.799 5  -3612365.25921        10.250           0.313
  23440040.761    -4327182.871 5  -3192863.73021         8.000           0.250
 91  6  6 17 44 29.9990000  0  5G18G11G 2G16G 6
  21482038.886     4839329.688 7   3770893.89822        21.250           1.750
  22530615.245    -8475021.204 6  -6603904.25021        19.500           0.969
  21971157.612   -13053394.734 6 -10171458.83221        18.750           1.469
  23303821.823    -4800997.028 5  -3625013.76721        10.500           0.375
  23431453.628    -4372316.533 5  -3228032.76821         8.000           0.344
 91  6  6 17 44 44.9990000  0  5G18G11G 2G16G 6
  21487938.690     4870333.150 7   3795052.36122        21.750           1.625
  22526814.776    -8494983.711 6  -6619459.44521        19.750           0.875
  21962145.276   -13100757.656 6 -10208364.95922        18.500           1.563
  23300757.136    -4817098.119 5  -3637560.08721        10.000           0.281
  23422866.120    -4417441.908 5  -3263195.36321         8.250           0.219
 91  6  6 17 44 59.9990000  0  5G18G11G 2G16G 6
  21493855.800     4901422.847 7   3819278.02122        21.750           1.594
  22523043.198    -8514797.356 6  -6634898.63821        19.750           0.875
  21953145.800   -13148051.554 6 -10245217.29822        18.500           1.531
  23297719.909    -4833063.340 5  -3650000.54021        10.000           0.344
  23414280.347    -4462553.972 5  -3298347.59621         8.500           0.344
 91  6  6 17 45 14.9990000  0  5G18G11G 2G16G 6
  21499785.964     4932589.339 7   3843563.52322        21.500           1.531
  22519300.550    -8534471.234 7  -6650228.92021        20.000           0.906
  21944156.839   -13195285.480 6 -10282022.90521        18.250           1.469
  23294704.503    -4848901.620 5  -3662342.06421         9.750           0.250
  23405699.386    -4507661.904 5  -3333496.60321         8.750           0.250
 91  6  6 17 45 29.9990000  0  5G18G11G 2G16G 6
  21505733.675     4963840.218 7   3867914.77722        21.500           1.563
  22515583.378    -8553997.422 7  -6665444.11821        20.000           0.906
  21935182.011   -13242451.522 6 -10318775.61422        18.250           1.563
  23291719.339    -4864605.466 5  -3674578.84421        10.000           0.375
  23397115.808    -4552757.940 5  -3368636.34221         8.750           0.156
 91  6  6 17 45 44.9990000  0  5G18G11G 2G16G 6
  21511694.636     4995167.795 7   3892325.79922        21.500           1.625
  22511895.948    -8573383.165 6  -6680549.87421        19.750           0.938
  21926216.776   -13289556.970 6 -10355481.10822        18.500           1.531
  23288753.245    -4880182.182 5  -3686716.55621         9.750           0.344
  23388534.769    -4597849.490 5  -3403772.59021         8.750           0.313
 91  6  6 17 45 59.9990000  0  5G18G11G 2G16G 6
  21517671.073     5026575.552 7   3916799.30122        21.250           1.594
  22508233.948    -8592624.772 7  -6695543.32421        20.000           0.875
  21917265.831   -13336598.217 6 -10392136.57722        18.500           1.500
  23285814.534    -4895628.159 5  -3698752.39821         9.750           0.375
  23379957.011    -4642932.969 5  -3438902.53621         9.000           0.406
 91  6  6 17 46 14.9990000  0  5G18G11G 2G16G 6
  21523665.034     5058072.244 7   3941342.10022        21.250           1.594
  22504602.870    -8611713.035 7  -6710417.27521        20.250           0.844
  21908328.667   -13383566.285 6 -10428735.02621        18.750           1.469
  23282898.378    -4910934.479 5  -3710679.41921         9.500           0.344
  23371381.097    -4687999.435 5  -3474019.24221         8.750           0.438
 91  6  6 17 46 29.9990000  0  5G18G11G 2G16G 6
  21529674.042     5089649.172 7   3965947.42522        20.750           1.563
  22500995.339    -8630656.404 7  -6725178.33121        20.000           0.875
  21899403.042   -13430469.525 6 -10465282.96022        19.000           1.563
  23280014.331    -4926109.658 5  -3722504.24621         9.500           0.344
  23362806.315    -4733057.492 5  -3509129.37821         9.000           0.344
 91  6  6 17 46 44.9990000  0  5G18G11G 2G16G 6
  21535697.464     5121300.183 7   3990610.46521        20.750           1.438
  22497419.433    -8649460.318 6  -6739830.70721        19.750           0.813
  21890489.573   -13477313.472 6 -10501784.69421        19.000           1.375
  23277147.792    -4941159.261 5  -3734231.23821         9.250           0.313
  23354231.401    -4778112.716 5  -3544237.31121         9.500           0.281
 91  6  6 17 46 59.9990000  0  5G18G11G 2G16G 6
  21541735.300     5153032.690 7   4015337.01222        20.750           1.531
  22493867.675    -8668117.401 7  -6754368.67721        20.250           0.844
  21881587.472   -13524090.889 6 -10538234.58422        18.750           1.531
  23274311.542    -4956076.278 5  -3745854.89521         9.000           0.313
  23345660.815    -4823157.923 5  -3579337.44121         9.750           0.344
 91  6  6 17 47 14.9980000  0  5G18G11G 2G16G 6
  21547788.389     5184839.364 7   4040121.35222        20.750           1.563
  22490346.436    -8686631.437 7  -6768795.17721        20.000           0.813
  21872698.404   -13570803.404 6 -10574633.89621        19.000           1.469
  23271495.818    -4970864.668 5  -3757378.32821         9.000           0.313
  23337090.443    -4868195.034 5  -3614431.26521         9.750           0.281
 91  6  6 17 47 29.9980000  0  5G18G11G 2G16G 6
  21553855.537     5216725.223 7   4064967.39022        21.000           1.531
  22486848.693    -8705003.458 6  -6783111.01521        19.750           0.813
  21863820.506   -13617456.081 6 -10610986.59021        19.500           1.469
  23268706.053    -4985525.176 5  -3768802.11221         9.000           0.375
  23328521.045    -4913228.915 5  -3649522.57421         9.500           0.406
 91  6  6 17 47 44.9980000  0  5G18G11G 2G16G 6
  21559940.311     5248694.103 7   4089878.12622        20.750           1.500
  22483380.334    -8723225.758 6  -6797310.19021        19.750           0.875
  21854956.334   -13664039.345 6 -10647285.19022        19.750           1.500
  23265944.318    -5000050.658 5  -3780120.68821         9.000           0.406
  23319954.498    -4958250.314 5  -3684604.16321         9.250           0.438
 91  6  6 17 47 59.9980000  0  5G18G11G 2G16G 6
  21566037.365     5280739.956 7   4114848.84222        20.500           1.531
  22479941.467    -8741304.223 7  -6811397.28421        20.000           0.906
  21846103.842   -13710559.026 7 -10683534.25421        20.000           1.469
  23263201.639    -5014447.055 5  -3791338.68021         9.000           0.250
  23311387.607    -5003265.072 5  -3719680.56421         9.000           0.406
 91  6  6 17 48 14.9980000  0  5G18G11G 2G16G 6
  21572151.459     5312866.877 7   4139882.72722        20.750           1.531
  22476530.662    -8759234.682 7  -6825369.04521        20.000           1.031
  21837264.420   -13757011.009 6 -10719730.55821        19.750           1.469
  23260489.092    -5028710.327 5  -3802452.93621         8.750           0.375
  23302822.514    -5048269.279 5  -3754748.74321         8.750           0.375
 91  6  6 17 48 29.9980000  0  5G18G11G 2G16G 6
  21578280.584     5345074.763 7   4164979.69722        20.500           1.500
  22473145.967    -8777016.681 6  -6839225.12521        19.750           0.813
  21828437.982   -13803394.892 7 -10755873.80222        20.000           1.594
  23257800.748    -5042840.095 5  -3813463.15721         8.500           0.219
  23294262.100    -5093262.594 5  -3789808.43221         9.250           0.406
 91  6  6 17 48 44.9980000  0  5G18G11G 2G16G 6
  21584424.131     5377361.825 7   4190138.36422        20.250           1.500
  22469790.381    -8794651.675 6  -6852966.65421        19.750           0.875
  21819623.998   -13849712.081 7 -10791965.07222        20.250           1.531
  23255135.303    -5056838.215 5  -3824370.80621         8.750           0.344
  23285699.170    -5138246.486 5  -3824860.79021         9.250           0.406
 91  6  6 17 48 59.9980000  0  5G18G11G 2G16G 6
  21590582.889     5409724.328 7   4215355.81321        20.500           1.438
  22466459.865    -8812142.827 6  -6866596.10421        19.500           0.906
  21810822.076   -13895965.835 7 -10828006.91122        20.500           1.625
  23252498.264    -5070707.871 5  -3835178.34321         9.000           0.375
  23277142.686    -5183224.282 5  -3859908.40321         9.500           0.344
 91  6  6 17 49 14.9980000  0  5G18G11G 2G16G 6
  21596755.600     5442159.647 7   4240630.00721        20.250           1.469
  22463159.522    -8829492.657 6  -6880115.42821        19.500           0.875
  21802031.412   -13942158.617 7 -10864001.24222        20.250           1.625
  23249881.756    -5084451.571 5  -3845887.73821         8.750           0.344
  23268584.943    -5228198.692 5  -3894953.37621         9.500           0.344
 91  6  6 17 49 29.9980000  0  5G18G11G 2G16G 6
  21602943.482     5474678.407 7   4265969.21721        20.500           1.406
  22459887.631    -8846690.204 6  -6893516.08421        19.500           0.875
  21793255.615   -13988279.634 7 -10899939.64722        20.250           1.594
  23247291.865    -5098058.757 5  -3856490.74921         9.000           0.313
  23260030.428    -5273158.907 5  -3929987.27421         9.750           0.438
 91  6  6 17 49 44.9980000  0  5G18G11G 2G16G 6
  21609148.693     5507282.532 7   4291374.94021        20.250           1.344
  22456643.209    -8863733.276 6  -6906796.37421        19.500           0.938
  21784493.193   -14034326.887 7 -10935820.57522        20.250           1.719
  23244731.740    -5111527.564 5  -3866985.95921         9.250           0.375
  23251474.850    -5318102.949 5  -3965008.57221        10.000           0.344
 91  6  6 17 49 59.9980000  0  5G18G11G 2G16G 6
  21615366.998     5539964.234 7   4316841.11821        20.000           1.469
  22453429.779    -8880629.195 6  -6919962.00721        19.500           0.813
  21775742.631   -14080307.510 7 -10971649.58922        20.500           1.719
  23242190.561    -5124865.404 5  -3877379.07321         9.250           0.188
  23242925.920    -5363038.146 5  -4000022.99521        10.000           0.406
 91  6  6 17 50 14.9980000  0  5G18G11G 2G16G 6
  21621600.318     5572722.031 7   4342366.58821        20.000           1.313
  22450239.607    -8897379.058 6  -6933013.83021        19.250           0.906
  21767004.826   -14126222.744 7 -11007427.65322        20.750           1.594
  23239678.959    -5138073.168 5  -3887670.87421         9.500           0.375
  23234374.412    -5407965.754 5  -4035031.49221         9.500           0.438
 91  6  6 17 50 29.9980000  0  5G18G11G 2G16G 6
  21627848.936     5605558.578 7   4367953.42421        20.000           1.469
  22447083.670    -8913980.098 6  -6945949.68521        19.250           0.813
  21758281.451   -14172069.844 7 -11043152.62122        20.750           1.688
  23237189.201    -5151148.428 5  -3897859.41721         9.250           0.375
  23225827.545    -5452882.976 5  -4070031.90821         9.500           0.344
 91  6  6 17 50 44.9980000  0  5G18G11G 2G16G 6
  21634112.623     5638470.467 7   4393598.96421        20.000           1.344
  22443951.295    -8930435.298 6  -6958771.89221        19.250           0.906
  21749568.092   -14217851.744 7 -11078826.78122        20.750           1.688
  23234728.084    -5164094.395 5  -3907947.18821         9.250           0.250
  23217283.818    -5497793.067 5  -4105026.75721         9.500           0.344
 91  6  6 17 50 59.9980000  0  5G18G11G 2G16G 6
  21640388.850     5671453.085 7   4419299.62221        20.000           1.219
  22440846.303    -8946749.033 6  -6971483.87421        19.250           1.000
  21740868.318   -14263572.806 7 -11114453.54022        21.000           1.594
  23232286.287    -5176915.547 5  -3917937.72321         9.500           0.281
  23208735.045    -5542700.397 5  -4140019.46021         9.750           0.406
 91  6  6 17 51 14.9980000  0  5G18G11G 2G16G 6
  21646679.459     5704509.318 7   4445057.63921        20.000           1.313
  22437768.248    -8962917.683 6  -6984082.79521        18.750           1.031
  21732180.162   -14309229.432 7 -11150030.09122        21.000           1.719
  23229869.600    -5189608.400 5  -3927828.28321        10.000           0.219
  23200192.022    -5587601.501 5  -4175007.31121         9.750           0.500
 91  6  6 17 51 29.9980000  0  5G18G11G 2G16G 6
  21652984.701     5737645.417 7   4470877.89321        20.000           1.250
  22434720.850    -8978934.682 6  -6996563.55921        19.000           0.938
  21723505.850   -14354815.072 7 -11185551.32722        21.250           1.656
  23227483.209    -5202166.623 5  -3937613.95121         9.750           0.281
  23191649.193    -5632490.004 5  -4209985.32921        10.000           0.406
 91  6  6 17 51 44.9980000  0  5G18G11G 2G16G 6
  21659304.686     5770858.465 6   4496758.11021        19.750           1.281
  22431701.967    -8994802.924 6  -7008928.39621        19.000           0.906
  21714843.943   -14400332.749 7 -11221019.60822        21.250           1.688
  23225118.279    -5214593.288 5  -3947297.07321        10.000           0.344
  23183110.592    -5677368.876 5  -4244955.85021        10.000           0.406
 91  6  6 17 51 59.9980000  0  5G18G11G 2G16G 6
  21665640.670     5804150.628 7   4522699.96821        20.000           1.250
  22428710.818    -9010519.885 6  -7021175.36021        19.000           0.906
  21706195.600   -14445779.876 7 -11256432.91822        21.000           1.781
  23222780.076    -5226885.791 5  -3956875.69121        10.250           0.375
  23174570.373    -5722235.776 5  -4279917.05721        10.000           0.406
 91  6  6 17 52 14.9980000  0  5G18G11G 2G16G 6
  21671990.092     5837518.259 6   4548700.63921        19.500           1.219
  22425747.686    -9026088.661 6  -7033306.85121        19.250           0.875
  21697560.272   -14491159.529 7 -11291793.65522        21.500           1.719
  23220462.631    -5239047.488 5  -3966352.34721         9.750           0.219
  23166035.365    -5767093.810 5  -4314871.33321        10.000           0.469
 91  6  6 17 52 29.9980000  0  5G18G11G 2G16G 6
  21678355.248     5870966.035 6   4574763.75021        19.250           1.125
  22422816.373    -9041504.368 6  -7045319.07221        19.000           0.938
  21688937.639   -14536466.942 7 -11327098.09822        21.500           1.656
  23218175.639    -5251073.798 5  -3975723.52021        10.000           0.219
  23157503.615    -5811938.186 5  -4349814.97021        10.000           0.344
 91  6  6 17 52 44.9980000  0  5G18G11G 2G16G 6
  21684734.639     5904486.708 6   4600883.68021        19.250           1.219
  22419908.201    -9056773.984 6  -7057217.45621        19.000           1.031
  21680329.693   -14581709.100 7 -11362351.69222        21.750           1.781
  23215911.068    -5262971.831 5  -3984994.75121         9.750           0.281
  23148969.053    -5856775.975 5  -4384753.50321         9.750           0.406
 91  6  6 17 52 59.9980000  0  5G18G11G 2G16G 6
  21691127.779     5938085.177 6   4627064.21821        19.250           1.219
  22417032.928    -9071892.205 6  -7068997.86921        19.000           0.969
  21671732.576   -14626880.608 7 -11397550.24022        21.500           1.781
  23213673.779    -5274736.287 5  -3994161.87521        10.000           0.313
  23140439.100    -5901601.969 5  -4419682.82321        10.000           0.344
 91  6  6 17 53 14.9980000  0  5G18G11G 2G16G 6
  21697536.365     5971759.855 6   4653304.13921        19.500           1.125
  22414183.959    -9086860.447 6  -7080661.41821        19.000           0.938
  21663150.717   -14671982.950 7 -11432694.88922        21.500           1.719
  23211459.857    -5286368.714 5  -4003226.13521        10.250           0.344
  23131910.139    -5946417.736 5  -4454604.18521         9.500           0.406
 91  6  6 17 53 29.9980000  0  5G18G11G 2G16G 6
  21703958.232     6005510.406 6   4679603.19221        19.000           1.156
  22411363.967    -9101678.952 6  -7092208.28821        19.250           1.000
  21654580.287   -14717016.381 7 -11467785.84422        21.750           1.781
  23209268.904    -5297869.432 5  -4012187.75421         9.750           0.406
  23123384.553    -5991223.496 5  -4489517.72721         9.500           0.281
 91  6  6 17 53 44.9980000  0  5G18G11G 2G16G 6
  21710394.951     6039334.754 6   4705959.74121        19.250           1.031
  22408573.076    -9116349.276 6  -7103639.69221        19.250           1.000
  21646023.748   -14761982.480 7 -11502824.33522        22.000           1.750
  23207105.904    -5309240.277 5  -4021048.18421        10.000           0.281
  23114860.795    -6036020.915 5  -4524424.78021         9.750           0.438
 91  6  6 17 53 59.9980000  0  5G18G11G 2G16G 6
  21716845.748     6073234.453 6   4732375.00221        19.250           1.125
  22405810.154    -9130869.434 6  -7114954.08521        19.000           0.938
  21637479.584   -14806879.345 7                        22.000
  23204967.420    -5320479.473 5  -4029806.02521        10.250           0.313
  23106339.498    -6080808.155 5                         9.750
 91  6  6 17 54 14.9980000  0  5G18G11G 2G16G 6
  21723310.381     6107206.492 6   4758846.63821        19.000           1.094
  22403075.053    -9145242.060 6  -7126153.51421        19.000           0.938
  21628949.654   -14851709.573 7                        22.000
  23202854.170    -5331589.845 5  -4038463.47521        10.000           0.406
  23097816.498    -6125587.878 5                        10.000
 91  6  6 17 54 29.9980000  0  5G18G11G 2G16G 6
  21729790.186     6141254.391 6   4785377.38821        19.000           1.156
  22400368.592    -9159463.158 6  -7137234.87221        19.000           1.000
  21620431.740   -14896469.202 7                        22.000
  23200766.412    -5342567.629 5  -4047017.62821        10.250           0.313
  23089298.623    -6170356.324 5                        10.000
 91  6  6 17 54 44.9980000  0  5G18G11G 2G16G 6
  21736282.897     6175375.850 6   4811965.45121        19.000           1.250
  22397688.053    -9173534.872 6  -7148199.82121        19.000           0.906
  21611927.350   -14941160.314 7 -11642443.32222        22.000           1.844
  23198701.857    -5353415.108 5  -4055470.21721        10.250           0.281
  23080780.990    -6215115.657 5  -4663979.01621        10.250           0.281
 91  6  6 17 54 59.9980000  0  5G18G11G 2G16G 6
  21742789.998     6209568.220 6   4838608.76221        19.000           1.125
  22395039.842    -9187459.755 6  -7159050.35621        19.250           0.938
  21603434.881   -14985785.510 7 -11677216.17722        21.750           1.875
  23196661.139    -5364134.880 5  -4063823.31121        10.250           0.219
  23072263.225    -6259868.403 5  -4698851.28121        10.250           0.281
 91  6  6 17 55 14.9980000  0  5G18G11G 2G16G 6
  21749308.795     6243833.632 6   4865308.99521        18.750           1.125
  22392418.693    -9201235.303 6  -7169784.53221        19.250           0.938
  21594956.201   -15030342.162 7 -11711935.62422        22.000           1.719
  23194647.068    -5374724.424 5  -4072074.95621        10.250           0.344
  23063748.404    -6304612.194 5  -4733716.53021        10.250           0.344
 91  6  6 17 55 29.9980000  0  5G18G11G 2G16G 6
  21755846.092     6278177.801 6   4892070.59421        19.000           1.156
  22389826.873    -9214855.371 6  -7180397.55221        19.000           0.969
  21586492.139   -15074824.217 7 -11746596.94422        22.500           1.750
  23192656.350    -5385177.932 5  -4080220.56321        10.000           0.344
  23055236.279    -6349340.983 5  -4768570.12521        10.250           0.375
 91  6  6 17 55 44.9980000  0  5G18G11G 2G16G 6
  21762396.100     6312597.542 6   4918891.07721        18.750           1.188
  22387265.756    -9228322.812 6  -7190891.64721        19.000           1.000
  21578041.170   -15119234.544 7 -11781202.36922        22.750           1.813
  23190693.006    -5395498.464 5  -4088262.56521        10.000           0.438
  23046726.998    -6394057.668 5  -4803414.25721        10.500           0.500
 91  6  6 17 55 59.9980000  0  5G18G11G 2G16G 6
  21768959.592     6347086.967 6   4945765.86121        18.750           1.156
  22384729.951    -9241643.375 6  -7201271.28821        19.250           1.031
  21569603.178   -15163578.839 7 -11815756.34822        22.250           1.656
  23188751.537    -5405691.746 5  -4096205.40721         9.750           0.344
  23038220.084    -6438768.051 5  -4838253.49421        10.500           0.469
 91  6  6 17 56 14.9980000  0  5G18G11G 2G16G 6
  21775536.568     6381650.448 6   4972698.34721        18.250           1.063
  22382223.357    -9254812.321 6  -7211532.78821        19.250           1.000
  21561177.178   -15207852.315 7 -11850255.13822        22.500           1.719
  23186838.084    -5415753.052 5  -4104045.40621         9.750           0.313
  23029714.873    -6483467.519 5  -4873084.23621        10.500           0.313
 91  6  6 17 56 29.9980000  0  5G18G11G 2G16G 6
  21782127.100     6416286.659 6   4999687.50521        18.250           1.063
  22379747.092    -9267830.581 6  -7221676.87221        19.500           1.094
  21552766.264   -15252055.869 7 -11884699.45422        22.250           1.781
  23184948.295    -5425683.751 5  -4111783.64621        10.000           0.344
  23021207.607    -6528157.045 5  -4907907.22121        10.500           0.375
 91  6  6 17 56 44.9980000  0  5G18G11G 2G16G 6
  21788732.201     6451000.071 6   5026736.82521        18.250           0.969
  22377298.068    -9280693.380 6  -7231699.81821        19.750           1.031
  21544368.686   -15296184.824 7 -11919085.63322        22.500           1.844
  23183083.662    -5435479.300 5  -4119416.56221         9.750           0.406
  23012707.943    -6572831.870 5  -4942718.72821        10.250           0.406
 91  6  6 17 56 59.9980000  0  5G18G11G 2G16G 6
  21795354.998     6485790.651 6   5053846.27221        18.250           1.094
  22374880.045    -9293400.608 6  -7241601.53321        19.500           1.094
  21535984.600   -15340239.063 7 -11953413.59222        22.250           1.813
  23181246.115    -5445139.571 5  -4126944.07921         9.750           0.313
  23004210.162    -6617492.042 5  -4977518.85121        10.250           0.344
 91  6  6 17 57 14.9980000  0  5G18G11G 2G16G 6
  21801987.482     6520654.010 6   5081012.42621        18.250           1.031
  22372490.772    -9305956.360 6  -7251385.22721        19.500           1.094
  21527616.287   -15384222.765 7 -11987686.59122        22.500           1.844
  23179432.561    -5454668.814 5  -4134369.49321         9.750           0.313
  22995712.295    -6662141.668 5  -5012310.73721        10.750           0.406
 91  6  6 17 57 29.9980000  0  5G18G11G 2G16G 6
  21808636.740     6555591.313 6   5108236.20021        18.000           1.031
  22370131.787    -9318359.216 6  -7261049.77121        19.750           1.063
  21519259.404   -15428134.469 7 -12021903.47822        22.250           1.844
  23177643.607    -5464065.924 5  -4141691.94621         9.500           0.250
  22987219.561    -6706779.410 5  -5047093.36521        10.500           0.406
 91  6  6 17 57 44.9980000  0  5G18G11G 2G16G 6
  21815299.787     6590604.994 6   5135519.48821        18.250           1.063
  22367800.053    -9330606.231 6  -7270592.88221        19.500           1.000
  21510917.600   -15471971.171 7 -12056061.92722        22.500           1.656
  23175883.709    -5473328.105 5  -4148909.24821         9.500           0.375
  22978726.209    -6751402.364 5  -5081864.47021        10.500           0.406
 91  6  6 17 57 59.9980000  0  5G18G11G 2G16G 6
  21821975.748     6625689.781 6   5162858.19521        18.500           1.000
  22365500.053    -9342702.359 6  -7280018.42121        19.750           1.063
  21502588.904   -15515737.794 7 -12090165.77822        22.500           1.750
  23174143.904    -5482460.297 5  -4156025.27221         9.500           0.406
  22970239.045    -6796015.528 5  -5116627.95421        10.750           0.438
 91  6  6 17 58 14.9980000  0  5G18G11G 2G16G 6
  21828666.045     6660844.473 6   5190251.36121        18.500           0.938
  22363224.443    -9354648.468 6  -7289327.05921        19.500           1.031
  21494273.686   -15559435.041 7 -12124215.55822        22.250           1.844
  23172431.717    -5491463.378 5  -4163040.71921         9.250           0.313
  22961750.061    -6840619.771 5  -5151384.48321        11.500           0.469
 91  6  6 17 58 29.9980000  0  5G18G11G 2G16G 6
  21835370.186     6696075.061 6   5217703.67421        18.750           1.063
  22360983.037    -9366438.311 6  -7298513.94021        19.500           1.031
  21485973.232   -15603056.781 7 -12158206.50622        22.250           1.813
  23170745.631    -5500331.381 5  -4169950.87621         9.250           0.313
  22953263.826    -6885208.938 5  -5186129.27721        11.750           0.469
 91  6  6 17 58 44.9980000  0  5G18G11G 2G16G 6
  21842087.154     6731374.843 6   5245209.90721        18.500           1.000
  22358766.803    -9378078.518 6  -7307584.21721        19.500           1.063
  21477684.967   -15646609.538 7 -12192143.69522        22.500           1.750
  23169080.022    -5509070.948 5  -4176760.95221         9.250           0.281
  22944782.803    -6929789.659 5  -5220867.46521        11.250           0.344
 91  6  6 17 58 59.9980000  0  5G18G11G 2G16G 6
  21848818.451     6766748.464 6   5272773.67321        19.000           0.938
  22356581.545    -9389564.289 6  -7316534.15421        19.500           1.031
  21469411.373   -15690088.667 7 -12226023.51122        22.250           1.813
  23167442.412    -5517677.479 5  -4183467.37021         9.250           0.313
  22936299.943    -6974357.194 5  -5255595.41421        11.500           0.344
 91  6  6 17 59 14.9980000  0  5G18G11G 2G16G 6
  21855564.998     6802197.932 6   5300396.54521        18.500           0.938
  22354424.842    -9400892.942 6  -7325361.66121        19.250           1.031
  21461152.209   -15733491.427 7 -12259843.82122        22.250           1.688
  23165829.404    -5526148.633 5  -4190068.29321         9.250           0.344
  22927820.475    -7018908.934 6  -5290311.02621        12.000           0.406
 91  6  6 17 59 29.9980000  0  5G18G11G 2G16G 6
  21862326.561     6837728.935 6   5328082.94221        18.250           0.938
  22352300.256    -9412058.575 6  -7334062.14921        19.250           1.031
  21452907.951   -15776811.966 7 -12293600.05222        22.250           1.844
  23164245.076    -5534478.754 5  -4196559.31121         9.500           0.281
  22919348.654    -7063439.121 5  -5325009.84921        11.750           0.500
 91  6  6 17 59 44.9980000  0  5G18G11G 2G16G 6
  21869101.115     6873328.158 6   5355822.49321        18.250           0.938
  22350204.147    -9423074.432 6  -7342645.91621        19.250           1.063
  21444677.443   -15820063.369 7 -12327302.41322        22.500           1.906
  23162685.467    -5542681.196 5  -4202950.85921         9.250           0.375
  22910876.576    -7107960.949 5  -5359702.16421        11.750           0.469
 91  6  6 17 59 59.9980000  0  5G18G11G 2G16G 6
  21875889.475     6909001.740 6   5383619.99821        18.750           0.938
  22348136.881    -9433933.967 6  -7351107.88921        19.000           1.031
  21436461.342   -15863239.051 7 -12360945.77422        22.250           1.781
  23161152.482    -5550749.130 5  -4209237.58321         9.500           0.313
  22902408.420    -7152467.915 5  -5394382.89321        11.500           0.438
 91  6  6 18  0 14.9980000  0  5G18G11G 2G16G 6
  21882688.818     6944737.137 6   5411465.66521        18.500           0.844
  22346099.834    -9444649.299 6  -7359457.48621        19.250           1.031
  21428257.436   -15906351.115 7 -12394539.55422        22.250           1.844
  23159638.600    -5558695.214 5  -4215429.36121         9.000           0.344
  22893939.006    -7196972.168 5  -5429061.50321        11.500           0.500
 91  6  6 18  0 29.9980000  0  5G18G11G 2G16G 6
  21889503.748     6980544.872 6   5439367.69521        18.250           0.781
  22344089.498    -9455209.540 6  -7367686.23721        19.250           0.969
  21420067.397   -15949388.792 7 -12428075.37222        22.750           1.844
  23158151.084    -5566508.662 5  -4221517.79121         8.500           0.313
  22885471.475    -7241462.880 5  -5463729.57421        11.500           0.500
 91  6  6 18  0 44.9980000  0  5G18G11G 2G16G 6
  21896331.756     7016427.988 6   5467328.47121        18.250           0.844
  22342110.568    -9465611.559 6  -7375791.70421        19.000           1.000
  21411893.092   -15992348.920 7 -12461550.76722        22.500           1.813
  23156688.412    -5574186.376 5  -4227500.47421         8.750           0.313
  22877008.600    -7285936.977 5  -5498384.68621        11.000           0.500
 91  6  6 18  0 59.9980000  0  5G18G11G 2G16G 6
  21903172.990     7052379.356 6   5495342.42221        18.500           0.844
  22340158.826    -9475861.878 6  -7383778.94921        19.000           1.000
  21403731.170   -16035237.996 7 -12494970.79222        23.000           1.844
  23155254.123    -5581735.006 5  -4233382.54121         9.000           0.219
  22868548.201    -7330401.023 5  -5533031.97821        11.250           0.469
 91  6  6 18  1 14.9980000  0  5G18G11G 2G16G 6
  21910028.607     7088402.937 6   5523412.65621        18.250           0.875
  22338238.576    -9485956.650 6  -7391645.00421        19.000           1.031
  21395584.311   -16078052.096 7 -12528332.39522        23.000           1.844
  23153842.943    -5589151.011 5  -4239161.28721         9.000           0.313
  22860089.436    -7374851.174 5  -5567668.42821        11.000           0.469
 91  6  6 18  1 29.9980000  0  5G18G11G 2G16G 6
  21916897.647     7124498.741 6   5551539.15821        18.500           0.844
  22336347.068    -9495895.580 6  -7399389.62021        19.000           1.094
  21387450.772   -16120790.858 7 -12561635.28722        23.000           1.938
  23152453.842    -5596434.142 5  -4244836.46721         9.000           0.406
  22851634.256    -7419287.088 5  -5602293.79621        11.500           0.563
 91  6  6 18  1 44.9980000  0  5G18G11G 2G16G 6
  21923779.154     7160660.652 6   5579717.17521        18.250           0.844
  22334485.193    -9505684.400 6  -7407017.27121        19.000           1.125
  21379331.326   -16163459.976 7 -12594883.91122        23.250           1.875
  23151092.865    -5603590.104 5  -4250412.57921         8.750           0.344
  22843180.678    -7463714.569 5  -5636912.59621        11.500           0.469
 91  6  6 18  1 59.9980000  0  5G18G11G 2G16G 6
  21930674.193     7196894.245 6   5607951.03721        18.000           0.844
  22332651.193    -9515317.076 6  -7414523.24421        19.000           1.031
  21371225.693   -16206053.439 7 -12628073.58522        23.250           1.875
  23149759.100    -5610613.095 5  -4255885.07421         9.000           0.313
  22834726.740    -7508127.648 5  -5671520.17321        11.250           0.563
 91  6  6 18  2 14.9980000  0  5G18G11G 2G16G 6
  21937581.826     7233192.577 6   5636235.35921        17.500           0.781
  22330847.014    -9524800.424 6  -7421912.86521        18.750           1.031
  21363134.326   -16248577.959 7 -12661209.53422        23.500           2.000
  23148445.537    -5617510.300 5  -4261259.55221         9.000           0.438
  22826275.654    -7552533.134 5  -5706121.82521        11.500           0.563
 91  6  6 18  2 29.9980000  0  5G18G11G 2G16G 6
  21944501.842     7269560.379 6   5664573.80621        17.500           0.813
  22329071.873    -9534129.513 6  -7429182.28621        18.750           1.031
  21355055.693   -16291028.583 7 -12694287.90722        24.000           1.938
  23147156.803    -5624276.670 5  -4266532.08121         8.750           0.281
  22817829.928    -7596926.105 5  -5740713.72921        11.250           0.469
 91  6  6 18  2 44.9980000  0  5G18G11G 2G16G 6
  21951434.670     7305990.900 6   5692961.11221        17.750           0.906
  22327325.217    -9543310.753 6  -7436336.49621        18.750           1.156
  21346989.693   -16333411.784 7 -12727313.74322        23.750           1.938
  23145895.803    -5630918.934 5  -4271707.91321         9.000           0.281
  22809383.936    -7641313.006 5  -5775300.92121        11.000           0.500
 91  6  6 18  2 59.9980000  0  5G18G11G 2G16G 6
  21958380.850     7342494.778 6   5721405.59621        17.500           0.906
  22325609.170    -9552333.278 6  -7443367.03121        19.000           1.094
  21338940.342   -16375716.585 7 -12760278.48422        24.000           1.875
  23144655.373    -5637426.325 5  -4276778.64721         9.500           0.250
  22800937.709    -7685683.073 5  -5809874.98521        10.750           0.500
 91  6  6 18  3 14.9980000  0  5G18G11G 2G16G 6
  21965340.326     7379064.899 6   5749901.69121        17.500           0.813
  22323919.482    -9561203.886 6  -7450279.18621        18.750           1.063
  21330902.756   -16417949.810 7 -12793187.46122        23.750           1.938
  23143442.412    -5643805.887 5  -4281749.74421         9.500           0.188
  22792497.443    -7730042.916 5  -5844441.07421        11.250           0.531
 91  6  6 18  3 29.9980000  0  5G18G11G 2G16G 6
  21972312.834     7415702.729 6   5778450.55021        17.500           0.719
  22322260.029    -9569920.939 6  -7457071.69921        19.000           1.094
  21322879.240   -16460109.786 7 -12826039.35122        23.500           1.969
  23142253.147    -5650055.876 5  -4286619.91221         9.500           0.250
  22784057.975    -7774391.056 5  -5878998.05721        11.250           0.594
 91  6  6 18  3 44.9980000  0  5G18G11G 2G16G 6
  21979297.115     7452407.555 6   5807051.61621        17.500           0.813
  22320631.420    -9578484.858 6  -7463744.87421        19.000           1.063
  21314871.498   -16502196.671 7 -12858834.28922        23.500           1.906
  23141088.662    -5656176.887 5  -4291389.55321         9.500           0.281
  22775621.014    -7818727.785 5  -5913546.14121        11.000           0.531
 91  6  6 18  3 59.9980000  0  5G18G11G 2G16G 6
  21986293.514     7489178.692 6   5835704.34821        17.500           0.844
  22319029.045    -9586895.922 6  -7470298.94821        19.000           1.063
  21306876.131   -16544210.830 7 -12891572.55922        23.500           2.000
  23139947.498    -5662169.466 5  -4296059.12221         9.250           0.250
  22767187.990    -7863053.388 5  -5948085.55721        11.000           0.563
 91  6  6 18  4 14.9980000  0  5G18G11G 2G16G 6
  21993303.529     7526012.347 6   5864405.79621        17.250           0.750
  22317457.365    -9595157.892 6  -7476736.84721        19.000           1.156
  21298894.748   -16586155.988 7 -12924257.05922        23.250           2.000
  23138830.568    -5668037.537 5  -4300631.67021         9.250           0.313
  22758753.029    -7907371.705 5  -5982619.29721        11.000           0.563
 91  6  6 18  4 29.9980000  0  5G18G11G 2G16G 6
  22000326.342     7562913.960 6   5893160.18721        17.000           0.688
  22315913.459    -9603265.058 6  -7483054.12021        19.000           1.094
  21290926.334   -16628026.436 7 -12956883.35222        23.500           1.969
  23137741.123    -5673775.532 5  -4305102.88521         9.250           0.313
  22750320.811    -7951676.985 5  -6017142.88121        11.000           0.531
 91  6  6 18  4 44.9980000  0  5G18G11G 2G16G 6
  22007361.053     7599880.872 6   5921965.47421        17.250           0.719
  22314401.209    -9611219.681 6  -7489252.52721        18.750           1.188
  21282972.850   -16669824.496 7 -12989453.23422        23.500           1.938
  23136671.404    -5679385.832 5  -4309474.57921         9.000           0.219
  22741894.600    -7995971.616 5  -6051658.16821        11.250           0.563
 91  6  6 18  4 59.9980000  0  5G18G11G 2G16G 6
  22014407.537     7636914.085 6   5950822.41421        16.750           0.844
  22312916.873    -9619020.438 6  -7495331.03521        18.750           1.188
  21275033.850   -16711548.699 7 -13021965.56422        23.750           1.969
  23135629.123    -5684866.971 5  -4313745.63221         8.750           0.250
  22733465.147    -8040254.185 5  -6086164.05221        11.250           0.625
 91  6  6 18  5 14.9980000  0  5G18G11G 2G16G 6
  22021468.326     7674021.436 6   5979737.12821        17.000           0.781
  22311462.662    -9626659.194 6  -7501283.31621        18.750           1.125
  21267108.428   -16753190.978 7 -13054414.06422        23.500           1.906
  23134611.225    -5690210.939 5  -4317909.78621         8.750           0.188
  22725044.701    -8084516.586 5  -6120654.22821        11.000           0.500
 91  6  6 18  5 29.9980000  0  5G18G11G 2G16G 6
  22028542.506     7711189.940 6   6008699.49921        17.250           0.844
  22310039.053    -9634148.844 6  -7507119.40421        19.000           1.219
  21259197.115   -16794763.909 7 -13086808.52222        23.750           1.906
  23133618.318    -5695431.200 5  -4321977.56121         8.500           0.281
  22716624.326    -8128771.673 5  -6155138.69921        11.250           0.563
 91  6  6 18  5 44.9980000  0  5G18G11G 2G16G 6
  22035625.975     7748415.581 6   6037706.38621        17.000           0.781
  22308641.670    -9641492.854 6  -7512842.00621        18.750           1.063
  21251299.264   -16836271.017 7 -13119151.69122        23.500           1.938
  23132647.178    -5700531.172 5  -4325951.58421         8.500           0.250
  22708201.389    -8173022.917 5  -6189620.17921        11.500           0.531
 91  6  6 18  5 59.9980000  0  5G18G11G 2G16G 6
  22042722.178     7785706.448 6   6066764.10421        16.750           0.719
  22307271.522    -9648683.109 6  -7518444.79921        18.750           1.219
  21243414.357   -16877704.216 7 -13151437.26622        23.250           1.969
  23131703.584    -5705503.200 5  -4329825.93121         8.500           0.250
  22699781.936    -8217262.098 5  -6224092.25321        11.750           0.563
 91  6  6 18  6 14.9980000  0  5G18G11G 2G16G 6
  22049831.482     7823062.968 6   6095872.97521        16.500           0.719
  22305932.170    -9655719.034 6  -7523927.33921        19.000           1.219
  21235544.240   -16919063.000 7 -13183664.85622        23.250           1.938
  23130779.701    -5710346.409 5  -4333599.91421         8.250           0.250
  22691365.514    -8261488.639 5  -6258554.47721        11.750           0.563
 91  6  6 18  6 29.9980000  0  5G18G11G 2G16G 6
  22056952.404     7860482.213 6   6125030.72921        16.750           0.688
  22304624.256    -9662603.223 6  -7529291.63521        19.000           1.156
  21227688.076   -16960349.712 7 -13215836.28922        23.250           1.906
  23129882.303    -5715063.536 5  -4337275.62821         8.500           0.281
  22682952.576    -8305705.137 5  -6293008.87721        11.750           0.500
 91  6  6 18  6 44.9980000  0  5G18G11G 2G16G 6
  22064082.818     7897960.863 6   6154234.76121        16.500           0.688
  22303340.475    -9669338.920 6  -7534540.23221        19.000           1.281
  21219843.998   -17001567.488 7 -13247954.00822        23.250           1.875
  23129008.272    -5719658.314 5  -4340856.01421         9.000           0.344
  22674539.373    -8349914.761 5  -6327457.92721        11.750           0.531
 91  6  6 18  6 59.9980000  0  5G18G11G 2G16G 6
  22071227.514     7935500.576 6   6183486.37621        16.500           0.719
  22302088.412    -9675923.898 6  -7539671.38221        19.000           1.188
  21212013.951   -17042714.067 7 -13280016.25322        23.250           1.906
  23128156.014    -5724128.613 5  -4344339.42121         8.750           0.375
  22666128.170    -8394115.404 5  -6361899.95921        11.250           0.688
 91  6  6 18  7 14.9980000  0  5G18G11G 2G16G 6
  22078384.100     7973105.355 6   6212788.70021        16.500           0.875
  22300865.584    -9682354.031 6  -7544681.87321        19.000           1.188
  21204198.014   -17083785.205 7 -13312019.71022        23.500           1.906
  23127332.256    -5728470.034 5  -4347722.36921         9.000           0.250
  22657719.459    -8438302.899 5  -6396331.75621        11.500           0.594
 91  6  6 18  7 29.9980000  0  5G18G11G 2G16G 6
  22085552.607     8010774.778 6   6242141.38521        16.250           0.813
  22299669.107    -9688629.642 6  -7549571.95821        19.000           1.188
  21196397.490   -17124781.242 7 -13343964.64622        23.500           2.000
  23126529.272    -5732683.539 5  -4351005.66121         9.250           0.344
  22649313.717    -8482477.544 5  -6430753.52521        11.500           0.563
 91  6  6 18  7 44.9980000  0  5G18G11G 2G16G 6
  22092730.982     8048502.655 6   6271539.62221        16.000           0.781
  22298504.209    -9694756.745 6  -7554346.32521        19.250           1.250
  21188609.428   -17165708.276 7 -13375855.81722        23.750           1.844
  23125750.529    -5736774.822 5  -4354193.71021         9.250           0.344
  22640907.295    -8526645.205 5  -6465169.87321        11.500           0.531
 91  6  6 18  7 59.9980000  0  5G18G11G 2G16G 6
  22099922.990     8086297.509 6   6300990.04721        16.250           0.750
  22297367.232    -9700726.086 6  -7558997.75821        19.000           1.188
  21180835.811   -17206557.035 7 -13407685.99822        23.750           1.875
  23124998.029    -5740734.908 5  -4357279.52621         9.250           0.375
  22632505.936    -8570796.821 5  -6499573.70421        11.500           0.594
 91  6  6 18  8 14.9980000  0  5G18G11G 2G16G 6
  22107127.553     8124153.488 6   6330488.10421        16.000           0.750
  22296261.889    -9706543.449 6  -7563530.76721        19.000           1.188
  21173075.467   -17247333.144 7 -13439459.56622        24.000           1.906
  23124269.240    -5744569.866 5  -4360267.84821         9.250           0.313
  22624107.842    -8614937.994 5  -6533969.40921        11.500           0.594
 91  6  6 18  8 29.9980000  0  5G18G11G 2G16G 6
  22114342.123     8162065.590 6   6360029.89621        16.000           0.656
  22295182.811    -9712213.721 6  -7567949.16021        19.000           1.250
  21165329.662   -17288041.285 7 -13471180.17622        24.500           1.875
  23123559.912    -5748284.598 5  -4363162.49421         9.250           0.281
  22615710.092    -8659073.591 5  -6568360.74521        11.750           0.625
 91  6  6 18  8 44.9980000  0  5G18G11G 2G16G 6
  22121568.889     8200041.881 6   6389621.70221        15.500           0.750
  22294132.873    -9717728.734 6  -7572246.57821        18.750           1.219
  21157598.443   -17328673.171 7 -13502841.36822        24.250           1.938
  23122878.107    -5751871.379 5  -4365957.42121         9.250           0.281
  22607311.975    -8703195.341 5  -6602741.31421        11.750           0.656
 91  6  6 18  8 59.9980000  0  5G18G11G 2G16G 6
  22128806.186     8238074.876 6   6419257.70021        15.500           0.719
  22293111.561    -9723095.456 6  -7576428.43521        19.000           1.156
  21149878.975   -17369235.757 7 -13534448.55722        24.500           1.844
  23122218.326    -5755336.975 5  -4368657.91621         9.000           0.344
  22598916.764    -8747310.259 5  -6637116.55121        11.750           0.625
 91  6  6 18  9 14.9980000  0  5G18G11G 2G16G 6
  22136054.404     8276167.735 6   6448940.32721        15.750           0.844
  22292118.631    -9728310.508 6  -7580492.11421        19.000           1.219
  21142173.709   -17409725.769 7 -13565999.19622        24.000           1.844
  23121582.740    -5758677.864 5  -4371261.28121         9.250           0.250
  22590526.756    -8791414.917 6  -6671483.79121        12.000           0.531
 91  6  6 18  9 29.9980000  0  5G18G11G 2G16G 6
  22143316.287     8314323.709 6   6478672.15121        16.000           0.656
  22291156.459    -9733370.625 6  -7584435.06821        18.750           1.156
  21134483.639   -17450139.845 7 -13597490.66422        24.250           1.844
  23120969.740    -5761891.277 5  -4373765.26121         9.250           0.125
  22582134.412    -8835505.994 6  -6705840.46921        12.250           0.500
 91  6  6 18  9 44.9980000  0  5G18G11G 2G16G 6
  22150588.287     8352537.595 6   6508449.09821        15.750           0.844
  22290221.795    -9738280.632 6  -7588261.04621        18.750           1.250
  21126806.662   -17490482.757 7 -13628926.67722        24.250           1.781
  23120382.389    -5764981.851 5  -4376173.54421         9.250           0.281
  22573746.670    -8879588.299 6  -6740190.28321        12.250           0.563
 91  6  6 18  9 59.9980000  0  5G18G11G 2G16G 6
  22157873.076     8390817.068 6   6538277.15121        15.750           0.719
  22289319.662    -9743032.632 6  -7591963.90721        18.500           1.188
  21119145.303   -17530746.352 7 -13660300.89122        24.750           1.906
  23119818.795    -5767942.155 5  -4378480.32921         9.500           0.313
  22565361.131    -8923653.781 6  -6774527.00821        12.250           0.625
 91  6  6 18 10 14.9980000  0  5G18G11G 2G16G 6
  22165167.615     8429154.179 6   6568150.12421        15.500           0.656
  22288444.279    -9747634.457 6  -7595549.74821        18.000           1.188
  21111496.154   -17570938.329 7 -13691619.29622        24.750           1.875
  23119280.037    -5770780.065 5  -4380691.70721         9.500           0.219
  22556978.318    -8967710.272 6  -6808856.72321        12.750           0.594
 91  6  6 18 10 29.9980000  0  5G18G11G 2G16G 6
  22172474.670     8467550.609 6   6598069.31021        15.250           0.688
  22287596.865    -9752084.191 6  -7599017.07721        18.000           1.219
  21103861.904   -17611056.855 7 -13722880.46222        25.000           1.844
  23118763.482    -5773493.546 5  -4382806.15921         9.500           0.250
  22548595.123    -9011755.732 6  -6843177.84821        12.500           0.594
 91  6  6 18 10 44.9980000  0  5G18G11G 2G16G 6
  22179792.107     8506002.438 6   6628031.66621        14.750           0.688
  22286775.998    -9756385.340 6  -7602368.62521        18.000           1.313
  21096241.006   -17651105.508 7 -13754087.18722        25.000           1.906
  23118272.232    -5776086.511 5  -4384826.71821         9.750           0.281
  22540217.287    -9055793.774 6  -6877493.19121        12.750           0.594
 91  6  6 18 10 59.9980000  0  5G18G11G 2G16G 6
  22187120.436     8544515.939 6   6658042.07721        15.000           0.688
  22285987.639    -9760531.550 6  -7605599.43821        18.000           1.188
  21088634.639   -17691077.764 7 -13785234.38122        24.750           1.781
  23117803.811    -5778552.861 5  -4386748.59121        10.000           0.281
  22531836.529    -9099817.878 6  -6911797.66921        12.750           0.594
 91  6  6 18 11 14.9980000  0  5G18G11G 2G16G 6
  22194460.303     8583088.297 6   6688098.35321        15.000           0.625
  22285227.732    -9764525.450 6  -7608711.56921        18.000           1.094
  21081040.928   -17730975.971 7 -13816323.86822        24.750           1.875
  23117356.209    -5780895.246 5  -4388573.86421         9.750           0.281
  22523463.865    -9143830.640 6  -6946093.31321        12.500           0.625
 91  6  6 18 11 29.9980000  0  5G18G11G 2G16G 6
  22201812.459     8621720.318 6   6718201.11921        15.000           0.719
  22284498.397    -9768365.755 6  -7611704.01921        17.750           1.156
  21073463.443   -17770798.971 7 -13847354.75222        24.750           1.844
  23116933.272    -5783112.627 5  -4390301.73121        10.000           0.156
  22515091.740    -9187830.731 6  -6980379.07221        12.500           0.625
 91  6  6 18 11 44.9980000  0  5G18G11G 2G16G 6
  22209173.279     8660404.865 6   6748344.82021        14.750           0.625
  22283796.076    -9772059.585 6  -7614582.32421        17.750           1.125
  21065899.326   -17810553.983 7 -13878332.65822        25.000           1.844
  23116531.912    -5785211.950 5  -4391937.61221        10.000           0.281
  22506717.397    -9231825.326 6  -7014660.56221        12.500           0.531
 91  6  6 18 11 59.9980000  0  5G18G11G 2G16G 6
  22216546.279     8699146.587 6   6778533.06121        14.750           0.656
  22283122.647    -9775602.178 6  -7617342.78721        17.500           1.156
  21058348.272   -17850235.756 7 -13909253.49222        25.000           1.906
  23116158.092    -5787188.572 5  -4393477.89321        10.000           0.281
  22498346.779    -9275809.224 6  -7048933.70221        12.750           0.656
 91  6  6 18 12 14.9980000  0  5G18G11G 2G16G 6
  22223929.701     8737945.248 6   6808765.67421        15.250           0.594
  22282475.123    -9778993.270 6  -7619985.19621        17.000           1.094
  21050810.670   -17889844.131 7 -13940117.13622        25.000           1.844
  23115804.029    -5789042.740 5  -4394922.72521        10.000           0.250
  22489978.889    -9319782.527 6  -7083198.60221        12.500           0.688
 91  6  6 18 12 29.9980000  0  5G18G11G 2G16G 6
  22231322.928     8776800.305 6   6839042.24321        15.000           0.625
  22281858.693    -9782233.314 6  -7622509.91121        17.500           1.188
  21043286.936   -17929379.376 7 -13970923.79422        25.250           1.781
  23115476.022    -5790774.681 5  -4396272.34521        10.000           0.313
  22481615.428    -9363745.397 6  -7117455.36721        12.500           0.531
 91  6  6 18 12 44.9980000  0  5G18G11G 2G16G 6
  22238730.037     8815717.414 6   6869367.14921        15.000           0.625
  22281270.287    -9785316.407 6  -7624912.32621        17.750           1.125
  21035778.443   -17968835.597 7 -14001668.87322        25.000           1.875
  23115171.193    -5792378.614 5  -4397522.19821         9.750           0.375
  22473252.631    -9407691.890 6  -7151699.36221        12.500           0.625
 91  6  6 18 12 59.9980000  0  5G18G11G 2G16G 6
  22246147.834     8854701.153 6   6899743.97921        15.000           0.688
  22280715.326    -9788237.808 6  -7627188.73821        17.750           1.125
  21028285.826   -18008208.076 7 -14032348.69722        25.500           1.938
  23114891.201    -5793850.139 5  -4398668.90021         9.750           0.375
  22464893.686    -9451617.244 6  -7185926.89521        12.250           0.719
 91  6  6 18 13 14.9980000  0  5G18G11G 2G16G 6
  22253577.420     8893743.568 6   6930166.52321        14.750           0.750
  22280191.607    -9791005.305 6  -7629345.23821        17.750           1.188
  21020808.756   -18047504.422 7 -14062969.19822        25.500           1.938
  23114633.037    -5795197.197 5  -4399718.60421         9.500           0.313
  22456538.068    -9495529.077 6  -7220143.88221        12.500           0.563
 91  6  6 18 13 29.9980000  0  5G18G11G 2G16G 6
  22261017.350     8932839.881 6   6960631.06621        15.000           0.656
  22279691.850    -9793623.510 6  -7631385.39621        17.500           1.094
  21013343.209   -18086729.209 7 -14093533.93722        25.000           1.938
  23114400.748    -5796424.598 5  -4400675.07421         9.750           0.281
  22448184.303    -9539432.076 6  -7254353.98921        12.750           0.719
 91  6  6 18 13 44.9980000  0  5G18G11G 2G16G 6
  22268468.897     8972003.215 6   6991147.84321        15.250           0.594
  22279224.670    -9796078.989 6  -7633298.76421        17.500           1.219
  21005895.826   -18125868.592 7 -14124032.13122        25.500           1.969
  23114195.037    -5797518.557 5  -4401527.53921         9.500           0.344
  22439832.225    -9583312.432 6  -7288546.45421        13.000           0.594
 91  6  6 18 13 59.9980000  0  5G18G11G 2G16G 6
  22275931.834     9011219.284 6   7021705.70121        15.000           0.563
  22278785.076    -9798385.808 6  -7635096.28421        17.250           1.094
  20998461.795   -18164936.756 7 -14154474.82722        25.000           1.875
  23114008.006    -5798493.462 5  -4402287.27321         9.500           0.281
  22431483.186    -9627184.327 6  -7322732.33321        12.750           0.531
 91  6  6 18 14 14.9980000  0  5G18G11G 2G16G 6
  22283406.615     9050493.599 6   7052308.95121        15.250           0.625
  22278375.428    -9800538.206 6  -7636773.47921        17.500           1.188
  20991041.857   -18203927.981 7 -14184857.57322        25.250           1.969
  23113844.404    -5799343.992 5  -4402950.05621         9.750           0.344
  22423136.670    -9671042.015 6  -7356907.13821        13.000           0.719
 91  6  6 18 14 29.9980000  0  5G18G11G 2G16G 6
  22290890.670     9089821.190 6   7082953.71921        15.250           0.531
  22277995.365    -9802540.925 6  -7638334.04021        17.750           1.125
  20983636.186   -18242846.821 7 -14215183.91622        25.250           1.906
  23113708.545    -5800074.813 5  -4403519.57821         9.750           0.281
  22414792.787    -9714890.005 6  -7391074.38821        13.000           0.594
 91  6  6 18 14 44.9980000  0  5G18G11G 2G16G 6
  22298383.522     9129202.271 6   7113640.15921        15.000           0.719
  22277642.936    -9804393.571 6  -7639777.66021        17.750           1.094
  20976243.787   -18281692.793 7 -14245453.47922        25.250           1.969
  23113588.482    -5800685.651 5  -4403995.58921        10.250           0.281
  22406453.490    -9758727.926 6  -7425233.80321        13.000           0.625
 91  6  6 18 14 59.9980000  0  5G18G11G 2G16G 6
  22305889.084     9168639.901 6   7144370.66621        14.500           0.719
  22277317.264    -9806093.009 6  -7641101.90321        18.000           1.063
  20968865.912   -18320462.591 7 -14275663.68422        25.500           2.031
  23113499.928    -5801173.635 5  -4404375.88621        10.500           0.406
  22398112.990    -9802552.423 6  -7459382.74121        12.750           0.625
 91  6  6 18 15 14.9980000  0  5G18G11G 2G16G 6
  22313403.951     9208134.311 6   7175145.41221        14.250           0.750
  22277022.318    -9807638.982 6  -7642306.55621        17.750           1.156
  20961503.240   -18359155.871 7 -14305814.26822        25.500           2.063
  23113427.490    -5801538.502 5  -4404660.24421        10.000           0.281
  22389773.631    -9846363.122 6  -7493520.92821        13.250           0.500
 91  6  6 18 15 29.9980000  0  5G18G11G 2G16G 6
  22320929.303     9247678.040 6   7205958.57921        14.250           0.719
  22276757.717    -9809038.521 6  -7643397.10921        17.750           1.063
  20954153.053   -18397779.635 7 -14335910.67922        25.750           2.031
  23113382.428    -5801787.422 5  -4404854.25621        10.000           0.281
  22381440.209    -9890167.070 6  -7527653.85221        13.000           0.594
 91  6  6 18 15 44.9980000  0  5G18G11G 2G16G 6
  22328464.522     9287275.836 6   7236813.88321        14.250           0.750
  22276521.037    -9810286.626 6  -7644369.66521        17.500           1.031
  20946817.748   -18436328.797 7 -14365948.96022        25.750           2.000
  23113355.529    -5801915.360 5                        10.000
  22373105.889    -9933959.066 6  -7561777.47321        13.000           0.563
 91  6  6 18 15 59.9980000  0  5G18G11G 2G16G 6
  22336012.139     9326932.313 6   7267714.91921        14.250           0.750
  22276312.334    -9811378.485 6  -7645220.46521        17.750           1.125
  20939497.123   -18474798.360 7 -14395925.22122        25.500           2.031
  23113356.303    -5801917.599 5                         9.750
  22364776.100    -9977734.197 6  -7595887.93821        13.250           0.531
 91  6  6 18 16 14.9980000  0  5G18G11G 2G16G 6
  22343568.826     9366650.720 6   7298664.21021        14.000           0.500
  22276136.803    -9812310.777 6  -7645946.92921        18.000           1.063
  20932192.240   -18513184.804 7 -14425836.71022        25.500           2.094
  23113383.693    -5801790.866 5                        10.000
  22356451.272   -10021489.101 6  -7629982.65121        13.250           0.594
 91  6  6 18 16 29.9980000  0  5G18G11G 2G16G 6
  22351137.576     9406421.364 6   7329654.19621        13.750           0.625
  22275986.717    -9813092.787 6  -7646556.28421        17.750           1.000
  20924901.936   -18551497.676 7 -14455690.87522        26.000           2.156
  23113425.318    -5801545.102 5                         9.500
  22348125.959   -10065233.170 6  -7664068.91921        14.000           0.656
 91  6  6 18 16 44.9980000  0  5G18G11G 2G16G 6
  22358716.178     9446247.489 6   7360687.41621        13.750           0.656
  22275866.475    -9813721.073 6  -7647045.85721        17.750           1.063
  20917626.178   -18589733.200 7 -14485484.76622        26.000           2.125
  23113497.365    -5801176.823 5  -4404378.69321         9.500           0.281
  22339804.397   -10108962.706 6  -7698143.85621        13.500           0.563
 91  6  6 18 16 59.9980000  0  5G18G11G 2G16G 6
  22366305.037     9486123.295 6   7391759.34421        12.750           0.625
  22275772.912    -9814201.456 6  -7647420.17921        17.750           1.031
  20910363.084   -18627897.019 7 -14515222.78222        26.250           2.188
  23113586.904    -5800691.493 5  -4404000.54321         9.250           0.313
  22331486.381   -10152683.297 6  -7732211.82521        13.750           0.563
 91  6  6 18 17 14.9980000  0  5G18G11G 2G16G 6
  22373903.225     9526057.700 6   7422876.93121        12.250           0.531
  22275711.397    -9814524.877 6  -7647672.19521        17.500           0.969
  20903116.100   -18665980.079 7 -14544897.87022        26.000           2.156
  23113706.428    -5800080.538 5  -4403524.53421         9.500           0.313
  22323166.498   -10196385.859 6  -7766265.74921        13.500           0.531
 91  6  6 18 17 29.9980000  0  5G18G11G 2G16G 6
  22381512.287     9566042.856 6   7454034.07221        12.500           0.563
  22275678.459    -9814698.948 6                        17.250
  20895882.998   -18703989.849 7 -14574515.84822        26.250           2.219
  23113845.498    -5799351.695 5  -4402956.64621         9.500           0.250
  22314852.889   -10240077.841 6  -7800311.42721        13.500           0.625
 91  6  6 18 17 44.9980000  0  5G18G11G 2G16G 6
  22389129.850     9606072.531 6   7485225.88821        12.250           0.563
  22275672.084    -9814729.644 6                        17.250
  20888662.897   -18741932.162 7 -14604081.26422        26.250           2.219
  23114006.068    -5798510.987 5  -4402301.60821         9.500           0.375
  22306541.350   -10283765.126 6  -7834353.44921        13.750           0.625
 91  6  6 18 17 59.9980000  0  5G18G11G 2G16G 6
  22396757.037     9646153.295 6   7516457.52221        13.000           0.594
  22275696.693    -9814610.059 6                        17.250
  20881456.881   -18779800.112 7 -14633588.73222        26.000           2.281
  23114190.272    -5797551.631 5  -4401554.10421         9.500           0.313
  22298227.990   -10327440.765 6  -7868386.40621        14.000           0.625
 91  6  6 18 18 14.9980000  0  5G18G11G 2G16G 6
  22404395.147     9686283.643 6   7547727.80121        13.250           0.594
  22275747.287    -9814341.612 6                        17.000
  20874264.967   -18817594.817 7 -14663039.12522        26.000           2.219
  23114393.936    -5796475.153 5  -4400715.35121         9.750           0.281
  22289917.717   -10371105.921 6  -7902411.17821        13.500           0.594
 91  6  6 18 18 29.9980000  0  5G18G11G 2G16G 6
  22412041.115     9726470.460 6   7579042.07821        13.000           0.469
  22275831.279    -9813917.385 6                        17.500
  20867088.881   -18855309.432 7 -14692427.11522        26.250           2.188
  23114621.201    -5795274.865 5  -4399780.09721        10.000           0.219
  22281612.342   -10414753.690 6  -7936422.41021        13.500           0.594
 91  6  6 18 18 44.9980000  0  5G18G11G 2G16G 6
  22419698.842     9766707.696 6   7610395.63821        13.000           0.594
  22275937.772    -9813343.147 6  -7646751.36821        16.750           1.031
  20859925.490   -18892949.599 7 -14721757.08922        26.000           2.344
  23114871.975    -5793956.382 5  -4398752.75621         9.750           0.344
  22273310.482   -10458389.633 6  -7970424.41521        13.750           0.531
 91  6  6 18 18 59.9980000  0  5G18G11G 2G16G 6
  22427366.607     9807000.544 6   7641792.52821        13.250           0.625
  22276076.756    -9812613.408 6  -7646182.74321        17.000           0.906
  20852777.498   -18930509.590 7 -14751024.59022        25.750           2.313
  23115146.467    -5792514.540 5  -4397629.29021        10.000           0.313
  22265010.600   -10502008.199 6  -8004412.90021        13.750           0.563
 91  6  6 18 19 14.9980000  0  5G18G11G 2G16G 6
  22435044.326     9847345.450 6   7673229.98621        13.000           0.531
  22276245.420    -9811731.569 6  -7645495.59721        17.000           0.906
  20845644.975   -18967992.781 7 -14780232.25122        25.750           2.344
  23115441.006    -5790952.920 5  -4396412.50021         9.750           0.313
  22256712.607   -10545612.635 6  -8038390.36621        14.000           0.563
 91  6  6 18 19 29.9980000  0  5G18G11G 2G16G 6
  22442731.256     9887741.649 6   7704707.41221        13.250           0.563
  22276439.498    -9810698.477 6  -7644690.59621        17.000           0.938
  20838526.178   -19005399.826 7 -14809380.57822        25.750           2.219
  23115761.303    -5789272.560 5  -4395103.18021         9.750           0.281
  22248417.951   -10589203.591 6  -8072357.32221        14.000           0.500
 91  6  6 18 19 44.9980000  0  5G18G11G 2G16G 6
  22450427.709     9928188.807 6   7736224.55421        13.250           0.531
  22276665.662    -9809514.021 6  -7643767.65521        17.000           0.875
  20831422.514   -19042730.558 7 -14838469.43522        25.500           2.375
  23116106.725    -5787473.246 5  -4393701.14421         9.500           0.281
  22240123.576   -10632780.999 6  -8106313.73021        14.250           0.563
 91  6  6 18 19 59.9980000  0  5G18G11G 2G16G 6
  22458133.592     9968685.194 6   7767780.05021        12.750           0.563
  22276922.100    -9808179.834 6  -7642728.03021        17.500           0.969
  20824333.522   -19079986.368 7 -14867499.91222        25.500           2.344
  23116471.092    -5785556.537 5  -4392207.66021         9.750           0.281
  22231833.162   -10676346.187 6  -8140260.60721        14.500           0.563
 91  6  6 18 20 14.9980000  0  5G18G11G 2G16G 6
  22465849.170    10009231.181 6   7799374.19621        12.750           0.500
  22277204.201    -9806695.381 6  -7641571.31321        17.250           0.875
  20817258.061   -19117166.757 7 -14896471.61922        25.500           2.406
  23116858.209    -5783522.118 5  -4390622.43821         9.500           0.281
  22223545.193   -10719898.597 6  -8174197.53221        14.500           0.594
 91  6  6 18 20 29.9980000  0  5G18G11G 2G16G 6
  22473574.334    10049825.260 6   7831005.82321        12.750           0.563
  22277515.912    -9805061.951 6  -7640298.51821        17.250           1.000
  20810197.287   -19154272.950 7 -14925385.51023        25.500           2.500
  23117266.170    -5781371.737 5  -4388946.88921         9.250           0.250
  22215260.936   -10763439.395 6  -8208125.41321        14.500           0.531
 91  6  6 18 20 44.9980000  0  5G18G11G 2G16G 6
  22481309.623    10090470.191 6   7862677.05721        12.750           0.594
  22277855.873    -9803276.588 6  -7638907.33321        17.250           0.969
  20803150.389   -19191301.812 7 -14954239.15322        25.500           2.406
  23117698.451    -5779102.481 5  -4387178.67121         9.250           0.219
  22206978.553   -10806965.348 6  -8242041.72121        14.000           0.563
 91  6  6 18 20 59.9980000  0  5G18G11G 2G16G 6
  22489053.842    10131163.996 6   7894386.38621        13.000           0.438
  22278219.936    -9801341.200 6  -7637399.24621        17.250           0.844
  20796119.029   -19228255.225 7 -14983033.99323        25.750           2.500
  23118153.576    -5776716.194 5  -4385319.30321         9.250           0.344
  22198699.740   -10850478.378 6  -8275947.97021        14.250           0.531
 91  6  6 18 21 14.9980000  0  5G18G11G 2G16G 6
  22496806.881    10171910.053 6   7926136.42921        12.250           0.563
  22278620.209    -9799252.185 6  -7635771.45021        17.500           0.938
  20789101.904   -19265129.246 7 -15011766.97922        25.750           2.469
  23118629.553    -5774209.328 5  -4383365.95321         9.000           0.344
  22190418.686   -10893974.601 6  -8309841.11221        14.000           0.625
 91  6  6 18 21 29.9970000  0  5G18G11G 2G16G 6
  22504569.251    10212703.444 6   7957923.35521        12.000           0.594
  22279046.782    -9797011.737 6  -7634025.65421        17.250           0.875
  20782100.595   -19301923.284 7 -15040437.63723        26.000           2.563
  23119127.649    -5771584.333 5  -4381320.54921         9.250           0.313
  22182148.423   -10937453.029 6  -8343720.38521        14.500           0.625
 91  6  6 18 21 44.9970000  0  5G18G11G 2G16G 6
  22512341.688    10253544.790 6   7989747.63521        12.500           0.656
  22279504.103    -9794624.328 6  -7632165.34521        17.500           0.938
  20775111.649   -19338647.094 7 -15069053.57423        25.750           2.500
  23119649.267    -5768845.751 5  -4379186.63821         9.500           0.313
  22173876.813   -10980924.060 6  -8377593.90921        14.000           0.625
 91  6  6 18 21 59.9970000  0  5G18G11G 2G16G 6
  22520122.603    10294433.870 6   8021609.13121        12.500           0.656
  22279982.806    -9792087.375 6  -7630188.50521        17.500           0.938
  20768138.009   -19375295.253 7 -15097610.56223        25.750           2.531
  23120191.962    -5765991.321 5  -4376962.47121         9.250           0.281
  22165603.892   -11024382.062 6  -8411457.26321        14.250           0.500
 91  6  6 18 22 14.9970000  0  5G18G11G 2G16G 6
  22527912.853    10335367.448 6   8053505.29621        12.250           0.625
  22280494.688    -9789403.802 6  -7628097.42321        17.500           0.969
  20761177.251   -19411870.445 7 -15126110.68823        25.750           2.563
  23120760.485    -5763023.692 5  -4374650.07121         9.250           0.219
  22157339.032   -11067829.697 6  -8445312.55421        14.250           0.531
 91  6  6 18 22 29.9970000  0  5G18G11G 2G16G 6
  22535711.431    10376348.960 6   8085438.80721        12.500           0.625
  22281034.032    -9786570.386 6  -7625889.58021        17.750           0.844
  20754232.751   -19448369.410 7 -15154551.42123        25.750           2.500
  23121346.196    -5759939.881 5  -4372247.16321         9.500           0.375
  22149071.103   -11111263.604 6  -8479157.14821        14.500           0.688
 91  6  6 18 22 44.9970000  0  5G18G11G 2G16G 6
  22543519.923    10417378.636 5   8117409.86221        11.750           0.656
  22281601.446    -9783586.532 6  -7623564.51221        17.750           0.906
  20747300.806   -19484791.411 7 -15182932.18422        25.500           2.406
  23121952.282    -5756739.532 5  -4369753.45321         9.500           0.375
  22140810.165   -11154682.996 6  -8512990.42221        14.000           0.563
 91  6  6 18 22 59.9970000  0  5G18G11G 2G16G 6
  22551334.696    10458449.324 5   8149412.85321        11.750           0.625
  22282196.220    -9780459.002 6  -7621127.47721        18.250           0.844
  20740383.915   -19521143.250 7 -15211258.27223        25.500           2.719
  23122585.188    -5753429.539 5  -4367174.27421         9.750           0.281
  22132548.329   -11198094.528 6  -8546817.57421        14.250           0.656
 91  6  6 18 23 14.9970000  0  5G18G11G 2G16G 6
  22559159.079    10499568.001 5   8181453.25021        11.750           0.563
  22282821.399    -9777180.965 6  -7618573.18421        18.000           0.938
  20733480.204   -19557417.968 7 -15239524.26523        25.000           2.750
  23123234.868    -5750003.050 5  -4364504.33621         9.750           0.281
  22124290.274   -11241491.273 6  -8580633.19421        14.500           0.625
 91  6  6 18 23 29.9970000  0  5G18G11G 2G16G 6
  22566994.040    10540732.951 5   8213529.70821        11.750           0.656
  22283471.126    -9773753.813 6  -7615902.68921        18.000           0.875
  20726591.767   -19593616.553 7 -15267730.94123        25.000           2.656
  23123909.688    -5746461.780 5  -4361744.96321         9.750           0.313
  22116036.649   -11284874.391 6  -8614438.21121        14.500           0.594
 91  6  6 18 23 44.9970000  0  5G18G11G 2G16G 6
  22574834.837    10581937.985 5   8245637.38921        11.250           0.688
  22284151.235    -9770183.678 6                        18.500
  20719717.493   -19629745.187 7 -15295883.10623        25.250           2.563
  23124604.157    -5742811.691 5                        10.000
  22107780.415   -11328249.853 6  -8648237.26121        14.500           0.531
 91  6  6 18 23 59.9970000  0  5G18G11G 2G16G 6
  22582682.712    10623179.471 5   8277773.47521        11.500           0.594
  22284858.899    -9766474.001 6                        18.500
  20712855.204   -19665807.289 7 -15323983.43323        25.250           2.594
  23125320.040    -5739056.283 5                        10.000
  22099526.220   -11371620.971 6  -8682032.91221        14.250           0.656
 91  6  6 18 24 14.9970000  0  5G18G11G 2G16G 6
  22590538.493    10664463.958 5   8309943.07221        11.500           0.594
  22285592.517    -9762617.949 6                        18.000
  20706006.267   -19701795.617 7 -15352026.27323        25.000           2.625
  23126054.103    -5735188.893 5                         9.750
  22091276.118   -11414980.551 6  -8715819.57221        14.250           0.500
 91  6  6 18 24 29.9970000  0  5G18G11G 2G16G 6
  22598401.806    10705785.605 5   8342141.62121        11.500           0.563
  22286353.306    -9758621.273 6                        18.250
  20699170.681   -19737715.881 7 -15380016.07623        25.000           2.656
  23126811.774    -5731215.405 5                         9.750
  22083027.806   -11458334.392 6  -8749601.76221        14.500           0.500
 91  6  6 18 24 44.9970000  0  5G18G11G 2G16G 6
  22606273.142    10747155.898 5   8374378.08221        11.000           0.656
  22287142.306    -9754472.395 6                        18.250
  20692350.649   -19773556.314 7 -15407943.67123        24.750           2.688
  23127589.493    -5727124.498 5                         9.750
  22074781.017   -11501670.622 6  -8783370.23121        14.750           0.625
 91  6  6 18 24 59.9970000  0  5G18G11G 2G16G 6
  22614155.181    10788572.455 5   8406650.58521        11.000           0.594
  22287960.110    -9750173.699 6  -7597528.64221        18.500           0.844
  20685545.470   -19809319.102 7 -15435810.76223        24.750           2.625
  23128387.704    -5722918.358 5  -4343399.77121         9.750           0.281
  22066536.681   -11544991.443 6  -8817126.69821        14.750           0.531
 91  6  6 18 25 14.9970000  0  5G18G11G 2G16G 6
  22622044.782    10830028.762 5   8438954.07821        11.250           0.563
  22288805.595    -9745731.276 6  -7594067.02121        18.750           0.844
  20678754.071   -19845010.206 7 -15463621.99623        25.000           2.656
  23129210.071    -5718603.277 5  -4340037.43621         9.500           0.250
  22058295.431   -11588302.779 6  -8850875.75821        15.000           0.594
 91  6  6 18 25 29.9970000  0  5G18G11G 2G16G 6
  22629941.579    10871526.187 5   8471289.58921        11.500           0.531
  22289679.368    -9741143.899 6  -7590492.45521        18.750           0.844
  20671975.478   -19880628.388 7 -15491376.41223        25.000           2.688
  23130053.774    -5714178.223 5  -4336589.41421         9.500           0.281
  22050054.907   -11631603.303 6  -8884616.40521        14.750           0.594
 91  6  6 18 25 44.9970000  0  5G18G11G 2G16G 6
  22637846.845    10913066.984 5   8503658.91021        11.500           0.500
  22290578.806    -9736409.014 6  -7586802.94321        18.500           0.781
  20665211.946   -19916170.982 7 -15519071.92823        25.000           2.813
  23130916.438    -5709640.860 5  -4333053.85821         9.500           0.313
  22041817.634   -11674890.224 6  -8918346.46221        15.000           0.563
 91  6  6 18 25 59.9970000  0  5G18G11G 2G16G 6
  22645758.165    10954649.653 5   8536060.85921        11.000           0.531
  22291505.485    -9731527.902 6  -7582999.49121        18.500           0.813
  20658463.056   -19951639.042 7 -15546709.36023        24.750           2.813
  23131805.149    -5704992.516 5  -4329431.83621         9.500           0.344
  22033583.790   -11718164.708 6  -8952066.80921        15.000           0.563
 91  6  6 18 26 14.9970000  0  5G18G11G 2G16G 6
  22653680.548    10996279.273 5   8568499.38921        11.500           0.594
  22292463.853    -9726495.314 6  -7579078.00421        18.500           0.875
  20651728.618   -19987027.228 7 -15574284.55623        24.750           2.750
  23132709.103    -5700228.052 5  -4325719.35421         9.500           0.313
  22025352.446   -11761421.208 6  -8985773.16521        15.250           0.563
 91  6  6 18 26 29.9970000  0  5G18G11G 2G16G 6
  22661612.509    11037954.567 5   8600973.52121        11.750           0.500
  22293452.024    -9721312.465 6  -7575039.43021        19.000           0.813
  20645009.337   -20022336.436 7 -15601798.21023        24.500           2.750
  23133637.985    -5695348.755 5  -4321917.35221         9.500           0.313
  22017123.470   -11804660.889 6  -9019466.40621        15.000           0.656
 91  6  6 18 26 44.9970000  0  5G18G11G 2G16G 6
  22669550.829    11079673.712 5   8633481.81721        11.500           0.469
  22294465.798    -9715981.136 6  -7570885.16021        19.000           0.781
  20638305.376   -20057568.356 7 -15629251.63923        24.750           2.781
  23134588.274    -5690356.427 5  -4318027.30621         9.750           0.406
  22008896.735   -11847885.220 6  -9053147.69421        15.000           0.563
 91  6  6 18 26 59.9970000  0  5G18G11G 2G16G 6
  22677498.501    11121435.287 5   8666023.16821        11.250           0.469
  22295509.626    -9710502.630 6  -7566616.20721        19.250           0.906
  20631615.360   -20092724.246 7 -15656645.82623        24.750           2.750
  23135560.298    -5685252.514 5  -4314050.29321         9.750           0.313
  22000674.282   -11891095.325 6  -9086817.88021        15.250           0.688
 91  6  6 18 27 14.9970000  0  5G18G11G 2G16G 6
  22685453.493    11163236.362 5   8698595.30321        11.500           0.438
  22296576.056    -9704879.831 6  -7562234.81121        19.000           0.844
  20624939.173   -20127806.797 7 -15683982.86523        25.000           2.688
  23136551.626    -5680039.789 5  -4309988.47821         9.750           0.219
  21992455.212   -11934293.842 6  -9120479.05021        15.250           0.656
 91  6  6 18 27 29.9970000  0  5G18G11G 2G16G 6
  22693413.985    11205072.422 5   8731194.70221        11.500           0.375
  22297678.056    -9699116.973 6  -7557744.28521        19.000           0.844
  20618275.853   -20162820.060 7 -15711265.91123        25.250           2.813
  23137565.267    -5674723.062 5  -4305845.65621         9.500           0.344
  21984236.368   -11977484.833 6  -9154134.35121        15.000           0.563
 91  6  6 18 27 44.9970000  0  5G18G11G 2G16G 6
  22701383.642    11246948.724 6   8763825.45021        12.000           0.469
  22298798.860    -9693208.664 6  -7553140.41921        18.500           0.813
  20611628.610   -20197758.552 7 -15738490.69523        25.000           2.719
  23138593.735    -5669296.758 5  -4301617.41521         9.500           0.344
  21976018.259   -12020662.745 6  -9187779.46521        15.000           0.656
 91  6  6 18 27 59.9970000  0  5G18G11G 2G16G 6
  22709360.845    11288866.991 5   8796488.92221        11.750           0.531
  22299952.095    -9687152.964 6  -7548421.69621        19.000           0.875
  20604993.993   -20232620.172 7 -15765655.57623        25.500           2.719
  23139650.306    -5663759.111 5  -4297302.43021         9.500           0.344
  21967805.899   -12063825.446 6  -9221412.71821        15.000           0.656
 91  6  6 18 28 14.9970000  0  5G18G11G 2G16G 6
  22717343.735    11330820.036 5   8829179.45621        11.250           0.531
  22301133.001    -9680956.885 6  -7543593.59121        19.000           0.906
  20598373.321   -20267411.630 7 -15792765.78423        25.500           2.813
  23140723.993    -5658117.297 5  -4292906.27121         9.000           0.313
  21959593.540   -12106979.829 6  -9255039.50321        15.000           0.656
 91  6  6 18 28 29.9970000  0  5G18G11G 2G16G 6
  22725332.626    11372808.710 5   8861897.76521        11.250           0.563
  22302337.556    -9674619.676 6  -7538655.51521        18.750           0.688
  20591766.212   -20302132.138 7 -15819820.70423        25.750           2.688
  23141817.837    -5652370.675 5  -4288428.45221         9.000           0.344
  21951383.915   -12150124.891 6  -9288659.01321        15.000           0.750
 91  6  6 18 28 44.9970000  0  5G18G11G 2G16G 6
  22733331.767    11414842.586 5   8894651.30921        11.250           0.469
  22303571.220    -9668131.543 6  -7533599.83921        18.750           0.906
  20585174.173   -20336771.648 7 -15846812.50923        25.750           2.688
  23142931.032    -5646509.497 5  -4283861.36521         8.250           0.281
  21943176.446   -12193250.634 6  -9322263.47921        15.000           0.688
 91  6  6 18 28 59.9970000  0  5G18G11G 2G16G 6
  22741338.892    11456917.942 5   8927437.16421        11.000           0.500
  22304834.243    -9661496.079 6  -7528429.36321        19.000           0.813
  20578597.626   -20371333.580 7 -15873743.86223        26.500           2.750
  23144065.931    -5640537.336 5  -4279207.80121         8.500           0.375
  21934974.228   -12236360.391 6  -9355855.48221        15.250           0.625
 91  6  6 18 29 14.9970000  0  5G18G11G 2G16G 6
  22749352.649    11499029.779 5   8960251.44821        10.500           0.625
  22306123.595    -9654718.096 6  -7523147.83421        19.000           0.813
  20572034.571   -20405822.623 7 -15900618.41723        26.500           2.844
  23145225.306    -5634459.158 5  -4274471.62721         8.000           0.313
  21926771.149   -12279458.739 6  -9389438.60121        15.000           0.719
 91  6  6 18 29 29.9970000  0  5G18G11G 2G16G 6
  22757374.228    11541181.348 5   8993096.66721        11.000           0.469
  22307439.298    -9647794.409 6  -7517752.79521        19.000           0.844
  20565485.540   -20440235.472 7 -15927433.60023        26.500           2.750
  23146399.149    -5628271.784 5  -4269650.35521         8.250           0.344
  21918574.157   -12322542.383 6  -9423010.25421        15.000           0.688
 91  6  6 18 29 44.9970000  0  5G18G11G 2G16G 6
  22765401.946    11583371.040 5   9025971.62621        11.250           0.500
  22308784.853    -9640726.463 6  -7512245.28621        18.750           0.906
  20558951.743   -20474573.407 7 -15954190.41123        26.250           2.656
  23147605.063    -5621976.908 5  -4264745.33221         8.750           0.281
  21910376.985   -12365612.479 6  -9456571.35521        15.000           0.750
 91  6  6 18 29 59.9970000  0  5G18G11G 2G16G 6
  22773437.978    11625589.633 5   9058869.09521        11.250           0.594
  22310157.032    -9633523.286 6  -7506632.42621        18.750           0.813
  20552429.603   -20508845.419 7 -15980895.84923        26.500           2.656
  23148814.212    -5615583.636 5  -4259763.63221         8.750           0.313
  21902181.228   -12408677.915 6  -9490128.82421        15.500           0.656
 91  6  6 18 30 14.9970000  0  5G18G11G 2G16G 6
  22781477.353    11667848.444 5   9091797.91021        11.000           0.500
  22311556.931    -9626173.328 6  -7500905.21021        18.500           0.781
  20545923.032   -20543039.606 7 -16007540.64923        26.750           2.656
  23150057.532    -5609080.297 5  -4254696.13921         8.500           0.313
  21893991.282   -12451726.733 6  -9523673.35521        15.250           0.813
 91  6  6 18 30 29.9970000  0  5G18G11G 2G16G 6
  22789525.024    11710137.308 5   9124750.12221        11.000           0.500
  22312981.665    -9618686.828 6  -7495071.58021        18.000           0.906
  20539428.376   -20577166.118 7 -16034132.71423        27.000           2.688
  23151306.134    -5602477.377 5  -4249551.07521         8.250           0.375
  21885800.368   -12494769.066 6  -9557212.82921        15.000           0.813
 91  6  6 18 30 44.9970000  0  5G18G11G 2G16G 6
  22797582.509    11752464.544 5   9157732.25121        11.250           0.656
  22314433.313    -9611055.387 6  -7489125.02121        18.500           0.875
  20532948.860   -20611216.472 7 -16060665.43523        27.000           2.625
  23152589.063    -5595766.663 5  -4244322.00621         8.250           0.313
  21877611.790   -12537796.382 6  -9590740.59221        14.750           0.688
 91  6  6 18 30 59.9970000  0  5G18G11G 2G16G 6
  22805642.212    11794828.072 5   9190742.64821        11.000           0.594
  22315911.728    -9603281.057 6  -7483067.11021        18.250           0.906
  20526483.813   -20645192.372 7 -16087140.13723        26.750           2.656
  23153889.907    -5588950.105 5  -4239010.46221         8.500           0.406
  21869425.431   -12580810.372 6  -9624257.97621        15.000           0.719
 91  6  6 18 31 14.9970000  0  5G18G11G 2G16G 6
  22813710.884    11837227.383 5   9223780.92521        11.000           0.594
  22317418.806    -9595364.021 6  -7476898.00921        18.000           0.844
  20520033.009   -20679093.862 7 -16113556.86223        27.000           2.656
  23155197.626    -5582028.226 5  -4233616.84721         7.750           0.344
  21861242.548   -12623811.039 6  -9657764.97621        15.000           0.750
 91  6  6 18 31 29.9970000  0  5G18G11G 2G16G 6
  22821785.587    11879660.791 5   9256845.77721        11.000           0.688
  22318952.220    -9587305.683 6  -7470618.79921        18.250           0.844
  20513595.626   -20712922.210 7 -16139916.59223        27.250           2.563
  23156541.673    -5575002.348 5  -4228142.21221         8.000           0.375
  21853062.228   -12666799.544 6  -9691262.49421        14.750           0.781
 91  6  6 18 31 44.9970000  0  5G18G11G 2G16G 6
  22829866.595    11922128.697 5   9289937.50221        10.750           0.531
  22320512.821    -9579105.758 6  -7464229.26421        18.000           0.844
  20507171.915   -20746676.795 7 -16166218.84623        27.250           2.531
  23157897.735    -5567872.430 5  -4222586.50621         8.250           0.281
  21844884.063   -12709775.310 6  -9724750.09921        14.500           0.781
 91  6  6 18 31 59.9970000  0  5G18G11G 2G16G 6
  22837955.470    11964636.097 5   9323060.00221        10.500           0.594
  22322102.048    -9570759.033 6  -7457725.33821        18.250           0.875
  20500763.407   -20780352.413 7 -16192459.56723        27.250           2.531
  23159274.329    -5560633.485 5  -4216945.83221         8.000           0.375
  21836709.868   -12752733.056 6  -9758223.64921        14.500           0.719
 91  6  6 18 32 14.9970000  0  5G18G11G 2G16G 6
  22846051.618    12007177.471 5   9356208.97621        10.750           0.594
  22323717.274    -9562271.119 6  -7451111.39521        18.000           0.781
  20494369.899   -20813954.296 7 -16218642.82923        27.500           2.594
  23160672.282    -5553291.105 5  -4211224.55721         8.000           0.313
  21828537.415   -12795678.196 6  -9791687.38521        14.250           0.750
 91  6  6 18 32 29.9970000  0  5G18G11G 2G16G 6
  22854154.571    12049752.028 5   9389383.80921        10.500           0.563
  22325357.142    -9553642.563 6  -7444387.86121        18.000           0.813
  20487989.220   -20847482.999 7 -16244769.07023        27.750           2.563
  23162091.259    -5545845.701 5  -4205422.99121         7.500           0.375
  21820367.915   -12838610.764 6  -9825141.31921        14.750           0.656
 91  6  6 18 32 44.9970000  0  5G18G11G 2G16G 6
  22862260.899    12092356.343 5   9422581.83621         9.750           0.594
  22327026.978    -9544876.639 6  -7437557.28421        17.750           0.781
  20481622.212   -20880941.731 7 -16270840.78923        27.500           2.594
  23163525.056    -5538300.901 4  -4199543.99621         7.250           0.219
  21812200.282   -12881534.041 6  -9858588.01821        14.250           0.750
 91  6  6 18 32 59.9970000  0  5G18G11G 2G16G 6
  22870374.384    12134989.014 5   9455801.94821         9.750           0.375
  22328721.696    -9535974.776 6  -7430620.78321        18.000           0.813
  20475268.376   -20914331.755 7 -16296858.97123        27.750           2.500
  23164973.493    -5530658.066 5  -4193588.60421         7.750           0.344
  21804034.009   -12924449.152 6  -9892028.35221        14.500           0.750
 91  6  6 18 33 14.9970000  0  5G18G11G 2G16G 6
  22878492.360    12177658.155 5   9489050.47921        10.000           0.438
  22330440.962    -9526928.756 6  -7423571.94721        18.250           0.813
  20468929.243   -20947644.689 7 -16322817.08423        27.500           2.531
  23166446.743    -5522909.049 5  -4187550.47821         7.500           0.250
  21795870.103   -12967347.620 6  -9925455.72521        14.500           0.813
 91  6  6 18 33 29.9970000  0  5G18G11G 2G16G 6
  22886620.423    12220362.304 5   9522326.28921        10.000           0.406
  22332190.399    -9517739.756 6  -7416411.70421        18.750           0.719
  20462604.782   -20980881.518 7 -16348715.89423        27.500           2.500
  23167944.181    -5515055.293 4  -4181430.74021         7.250           0.313
  21787709.134   -13010230.329 6  -9958870.81821        14.750           0.719
 91  6  6 18 33 44.9970000  0  5G18G11G 2G16G 6
  22894752.220    12263096.776 5   9555625.73721         9.500           0.469
  22333965.681    -9508412.503 6  -7409143.72721        18.750           0.781
  20456292.853   -21014046.654 7 -16374558.84022        27.500           2.469
  23169456.751    -5507101.226 4  -4175232.84421         7.250           0.750
  21779552.626   -13053101.831 6  -9992277.16821        14.500           0.719
 91  6  6 18 33 59.9970000  0  5G18G11G 2G16G 6
  22902889.712    12305863.024 5   9588949.94421         9.500           0.375
  22335767.704    -9498945.423 6  -7401766.80821        18.500           0.750
  20449995.728   -21047138.266 7 -16400344.49223        27.500           2.531
  23170994.384    -5499045.636 5  -4168955.82521         7.500           0.063
  21771396.360   -13095960.268 6 -10025673.34121        14.750           0.813
 91  6  6 18 34 14.9970000  0  5G18G11G 2G16G 6
  22911035.415    12348669.272 5   9622305.31221         9.750           0.344
  22337598.681    -9489330.429 6  -7394274.62321        18.250           0.656
  20443714.313   -21080148.061 7 -16426066.38822        27.500           2.469
  23172548.251    -5490880.508 5  -4162593.40321         7.750           0.094
  21763244.548   -13138797.237 6 -10059052.79121        14.750           0.688
 91  6  6 18 34 29.9970000  0  5G18G11G 2G16G 6
  22919188.353    12391505.625 5   9655684.14621         9.500           0.344
  22339452.376    -9479576.947 6  -7386674.52821        18.250           0.750
  20437446.642   -21113085.369 7 -16451731.81022        27.250           2.438
  23174122.728    -5482615.212 5  -4156153.01421         7.750           0.156
  21755096.501   -13181622.025 6 -10092422.74421        15.000           0.781
 91  6  6 18 34 44.9970000  0  5G18G11G 2G16G 6
  22927343.899    12434369.518 5   9689084.44121         8.750           0.313
  22341334.493    -9469687.804 6  -7378968.72021        18.000           0.719
  20431191.923   -21145952.862 7 -16477342.82522        27.000           2.313
  23175712.345    -5474252.808 5  -4149636.90921         7.750           0.250
  21746946.985   -13224437.171 6 -10125785.18321        15.000           0.750
 91  6  6 18 34 59.9970000  0  5G18G11G 2G16G 6
  22935507.946    12477271.797 5   9722514.63421         8.750           0.313
  22343243.899    -9459651.965 6  -7371148.60421        18.500           0.719
  20424952.907   -21178739.341 7 -16502890.71722        27.500           2.344
  23177322.946    -5465782.332 5  -4143036.60121         7.750           0.250
  21738804.103   -13267231.342 6 -10159131.28621        15.000           0.719
 91  6  6 18 35 14.9970000  0  5G18G11G 2G16G 6
  22943678.821    12520207.052 5   9755970.49521         8.250           0.344
  22345180.228    -9449474.476 6  -7363218.11321        18.500           0.594
  20418728.485   -21211449.488 7 -16528379.13022        27.500           2.313
  23178958.524    -5457208.995 5  -4136356.14021         7.750           0.219
  21730663.892   -13310009.288 6 -10192464.73921        15.000           0.750
 91  6  6 18 35 29.9970000  0  5G18G11G 2G16G 6
  22951854.399    12563168.361 5   9789446.71121         8.500           0.281
  22347144.876    -9439162.211 6  -7355182.59921        18.250           0.656
  20412516.923   -21244090.199 7 -16553813.43422        27.500           2.406
  23180608.181    -5448539.829 5  -4129601.03621         8.000           0.250
  21722526.048   -13352777.721 6 -10225790.76821        15.250           0.719
 91  6  6 18 35 44.9970000  0  5G18G11G 2G16G 6
  22960038.134    12606169.763 5   9822954.12621         8.750           0.313
  22349135.110    -9428701.200 6  -7347031.17821        18.250           0.625
  20406321.696   -21276647.175 7 -16579182.49322        27.250           2.313
  23182275.728    -5439761.144 5  -4122760.55521         7.500           0.219
  21714390.688   -13395522.347 6 -10259098.26221        15.250           0.688
 91  6  6 18 35 59.9970000  0  5G18G11G 2G16G 6
  22968224.704    12649195.957 5   9856480.87121         8.750           0.344
  22351150.657    -9418106.613 6  -7338775.66821        18.500           0.719
  20400139.087   -21309135.502 7 -16604498.05922        27.500           2.375
  23183964.696    -5430887.708 5  -4115846.27621         7.750           0.281
  21706258.024   -13438258.123 6 -10292398.84821        15.500           0.750
 91  6  6 18 36 14.9970000  0  5G18G11G 2G16G 6
  22976418.446    12692250.028 5   9890029.34321         9.000           0.344
  22353192.978    -9407375.491 6  -7330413.77421        18.500           0.625
  20393970.892   -21341552.135 7 -16629757.76522        27.500           2.375
  23185667.853    -5421916.502 5  -4108855.78121         7.500           0.219
  21698130.298   -13480981.813 6 -10325690.03221        15.250           0.750
 91  6  6 18 36 29.9970000  0  5G18G11G 2G16G 6
  22984617.837    12735337.067 5   9923603.49921         9.750           0.438
  22355262.618    -9396502.607 6  -7321941.41521        18.250           0.781
  20387816.704   -21373891.554 7 -16654957.29922        27.500           2.406
  23187402.610    -5412842.599 5  -4101785.26221         8.000           0.156
  21690002.243   -13523687.858 6 -10358967.45421        15.750           0.750
 91  6  6 18 36 44.9970000  0  5G18G11G 2G16G 6
  22992823.798    12778462.088 5   9957207.26121        10.250           0.375
  22357359.017    -9385482.433 6  -7313354.28421        18.000           0.688
  20381678.774   -21406148.075 7 -16680092.23722        27.250           2.281
  23189144.759    -5403660.721 5  -4094630.64021         8.250           0.188
  21681879.892   -13566370.519 6 -10392226.65721        15.500           0.688
 91  6  6 18 36 59.9970000  0  5G18G11G 2G16G 6
  23001037.110    12821617.886 5   9990835.00721        10.250           0.406
  22359482.556    -9374322.270 6  -7304658.06621        18.250           0.719
  20375554.915   -21438328.637 7 -16705167.98722        27.250           2.375
  23190909.103    -5394378.345 5  -4087397.67521         8.250           0.281
  21673760.384   -13609036.819 6 -10425473.11521        15.500           0.813
 91  6  6 18 37 14.9970000  0  5G18G11G 2G16G 6
  23009253.837    12864801.362 5  10024484.31321        10.250           0.438
  22361631.845    -9363025.310 6  -7295855.25921        18.000           0.688
  20369444.751   -21470436.142 7 -16730186.80822        27.000           2.438
  23192701.462    -5384998.521 5  -4080088.79121         8.250           0.313
  21665644.798   -13651689.491 6 -10458708.95321        15.750           0.813
 91  6  6 18 37 29.9970000  0  5G18G11G 2G16G 6
  23017479.118    12908015.370 5  10058157.41021        10.500           0.406
  22363807.095    -9351588.548 6  -7286943.50921        18.000           0.688
  20363349.712   -21502467.586 7 -16755146.36622        27.000           2.406
  23194501.149    -5375518.247 5  -4072701.63621         8.250           0.188
  21657531.938   -13694325.556 6 -10491931.85121        15.750           0.688
 91  6  6 18 37 44.9970000  0  5G18G11G 2G16G 6
  23025708.165    12951259.783 5  10091854.19621        10.000           0.344
  22366013.274    -9340012.093 6  -7277922.92021        18.250           0.750
  20357268.103   -21534422.968 7 -16780046.65323        26.750           2.500
  23196325.759    -5365937.894 5  -4065236.47521         8.500           0.219
  21649421.282   -13736944.769 6 -10525141.61121        15.500           0.781
 91  6  6 18 37 59.9970000  0  5G18G11G 2G16G 6
  23033940.579    12994529.284 5  10125570.55121         9.500           0.313
  22368241.040    -9328301.378 6  -7268797.69621        18.000           0.656
  20351200.798   -21566307.336 7 -16804891.60222        27.000           2.375
  23198167.673    -5356263.000 5  -4057697.67421         8.750           0.219
  21641313.681   -13779552.149 6 -10558342.14921        16.000           0.719
 91  6  6 18 38 14.9970000  0  5G18G11G 2G16G 6
  23042180.001    13037821.458 5  10159304.53021         8.750           0.375
  22370493.712    -9316458.417 6  -7259569.43121        18.250           0.625
  20345146.649   -21598122.639 7 -16829682.73622        27.000           2.375
  23200020.462    -5346495.705 5  -4050086.85021         8.750           0.156
  21633206.610   -13822149.456 6 -10591534.84521        16.000           0.750
 91  6  6 18 38 29.9970000  0  5G18G11G 2G16G 6
  23050423.267    13081144.178 5  10193062.32221         9.000           0.438
  22372773.946    -9304475.492 6  -7250232.10821        18.500           0.813
  20339107.563   -21629861.003 7 -16854413.91522        27.000           2.313
  23201900.220    -5336628.216 5  -4042397.97421         8.500           0.188
  21625104.587   -13864728.880 6 -10624713.60021        16.000           0.781
 91  6  6 18 38 44.9970000  0  5G18G11G 2G16G 6
  23058674.399    13124501.195 5  10226846.85821         8.750           0.375
  22375081.907    -9292348.734 6  -7240782.70621        18.250           0.750
  20333082.509   -21661518.111 7 -16879081.78122        26.500           2.406
  23203803.024    -5326656.603 5  -4034627.97821         9.000           0.313
  21617006.399   -13907285.994 6 -10657874.96821        16.250           0.875
 91  6  6 18 38 59.9970000  0  5G18G11G 2G16G 6
  23066928.876    13167882.821 5  10260650.54721         8.500           0.281
  22377416.071    -9280087.594 6  -7231228.58421        18.250           0.781
  20327071.970   -21693103.373 7 -16903693.65422        26.750           2.344
  23205714.438    -5316590.591 5  -4026784.36421         8.750           0.156
  21608911.517   -13949830.164 6 -10691026.24521        16.250           0.813
 91  6  6 18 39 14.9970000  0  5G18G11G 2G16G 6
  23075189.040    13211291.761 5  10294475.52921         8.750           0.375
  22379774.915    -9267689.201 6  -7221567.52221        18.500           0.656
  20321076.563   -21724613.770 7 -16928247.20122        26.500           2.438
  23207651.251    -5306427.374 5  -4018865.05621         8.500           0.188
  21600816.845   -13992358.220 6 -10724164.98121        16.250           0.906
 91  6  6 18 39 29.9970000  0  5G18G11G 2G16G 6
  23083455.095    13254724.687 5  10328319.19521         9.000           0.344
  22382160.040    -9255157.044 6  -7211802.21621        18.250           0.750
  20315093.821   -21756052.537 7 -16952744.92722        26.250           2.406
  23209600.532    -5296170.625 5  -4010872.87621         8.750           0.094
  21592726.220   -14034873.266 6 -10757293.57321        16.500           0.813
 91  6  6 18 39 44.9970000  0  5G18G11G 2G16G 6
  23091726.048    13298192.669 5  10362190.18721         9.250           0.375
  22384571.509    -9242480.044 6  -7201924.05321        18.000           0.625
  20309127.103   -21787408.418 7 -16977178.06922        26.250           2.438
  23211570.056    -5285809.070 5  -4002799.00021         8.750           0.188
  21584642.017   -14077363.970 6 -10790403.20121        16.500           0.844
 91  6  6 18 39 59.9970000  0  5G18G11G 2G16G 6
  23100003.548    13341682.829 5  10396078.46521         8.750           0.344
  22387007.892    -9229670.699 6  -7191942.76121        17.750           0.656
  20303173.610   -21818693.792 7 -17001556.26723        26.500           2.531
  23213561.915    -5275355.249 5  -3994653.25021         8.750           0.250
  21576558.899   -14119842.609 6 -10823503.43121        16.500           0.844
 91  6  6 18 40 14.9970000  0  5G18G11G 2G16G 6
  23108284.853    13385199.180 5  10429987.14221         8.250           0.375
  22389471.267    -9216725.175 6  -7181855.35421        18.000           0.656
  20297234.274   -21849904.463 7 -17025876.25922        26.500           2.469
  23215566.626    -5264805.774 5  -3986432.92821         8.750           0.156
  21568478.251   -14162304.932 6 -10856590.94121        16.500           0.844
 91  6  6 18 40 29.9970000  0  5G18G11G 2G16G 6
  23116568.337    13428739.890 5  10463914.79221         8.250           0.375
  22391959.274    -9203645.277 6  -7171663.23521        18.000           0.625
  20291309.681   -21881041.914 7 -17050139.19723        26.500           2.594
  23217599.071    -5254162.350 5  -3978139.43421         9.000           0.156
  21560400.376   -14204752.471 6 -10889666.93321        16.750           0.875
 91  6  6 18 40 44.9970000  0  5G18G11G 2G16G 6
  23124859.931    13472311.844 5  10497866.78321         8.000           0.313
  22394478.157    -9190424.145 6  -7161361.05821        18.250           0.625
  20285398.978   -21912099.378 7 -17074339.80522        26.750           2.438
  23219639.259    -5243418.134 5  -3969767.40321         8.750           0.156
  21552326.876   -14247177.980 6 -10922725.76321        16.750           0.813
 91  6  6 18 40 59.9970000  0  5G18G11G 2G16G 6
  23133157.165    13515904.681 5  10531835.04621         8.000           0.438
  22397018.923    -9177071.743 6  -7150956.59621        18.250           0.594
  20279502.149   -21943086.531 7 -17098485.62823        26.250           2.563
  23221702.181    -5232583.232 5  -3961324.69421         8.750           0.125
  21544255.126   -14289591.289 6 -10955775.08821        16.750           0.875
 91  6  6 18 41 14.9970000  0  5G18G11G 2G16G 6
  23141455.931    13559518.491 5  10565819.67921         7.750           0.313
  22399583.243    -9163588.188 6  -7140449.93721        18.500           0.625
  20273618.657   -21974003.203 7 -17122576.52723        26.250           2.500
  23223782.642    -5221657.693 5  -3952811.37521         9.000           0.156
  21536187.446   -14331992.217 6 -10988814.76421        16.750           0.781
 91  6  6 18 41 29.9970000  0  5G18G11G 2G16G 6
  23149761.290    13603157.096 5  10599823.61721         8.000           0.250
  22402177.712    -9149969.255 6  -7129837.79221        18.500           0.594
  20267750.087   -22004845.114 7 -17146609.17222        26.500           2.469
  23225875.493    -5210637.857 5  -3944224.56721         8.750           0.188
  21528121.290   -14374376.253 6 -11021841.27921        16.750           0.844
 91  6  6 18 41 44.9970000  0  5G18G11G 2G16G 6
  23158071.110    13646822.369 5  10633848.34121         8.000           0.375
  22404792.071    -9136213.297 6  -7119118.87821        18.250           0.531
  20261895.126   -22035610.286 7 -17170582.02522        26.500           2.438
  23227992.407    -5199522.045 5  -3935562.95521         9.000           0.156
  21520059.649   -14416741.344 6 -11054853.02221        17.000           0.906
 91  6  6 18 41 59.9970000  0  5G18G11G 2G16G 6
  23166386.587    13690521.786 5  10667899.66121         7.750           0.375
  22407436.634    -9122312.617 6  -7108287.18721        18.000           0.594
  20256057.860   -22066290.814 7 -17194488.91822        26.750           2.469
  23230131.118    -5188302.334 5  -3926820.38321         9.000           0.188
  21512003.212   -14459079.437 6 -11087843.73721        17.250           0.781
 91  6  6 18 42 14.9970000  0  5G18G11G 2G16G 6
  23174706.931    13734248.178 5  10701972.00321         7.500           0.313
  22410108.774    -9108274.424 6  -7097348.35121        17.750           0.656
  20250233.243   -22096893.517 7 -17218335.16823        26.750           2.563
  23232280.470    -5176985.982 5  -3918002.54121         9.000           0.125
  21503950.392   -14501397.509 6 -11120818.84521        17.500           0.969
 91  6  6 18 42 29.9970000  0  5G18G11G 2G16G 6
  23183033.556    13778000.909 5  10736064.86621         8.000           0.281
  22412807.829    -9094099.586 6  -7086303.02521        17.750           0.656
  20244424.595   -22127419.216 7 -17242121.41823        26.500           2.594
  23234451.282    -5165573.973 5  -3909110.14321         9.000           0.188
  21495900.946   -14543696.103 6 -11153778.77721        17.750           0.844
 91  6  6 18 42 44.9970000  0  5G18G11G 2G16G 6
  23191364.001    13821782.564 5  10770180.25621         8.000           0.313
  22415530.532    -9079785.208 6  -7075148.97321        18.000           0.531
  20238631.181   -22157864.894 7 -17265845.31723        26.250           2.625
  23236639.454    -5154063.544 5  -3900141.06421         8.750           0.188
  21487855.923   -14585972.011 6 -11186721.03621        17.500           0.906
 91  6  6 18 42 59.9970000  0  5G18G11G 2G16G 6
  23199698.985    13865584.921 5  10804311.80021         7.750           0.250
  22418278.993    -9065339.504 6  -7063892.58521        18.000           0.594
  20232851.079   -22188238.485 7 -17289513.03623        26.250           2.625
  23238852.665    -5142462.980 5  -3891101.74121         8.750           0.188
  21479813.759   -14628233.117 6 -11219651.75821        17.750           0.938
 91  6  6 18 43 14.9970000  0  5G18G11G 2G16G 6
  23208039.806    13909412.640 5  10838463.08821         8.250           0.219
  22421056.462    -9050757.742 6  -7052530.17921        18.000           0.594
  20227085.720   -22218534.977 7 -17313120.68223        26.000           2.656
  23241079.868    -5130767.638 5  -3881988.54721         8.750           0.156
  21471776.032   -14670474.415 6 -11252567.04421        17.750           0.844
 91  6  6 18 43 29.9970000  0  5G18G11G 2G16G 6
  23216385.618    13953269.470 5  10872637.07221         8.250           0.188
  22423855.751    -9036036.251 6  -7041058.89521        18.250           0.563
  20221336.501   -22248750.495 7 -17336665.22923        26.250           2.594
  23243321.868    -5118973.820 5  -3872798.65121         9.000           0.156
  21463742.446   -14712691.875 6 -11285463.75321        17.500           0.938
 91  6  6 18 43 44.9970000  0  5G18G11G 2G16G 6
  23224737.407    13997149.168 5  10906828.88521         7.750           0.281
  22426683.657    -9021181.130 6  -7029483.47021        18.250           0.563
  20215600.821   -22278890.851 7 -17360151.21423        26.000           2.594
  23245579.728    -5107087.867 5  -3863536.94021         8.500           0.188
  21455711.884   -14754891.227 6 -11318346.35421        17.500           0.938
 91  6  6 18 43 59.9970000  0  5G18G11G 2G16G 6
  23233090.829    14041054.071 5  10941040.32221         7.750           0.375
  22429535.610    -9006189.808 6  -7017801.92021        18.750           0.500
  20209879.681   -22308953.371 7 -17383576.54623        26.250           2.625
  23247863.212    -5095107.216 5  -3854201.46621         8.500           0.250
  21447685.540   -14797069.623 6 -11351212.63421        17.750           1.063
 91  6  6 18 44 14.9970000  0  5G18G11G 2G16G 6
  23241451.009    14084983.314 5  10975270.71721         8.000           0.313
  22432416.149    -8991063.373 6  -7006015.09221        18.250           0.531
  20204174.095   -22338938.886 7 -17406941.87423        26.000           2.688
  23250162.032    -5083032.965 5  -3844793.01921         8.250           0.188
  21439663.853   -14839227.796 6 -11384063.14721        17.750           0.938
 91  6  6 18 44 29.9970000  0  5G18G11G 2G16G 6
  23249814.860    14128944.472 5  11009525.98821         8.000           0.250
  22435319.321    -8975794.248 6  -6994117.07321        18.500           0.594
  20198483.837   -22368839.559 7 -17430241.09123        25.750           2.594
  23252479.978    -5070857.713 5  -3835305.90121         8.250           0.250
  21431646.274   -14881357.858 6 -11416891.76021        18.000           1.031
 91  6  6 18 44 44.9970000  0  5G18G11G 2G16G 6
  23258187.595    14172933.507 5  11043802.98221         8.250           0.250
  22438253.220    -8960386.301 6  -6982110.87921        18.250           0.438
  20192809.407   -22398659.085 7 -17453477.07923        25.750           2.625
  23254812.517    -5058585.029 5  -3825742.84621         8.500           0.219
  21423634.165   -14923463.360 6 -11449701.23121        17.750           1.063
 91  6  6 18 44 59.9970000  0  5G18G11G 2G16G 6
  23266561.813    14216943.591 5  11078096.38021         8.000           0.219
  22441209.579    -8944846.165 6  -6970001.68921        18.500           0.438
  20187149.056   -22428403.720 7 -17476654.70823        26.000           2.719
  23257166.399    -5046221.807 5  -3816109.25821         8.000           0.219
  21415624.774   -14965550.512 6 -11482496.40521        18.000           0.938
 91  6  6 18 45 14.9970000  0  5G18G11G 2G16G 6
  23274940.587    14260970.866 5  11112403.18021         7.500           0.313
  22444191.806    -8929177.798 6  -6957792.57921        18.250           0.531
  20181502.501   -22458077.514 7 -17499777.13423        26.000           2.781
  23259536.212    -5033772.407 5  -3806408.53121         8.250           0.281
  21407618.868   -15007623.123 6 -11515280.24221        18.000           1.031
 91  6  6 18 45 29.9970000  0  5G18G11G 2G16G 6
  23283319.579    14305011.191 4  11146720.14921         6.750           0.281
  22447196.610    -8913385.357 6  -6945486.77921        18.250           0.594
  20175868.735   -22487684.168 7 -17522847.24423        26.000           2.656
  23261919.282    -5021241.117 5  -3796643.97921         8.000           0.313
  21399614.845   -15049684.894 6 -11548055.63721        18.250           0.969
 91  6  6 18 45 44.9970000  0  5G18G11G 2G16G 6
  23291704.173    14349064.067 4  11181046.87321         7.000           0.281
  22450224.813    -8897469.111 6  -6933084.51821        18.250           0.656
  20170247.173   -22517223.821 7 -17545865.14923        25.750           2.625
  23264320.657    -5008628.133 5  -3786815.75521         8.000           0.250
  21391612.134   -15091735.784 6 -11580822.54721        18.250           1.031
 91  6  6 18 45 59.9970000  0  5G18G11G 2G16G 6
  23300090.595    14393134.221 4  11215387.07421         7.000           0.281
  22453279.353    -8881424.543 6  -6920582.26221        18.250           0.594
  20164639.915   -22546691.705 7 -17568827.12523        26.000           2.656
  23266740.384    -4995928.604 5  -3776920.10921         7.500           0.156
  21383613.517   -15133770.950 6 -11613577.21021        18.500           1.063
 91  6  6 18 46 14.9970000  0  5G18G11G 2G16G 6
  23308480.095    14437224.569 4  11249743.02621         7.000           0.344
  22456356.517    -8865248.479 6  -6907977.54821        18.250           0.500
  20159046.501   -22576084.411 7 -17591730.52123        26.000           2.719
  23269170.274    -4983139.594 5  -3766954.71821         7.500           0.188
  21375618.860   -15175786.864 6 -11646316.86621        18.500           1.063
 91  6  6 18 46 29.9970000  0  5G18G11G 2G16G 6
  23316873.345    14481331.097 4  11284111.55821         6.750           0.219
  22459459.392    -8848944.913 6  -6895273.48321        18.250           0.500
  20153466.251   -22605405.655 7 -17614578.23823        26.000           2.750
  23271619.931    -4970265.387 5  -3756922.95621         7.750           0.250
  21367625.665   -15217787.125 6 -11679044.33421        18.500           1.000
 91  6  6 18 46 44.9970000  0  5G18G11G 2G16G 6
  23325269.149    14525462.509 4  11318499.49921         6.750           0.281
  22462586.743    -8832505.266 6  -6882463.38721        18.000           0.625
  20147902.431   -22634646.700 7 -17637363.45823        26.000           2.750
  23274085.157    -4957297.468 4  -3746818.16421         7.250           0.250
  21359637.696   -15259762.864 6 -11711752.68321        18.250           0.969
 91  6  6 18 46 59.9970000  0  5G18G11G 2G16G 6
  23333672.040    14569611.457 4  11352901.08621         6.750           0.250
  22465738.837    -8815936.973 6  -6869553.02821        18.000           0.531
  20142351.946   -22663814.802 7 -17660091.84223        26.250           2.750
  23276571.454    -4944243.158 4  -3736646.09421         7.250           0.281
  21351654.290   -15301721.226 6 -11744447.49721        18.500           1.031
 91  6  6 18 47 14.9970000  0  5G18G11G 2G16G 6
  23342077.993    14613774.866 5  11387313.94621         7.500           0.219
  22468918.149    -8799242.673 6  -6856544.50121        18.250           0.563
  20136814.634   -22692912.347 7 -17682765.24423        26.250           2.688
  23279072.579    -4931105.067 4  -3726408.67221         7.250           0.250
  21343672.571   -15343664.546 6 -11777130.59521        18.750           0.969
 91  6  6 18 47 29.9970000  0  5G18G11G 2G16G 6
  23350485.532    14657953.517 5  11421738.69421         7.500           0.250
  22472117.782    -8782421.648 6  -6843437.22321        18.250           0.531
  20131291.095   -22721938.311 7 -17705382.87423        26.500           2.781
  23281587.196    -4917882.576 4  -3716105.55421         7.000           0.250
  21335693.681   -15385591.642 6 -11809801.05121        18.750           0.969
 91  6  6 18 47 44.9970000  0  5G18G11G 2G16G 6
  23358894.376    14702151.491 4  11456178.50121         7.250           0.250
  22475343.009    -8765469.910 6  -6830228.08721        18.000           0.563
  20125782.243   -22750888.498 7 -17727941.45223        26.250           2.750
  23284123.563    -4904571.930 4  -3705733.71021         7.000           0.313
  21327718.774   -15427498.113 6 -11842455.43621        18.500           1.094
 91  6  6 18 47 59.9970000  0  5G18G11G 2G16G 6
  23367312.563    14746373.185 5  11490636.77221         7.750           0.250
  22478595.353    -8748382.961 6  -6816913.60921        18.000           0.531
  20120288.329   -22779758.190 7 -17750437.31023        26.500           2.844
  23286678.103    -4891168.988 4  -3695289.96221         7.250           0.313
  21319748.899   -15469379.257 6 -11875090.08121        19.000           1.000
 91  6  6 18 48 14.9970000  0  5G18G11G 2G16G 6
  23375729.376    14790613.534 5  11525109.58721         8.000           0.156
  22481872.860    -8731166.086 6  -6803497.87021        17.500           0.625
  20114809.431   -22808552.337 7 -17772874.29823        26.750           2.781
  23289235.399    -4877678.451 4  -3684777.94321         6.750           0.156
  21311782.970   -15511239.910 6 -11907708.76821        18.750           1.031
 91  6  6 18 48 29.9970000  0  5G18G11G 2G16G 6
  23384150.806    14834868.475 5  11559593.82421         8.000           0.188
  22485170.360    -8713823.240 6  -6789983.98121        17.250           0.625
  20109343.290   -22837274.803 7 -17795255.43623        26.750           2.750
  23291819.228    -4864104.270 4  -3674200.73921         6.750           0.188
  21303820.337   -15553083.647 6 -11940314.26221        18.750           1.094
 91  6  6 18 48 44.9970000  0  5G18G11G 2G16G 6
  23392575.603    14879141.115 5  11594091.81021         8.000           0.063
  22488497.321    -8696351.087 6  -6776369.32621        17.500           0.531
  20103891.853   -22865922.034 7 -17817577.94823        26.750           2.813
  23294418.368    -4850443.644 4  -3663556.19921         7.250           0.281
  21295861.907   -15594906.857 6 -11972903.76321        18.750           1.156
 91  6  6 18 48 59.9970000  0  5G18G11G 2G16G 6
  23401004.829    14923428.963 4  11628601.65921         7.250           0.188
  22491845.353    -8678752.241 6  -6762655.95921        17.000           0.625
  20098454.798   -22894496.327 7 -17839843.62423        27.000           2.813
  23297035.438    -4836699.261 4  -3652846.41321         7.250           0.219
  21287905.813   -15636711.838 6 -12005479.06121        18.500           1.156
 91  6  6 18 49 14.9970000  0  5G18G11G 2G16G 6
  23409435.595    14967731.599 4  11663123.00321         7.000           0.063
  22495216.548    -8661027.084 6  -6748844.16621        17.000           0.594
  20093031.173   -22922997.888 7 -17862052.62723        27.000           2.813
  23299670.220    -4822871.655 4  -3642071.72621         7.250           0.250
  21279955.126   -15678498.603 6 -12038040.16421        18.750           1.188
 91  6  6 18 49 29.9970000  0  4G18G11G 2G 6
  23417867.493    15012049.555 4  11697656.29221         7.250           0.094
  22498615.681    -8643175.126 6  -6734933.57821        17.250           0.656
  20087621.212   -22951426.019 7 -17884204.40923        27.250           2.719
  21272007.235   -15720266.292 6 -12070586.40021        19.000           1.125
 91  6  6 18 49 44.9970000  0  4G18G11G 2G 6
  23426303.001    15056384.974 4  11732203.20421         7.000           0.250
  22502037.563    -8625194.261 6  -6720922.52821        16.750           0.594
  20082225.782   -22979778.288 7 -17906297.08023        27.250           2.813
  21264063.563   -15762012.219 6 -12103115.68421        19.000           1.188
 91  6  6 18 49 59.9970000  0  4G18G11G 2G 6
  23434744.642    15100745.659 4  11766769.78321         7.250           0.219
  22505484.103    -8607076.452 6  -6706804.77221        16.750           0.531
  20076846.071   -23008046.244 7 -17928324.05223        27.250           2.750
  21256124.220   -15803728.151 6 -12135621.59321        19.250           1.188
 91  6  6 18 50 14.9970000  0  4G18G11G 2G 6
  23443193.431    15145122.625 4  11801349.05221         7.250           0.219
  22508957.759    -8588830.590 6  -6692587.25121        16.750           0.656
  20071482.267   -23036238.612 7 -17950292.12623        27.250           2.719
  21248189.728   -15845422.500 6 -12168110.68721        19.250           1.125
 91  6  6 18 50 29.9970000  0  4G18G11G 2G 6
  23451639.392    15189511.336 4  11835937.49521         6.750           0.188
  22512451.743    -8570461.346 6  -6678273.57421        16.750           0.656
  20066130.415   -23064359.991 7 -17972204.88423        27.500           2.688
  21240259.431   -15887099.732 6 -12200586.44321        19.250           1.188
 91  6  6 18 50 44.9970000  0  4G18G11G 2G 6
  23460089.899    15233916.453 4  11870538.68021         6.750           0.188
  22515972.720    -8551964.315 6  -6663860.32621        16.750           0.719
  20060793.829   -23092405.788 7 -17994058.74823        27.750           2.906
  21232332.720   -15928755.006 6 -12233045.09021        18.750           1.188
 91  6  6 18 50 59.9970000  0  4G18G11G 2G 6
  23468540.368    15278331.525 4  11905147.64021         6.750           0.219
  22519516.517    -8533345.784 6  -6649352.40021        17.000           0.625
  20055470.110   -23120381.934 8 -18015858.33923        28.000           2.719
  21224409.634   -15970394.129 6 -12265491.14521        19.000           1.031
 91  6  6 18 51 14.9970000  0  3G11G 2G 6
  22523084.384    -8514599.554 6  -6634744.96621        16.500           0.656
  20050161.173   -23148281.999 7 -18037598.64623        27.750           2.688
  21216489.493   -16012010.789 6 -12297919.69621        18.500           1.094
 91  6  6 18 51 29.9970000  0  3G11G 2G 6
  22526674.876    -8495724.402 6  -6620037.07121        16.250           0.688
  20044866.329   -23176104.429 7 -18059278.45723        27.750           2.750
  21208575.282   -16053603.144 6 -12330329.31321        18.750           1.063
 91  6  6 18 51 44.9970000  0  3G11G 2G 6
  22530289.360    -8476728.003 6  -6605234.70621        16.000           0.656
  20039584.884   -23203856.763 7 -18080903.64323        27.750           2.719
  21200663.524   -16095178.627 6 -12362725.78621        19.000           1.156
 91  6  6 18 51 59.9970000  0  3G11G 2G 6
  22533928.056    -8457602.773 6  -6590331.93821        15.750           0.719
  20034318.470   -23231531.325 7 -18102468.23823        27.750           2.750
  21192757.087   -16136729.325 6 -12395102.94221        19.250           1.156
 91  6  6 18 52 14.9970000  0  3G11G 2G 6
  22537595.181    -8438342.935 6  -6575324.30121        15.750           0.688
  20029068.493   -23259122.119 7 -18123967.55223        27.750           2.781
  21184855.720   -16178249.010 6 -12427455.93021        19.250           1.156
 91  6  6 18 52 29.9970000  0  3G11G 2G 6
  22541282.798    -8418956.756 6  -6560218.20621        15.250           0.750
  20023832.509   -23286637.010 8 -18145407.72523        28.000           2.688
  21176959.282   -16219745.635 6 -12459790.95321        19.250           1.125
 91  6  6 18 52 44.9970000  0  3G11G 2G 6
  22544998.142    -8399436.842 6  -6545007.90321        15.250           0.688
  20018611.946   -23314068.370 7 -18166782.80823        27.750           2.719
  21169069.056   -16261211.422 6 -12492101.94621        19.500           1.219
 91  6  6 18 52 59.9970000  0  3G11G 2G 6
  22548735.438    -8379799.016 6  -6529705.72221        15.250           0.719
  20013405.313   -23341431.620 7 -18188104.81723        27.750           2.625
  21161181.517   -16302661.657 6 -12524400.81521        19.500           1.219
 91  6  6 18 53 14.9970000  0  3G11G 2G 6
  22552494.118    -8360029.451 6  -6514300.87921        15.250           0.656
  20008214.157   -23368712.763 7 -18209362.84823        27.500           2.625
  21153298.892   -16344082.090 6 -12556676.47121        19.500           1.094
 91  6  6 18 53 29.9970000  0  3G11G 2G 6
  22556284.251    -8340127.884 6  -6498793.17421        15.000           0.656
  20003038.642   -23395911.287 7 -18230556.50023        27.750           2.688
  21145422.142   -16385472.200 6 -12588928.48821        19.750           1.156
 91  6  6 18 53 44.9970000  0  3G11G 2G 6
  22560093.946    -8320101.550 6  -6483188.25821        15.000           0.625
  19997877.024   -23423034.209 7 -18251691.24123        27.500           2.625
  21137550.118   -16426838.858 6 -12621162.23821        19.500           1.219
 91  6  6 18 53 59.9970000  0  3G11G 2G 6
  22563929.626    -8299952.045 6  -6467487.36221        15.000           0.719
  19992729.259   -23450082.964 7 -18272768.19023        27.750           2.656
  21129682.626   -16468183.225 6 -12653378.61721        19.250           1.094
 91  6  6 18 54 14.9970000  0  3G11G 2G 6
  22567788.829    -8279676.427 6  -6451688.19821        14.750           0.625
  19987597.228   -23477054.330 7 -18293784.83223        27.500           2.594
  21121819.868   -16509502.018 6 -12685575.07221        19.250           1.125
 91  6  6 18 54 29.9970000  0  3G11G 2G 6
  22571669.751    -8259283.673 6  -6435797.75821        15.000           0.656
  19982478.376   -23503956.859 8 -18314747.83623        28.000           2.750
  21113960.142   -16550803.781 6 -12717758.24621        19.500           1.250
 91  6  6 18 54 44.9970000  0  3G11G 2G 6
  22575571.665    -8238768.771 6  -6419812.13021        14.750           0.719
  19977372.720   -23530785.393 8 -18335653.18223        28.000           2.656
  21106105.298   -16592083.032 6 -12749923.88621        19.500           1.125
 91  6  6 18 54 59.9960000  0  3G11G 2G 6
  22579500.223    -8218135.422 6  -6403734.22521        14.750           0.719
  19972281.324   -23557540.327 8 -18356501.17523        28.250           2.563
  21098254.731   -16633338.976 6 -12782071.36421        19.500           1.219
 91  6  6 18 55 14.9960000  0  3G11G 2G 6
  22583447.270    -8197380.275 6  -6387561.39721        14.500           0.625
  19967203.004   -23584224.344 8 -18377293.90723        28.250           2.563
  21090408.246   -16674576.142 6 -12814204.21221        19.500           1.188
 91  6  6 18 55 29.9960000  0  3G11G 2G 6
  22587422.254    -8176498.627 6  -6371290.00821        14.500           0.750
  19962141.356   -23610829.000 8 -18398024.80323        28.250           2.719
  21082565.566   -16715785.160 6 -12846315.11821        19.750           1.188
 91  6  6 18 55 44.9960000  0  3G11G 2G 6
  22591419.777    -8155497.599 6  -6354925.59821        14.000           0.688
  19957091.910   -23637361.504 8 -18418699.47123        28.250           2.594
  21074728.277   -16756973.043 6 -12878409.56721        19.750           1.188
 91  6  6 18 55 59.9960000  0  3G11G 2G 6
  22595437.981    -8134374.645 6  -6338466.17121        14.000           0.688
  19952057.176   -23663818.989 8 -18439315.68823        28.000           2.656
  21066894.645   -16798136.659 6 -12910485.09821        19.750           1.219
 91  6  6 18 56 14.9960000  0  3G11G 2G 6
  22599480.449    -8113126.789 6  -6321909.42821        13.750           0.688
  19947037.246   -23690198.152 8 -18459870.87423        28.000           2.625
  21059066.348   -16839272.669 6 -12942539.12121        19.750           1.188
 91  6  6 18 56 29.9960000  0  3G11G 2G 6
  22603547.410    -8091758.659 6  -6305258.96421        13.500           0.688
  19942031.473   -23716503.538 8 -18480368.57023        28.250           2.656
  21051242.918   -16880385.275 6 -12974574.90721        19.750           1.156
 91  6  6 18 56 44.9960000  0  3G11G 2G 6
  22607636.559    -8070271.835 6  -6288516.00621        13.000           0.625
  19937039.066   -23742736.349 8 -18500809.71223        28.250           2.500
  21043424.066   -16921475.601 7 -13006593.32921        20.000           1.219
 91  6  6 18 56 59.9960000  0  3G11G 2G 6
  22611746.379    -8048666.914 6  -6271681.02721        13.250           0.688
  19932060.816   -23768896.910 8 -18521194.55923        28.750           2.719
  21035609.738   -16962543.914 7 -13038594.60721        20.000           1.156
 91  6  6 18 57 14.9960000  0  3G11G 2G 6
  22615879.504    -8026943.864 6  -6254754.00221        12.750           0.750
  19927097.645   -23794984.975 8 -18541522.91223        28.750           2.688
  21027799.520   -17003589.882 7 -13070578.46421        20.000           1.156
 91  6  6 18 57 29.9960000  0  3G11G 2G 6
  22620037.441    -8005101.990 6  -6237734.39621        12.750           0.813
  19922146.770   -23820999.521 8 -18561793.98123        28.500           2.719
  21019991.059   -17044612.226 6 -13102543.91821        19.500           1.188
 91  6  6 18 57 44.9960000  0  4G19G11G 2G 6
  20674232.277          -0.20616                        19.250
  22624216.598    -7983141.481 6  -6220622.33921        13.000           0.750
  19917210.731   -23846940.479 8 -18582007.70723        29.000           2.656
  21012189.457   -17085610.644 6 -13134490.72121        19.500           1.156
 91  6  6 18 57 59.9960000  0  4G19G11G 2G 6
  20676965.840       14354.957 6                        19.000
  22628418.785    -7961062.451 6  -6203417.92721        13.250           0.844
  19912287.395   -23872807.745 8 -18602164.01323        29.500           2.688
  21004393.473   -17126584.969 6 -13166418.74521        19.500           1.125
 91  6  6 18 58 14.9960000  0  4G19G11G 2G 6
  20679707.691       28773.499 6        -0.36032        19.500           1.781
  22632641.816    -7938868.490 6  -6186123.96121        13.000           0.844
  19907378.574   -23898604.847 8 -18622265.64523        29.500           2.719
  20996600.301   -17167538.436 6 -13198330.52621        19.500           1.219
 91  6  6 18 58 29.9960000  0  4G19G11G 2G 6
  20682465.738       43257.402 6     11285.76222        19.000           1.781
  22636887.543    -7916558.047 6  -6168739.23621        12.750           0.750
  19902483.098   -23924329.809 8 -18642311.06523        29.500           2.750
  20988812.285   -17208468.932 6 -13230224.40621        19.750           1.156
 91  6  6 18 58 44.9960000  0  4G19G11G 2G 6
  20685233.731       57809.529 6     22625.05722        19.500           1.719
  22641156.379    -7894128.530 6  -6151261.72321        13.000           0.781
  19897602.051   -23949979.756 8 -18662298.03223        29.500           2.656
  20981027.488   -17249373.514 6 -13262098.08321        19.750           1.219
 91  6  6 18 58 59.9960000  0  4G19G11G 2G 6
  20688018.066       72434.729 6     34021.28322        19.250           1.719
  22645445.981    -7871575.314 6  -6133687.81721        13.000           0.719
  19892736.988   -23975549.759 8 -18682222.70823        29.750           2.719
  20973249.254   -17290247.143 6 -13293947.64621        19.500           1.156
 91  6  6 18 59 14.9960000  0  4G19G11G 2G 6
  20690813.254       87129.284 6     45471.55322        19.250           1.750
  22649761.418    -7848902.580 6  -6116020.78521        13.250           0.719
  19887885.785   -24001043.693 8 -18702088.10323        29.750           2.688
  20965475.941   -17331093.560 6 -13325776.01221        19.500           1.156
 91  6  6 18 59 29.9960000  0  4G19G11G 2G 6
  20693623.965      101890.689 6     56973.91222        18.500           1.844
  22654096.707    -7826112.991 6  -6098262.69321        13.000           0.719
  19883048.574   -24026463.995 8 -18721896.12723        29.750           2.594
  20957707.379   -17371915.076 6 -13357584.96721        19.500           1.156
 91  6  6 18 59 44.9960000  0  4G19G11G 2G 6
  20696442.574      116714.362 6     68524.79122        19.250           1.688
  22658456.582    -7803211.526 6  -6080417.43021        13.000           0.781
  19878223.809   -24051815.407 8 -18741650.46923        29.750           2.750
  20949944.004   -17412716.186 6 -13389378.02521        19.500           1.188
 91  6  6 18 59 59.9960000  0  4G19G11G 2G 6
  20699279.082      131605.194 6     80128.00722        18.500           1.719
  22662835.824    -7780193.441 6  -6062481.28721        13.000           0.688
  19873413.840   -24077093.034 8 -18761347.31423        29.750           2.750
  20942185.129   -17453491.698 6 -13421151.14221        19.750           1.219
 91  6  6 19  0 14.9960000  0  4G19G11G 2G 6
  20702121.746      146559.689 6     91780.82622        18.750           1.625
  22667238.895    -7757062.700 6  -6044457.36721        13.250           0.750
  19868616.520   -24102300.474 8 -18780989.46923        29.750           2.750
  20934429.863   -17494245.269 6 -13452907.16221        19.750           1.188
 91  6  6 19  0 29.9960000  0  4G19G11G 2G 6
  20704983.441      161584.446 6    103488.39922        18.500           1.625
  22671662.285    -7733813.058 6  -6026340.79421        13.500           0.750
  19863834.637   -24127431.205 8 -18800571.85323        29.500           2.688
  20926680.996   -17534970.103 7 -13484640.79521        20.000           1.219
 91  6  6 19  0 44.9960000  0  4G19G11G 2G 6
  20707851.746      176667.589 6    115241.46822        18.750           1.594
  22676107.512    -7710456.743 6  -6008141.08521        13.250           0.719
  19859064.551   -24152497.150 8 -18820103.75323        29.500           2.813
  20918934.059   -17575678.102 7 -13516361.30721        20.000           1.188
 91  6  6 19  0 59.9960000  0  4G19G11G 2G 6
  20710734.621      191815.810 6    127045.24622        18.750           1.594
  22680572.340    -7686987.408 6  -5989853.33121        13.250           0.750
  19854308.340   -24177491.611 8 -18839579.95023        29.500           2.813
  20911191.184   -17616362.213 7 -13548063.20721        20.250           1.188
 91  6  6 19  1 14.9960000  0  4G19G11G 2G 6
  20713629.434      207031.056 6    138901.25422        18.250           1.625
  22685062.535    -7663403.425 6  -5971476.22521        13.250           0.719
  19849565.902   -24202412.938 8 -18858999.16123        29.250           2.719
  20903453.871   -17657020.577 7 -13579745.04021        20.000           1.250
 91  6  6 19  1 29.9960000  0  4G19G11G 2G 6
  20716540.410      222308.731 6    150805.90322        17.750           1.594
  22689569.051    -7639709.793 6  -5953013.68221        13.250           0.688
  19844836.551   -24227265.684 8 -18878364.93523        29.250           2.875
  20895721.746   -17697657.674 7 -13611410.30121        20.250           1.313
 91  6  6 19  1 44.9960000  0  4G19G11G 2G 6
  20719456.191      237649.859 6    162759.99721        17.750           1.469
  22694099.160    -7615905.679 6  -5934465.05721        13.250           0.625
  19840120.707   -24252048.752 8 -18897676.41023        29.000           2.844
  20887994.160   -17738272.231 7 -13643057.99921        20.000           1.188
 91  6  6 19  1 59.9960000  0  4G19G11G 2G 6
  20722389.551      253056.123 6    174764.84622        17.500           1.563
  22698651.949    -7591989.694 6  -5915829.24821        13.250           0.719
  19835417.731   -24276760.681 8 -18916932.45023        29.250           2.813
  20880269.082   -17778862.545 7 -13674686.80721        20.250           1.375
 91  6  6 19  2 14.9960000  0  4G19G11G 2G 6
  20725333.004      268535.463 6    186826.64522        17.750           1.594
  22703224.754    -7567954.157 6  -5897100.28221        13.000           0.656
  19830731.184   -24301393.311 8 -18936126.70523        29.500           2.938
  20872551.145   -17819420.428 7 -13706290.34521        20.250           1.250
 91  6  6 19  2 29.9960000  0  4G19G11G 2G 6
  20728293.988      284080.362 6    198939.52222        17.500           1.563
  22707817.012    -7543806.823 6  -5878284.21021        13.250           0.688
  19826056.215   -24325954.154 8 -18955265.01823        29.250           2.906
  20864838.473   -17859953.224 7 -13737874.32921        20.250           1.250
 91  6  6 19  2 44.9960000  0  4G19G11G 2G 6
  20731262.848      299689.219 6    211102.23922        17.750           1.531
  22712434.676    -7519549.832 6  -5859382.69421        13.500           0.719
  19821396.559   -24350445.198 8 -18974348.94423        29.000           2.906
  20857128.223   -17900462.648 7 -13769440.10521        20.000           1.344
 91  6  6 19  2 59.9960000  0  4G19G11G 2G 6
  20734247.598      315365.687 6    223317.64322        17.000           1.563
  22717071.106    -7495179.852 6  -5840393.11821        13.000           0.688
  19816749.629   -24374862.778 8 -18993375.62323        29.000           2.875
  20849425.762   -17940944.845 7 -13800984.67121        20.250           1.281
 91  6  6 19  3 14.9960000  0  4G19G11G 2G 6
  20737239.449      331100.205 6    235578.27422        17.750           1.594
  22721728.871    -7470706.554 6  -5821323.03721        13.250           0.625
  19812115.832   -24399216.480 8 -19012352.53423        29.250           2.875
  20841725.309   -17981409.199 7 -13832515.33221        20.250           1.344
 91  6  6 19  3 29.9960000  0  4G19G11G 2G 6
  20740247.895      346901.553 6    247890.98522        17.250           1.625
  22726409.254    -7446121.581 6  -5802165.94521        13.250           0.594
  19807494.535   -24423497.526 8 -19031272.82423        29.250           2.906
  20834030.496   -18021846.841 7 -13864025.17221        20.250           1.250
 91  6  6 19  3 44.9960000  0  4G19G11G 2G 6
  20743266.160      362768.680 6    260254.95122        17.500           1.531
  22731106.090    -7421426.275 6  -5782922.86921        13.500           0.594
  19802888.324   -24447706.877 8 -19050137.24923        29.500           2.875
  20826340.332   -18062258.771 7 -13895514.98121        20.000           1.250
 91  6  6 19  3 59.9960000  0  4G19G11G 2G 6
  20746299.645      378705.140 6    272672.93722        16.750           1.656
  22735827.356    -7396617.601 6  -5763591.46121        13.250           0.656
  19798295.191   -24471841.258 8 -19068943.25523        29.000           2.875
  20818656.027   -18102641.384 7 -13926981.93821        20.250           1.469
 91  6  6 19  4 14.9960000  0  4G19G11G 2G 6
  20749345.402      394712.340 6    285146.04722        17.250           1.563
  22740569.316    -7371694.539 6  -5744170.91521        13.250           0.594
  19793717.566   -24495899.270 8 -19087689.75523        29.000           2.969
  20810976.824   -18142992.996 7 -13958424.75221        20.000           1.406
 91  6  6 19  4 29.9960000  0  4G19G11G 2G 6
  20752403.121      410782.630 6    297668.32422        16.750           1.594
  22745335.488    -7346664.854 6  -5724667.28921        14.000           0.625
  19789151.637   -24519888.586 8 -19106382.72723        28.750           2.969
  20803303.004   -18183321.031 7 -13989849.18621        20.250           1.250
 91  6  6 19  4 44.9960000  0  4G19G11G 2G 6
  20755474.590      426921.445 6    310243.99322        17.500           1.563
  22750118.949    -7321523.534 6  -5705076.68121        13.750           0.625
  19784601.793   -24543803.893 8 -19125018.02623        29.000           2.969
  20795634.590   -18223620.077 7 -14021251.03021        20.500           1.406
 91  6  6 19  4 59.9960000  0  4G19G11G 2G 6
  20758558.191      443122.488 6    322868.15422        16.750           1.563
  22754923.691    -7296277.142 6  -5685404.19321        13.750           0.656
  19780063.215   -24567651.487 8 -19143600.56623        29.000           2.938
  20787969.231   -18263896.259 7 -14052635.06021        20.000           1.438
 91  6  6 19  5 14.9960000  0  4G19G11G 2G 6
  20761652.262      459387.908 6    335542.47522        17.250           1.625
  22759745.926    -7270923.946 6  -5665648.47621        14.000           0.594
  19775538.309   -24591429.244 8 -19162128.68623        29.000           3.031
  20780310.457   -18304147.221 7 -14083999.43421        20.250           1.375
 91  6  6 19  5 29.9960000  0  4G19G11G 2G 6
  20764759.191      475714.884 6    348264.76222        17.000           1.594
  22764590.754    -7245466.938 6  -5645811.86221        14.000           0.531
  19771026.402   -24615140.125 8 -19180604.69823        29.000           3.000
  20772654.793   -18344375.907 7 -14115346.45421        20.250           1.375
 91  6  6 19  5 44.9960000  0  4G19G11G 2G 6
  20767879.012      492112.790 6    361042.31622        17.250           1.625
  22769455.606    -7219897.031 6  -5625887.29521        14.000           0.594
  19766529.449   -24638774.613 8 -19199021.18023        28.750           2.969
  20765005.770   -18384572.482 7 -14146668.44822        20.250           1.500
 91  6  6 19  5 59.9960000  0  4G19G11G 2G 6
  20771011.856      508572.496 6    373868.02322        17.000           1.656
  22774341.723    -7194223.751 6  -5605882.16321        14.250           0.625
  19762044.902   -24662341.796 8 -19217385.21423        29.000           3.094
  20757360.754   -18424746.100 7 -14177972.55822        20.750           1.500
 91  6  6 19  6 14.9960000  0  4G19G11G 2G 6
  20774156.191      525101.622 6    386747.84222        17.250           1.531
  22779249.129    -7168439.796 6  -5585790.79321        14.000           0.500
  19757573.731   -24685834.350 8 -19235691.10023        28.750           2.969
  20749722.809   -18464889.057 7 -14209252.77621        20.750           1.438
 91  6  6 19  6 29.9960000  0  4G19G11G 2G 6
  20777317.840      541691.094 6    399674.66522        16.500           1.594
  22784174.551    -7142554.650 6  -5565620.58221        14.250           0.594
  19753115.270   -24709261.419 8 -19253945.96023        29.000           3.000
  20742088.113   -18505010.186 7 -14240515.98621        21.000           1.406
 91  6  6 19  6 44.9960000  0  4G19G11G 2G 6
  20780484.496      558345.801 6    412652.32322        17.250           1.531
  22789122.387    -7116563.633 6  -5545367.86821        14.250           0.531
  19748671.020   -24732618.049 8 -19272145.93123        29.000           3.063
  20734458.246   -18545104.383 7 -14271758.20522        21.000           1.500
 91  6  6 19  6 59.9960000  0  4G19G11G 2G 6
  20783667.691      575062.878 6    425678.58622        16.750           1.594
  22794089.035    -7090469.923 6  -5525035.13421        14.250           0.563
  19744240.152   -24755907.124 8 -19290293.26223        28.750           3.000
  20726833.066   -18585174.577 7 -14302981.73021        21.000           1.469
 91  6  6 19  7 14.9960000  0  4G19G11G 2G 6
  20786856.621      591833.905 6    438746.88322        17.750           1.563
  22799069.910    -7064282.406 6  -5504629.30821        14.250           0.594
  19739818.863   -24779137.251 8 -19308394.66123        28.500           2.938
  20719210.707   -18625229.048 7 -14334193.00122        21.500           1.500
 91  6  6 19  7 29.9960000  0  4G19G11G 2G 6
  20790061.762      608664.753 6    451861.79322        16.500           1.594
  22804074.324    -7037995.422 6  -5484145.97621        14.250           0.500
  19735410.410   -24802302.556 8 -19326445.55023        28.500           3.031
  20711592.434   -18665261.552 7 -14365387.14922        21.250           1.531
 91  6  6 19  7 44.9960000  0  4G19G11G 2G 6
  20793272.965      625556.347 6    465024.03522        17.250           1.500
  22809093.879    -7011608.343 6  -5463584.64821        14.000           0.500
  19731015.168   -24825402.164 8 -19344445.24523        28.500           3.000
  20703978.473   -18705271.240 7 -14396563.52322        21.250           1.500
 91  6  6 19  7 59.9960000  0  4G19G11G 2G 6
  20796502.496      642518.035 6    478240.89922        17.000           1.563
  22814134.863    -6985112.272 6  -5442938.39521        14.250           0.469
  19726633.949   -24848426.678 8 -19362386.42723        28.250           3.031
  20696370.918   -18745248.580 7 -14427714.69022        21.500           1.594
 91  6  6 19  8 14.9960000  0  4G19G11G 2G 6
  20799741.012      659546.934 6    491510.13222        17.250           1.500
  22819198.777    -6958510.361 6  -5422209.67121        14.250           0.500
  19722266.277   -24871378.887 8 -19380271.26323        28.250           3.031
  20688768.824   -18785196.274 7 -14458842.75822        21.500           1.594
 91  6  6 19  8 29.9960000  0  4G19G11G 2G 6
  20802993.629      676634.294 6    504824.91322        17.250           1.594
  22824281.512    -6931811.720 6  -5401405.55321        14.250           0.344
  19717910.285   -24894267.826 8 -19398106.80023        28.250           2.969
  20681171.543   -18825123.005 7 -14489954.48622        21.500           1.594
 91  6  6 19  8 44.9960000  0  4G19G11G 2G 6
  20806256.684      693781.665 6    518186.46622        17.750           1.563
  22829375.551    -6905015.278 6  -5380525.25421        13.750           0.406
  19713566.668   -24917092.032 8 -19415891.89223        28.000           3.000
  20673578.699   -18865027.079 7 -14521048.56222        21.500           1.563
 91  6  6 19  8 59.9960000  0  4G19G11G 2G 6
  20809535.613      710995.568 6    531599.85721        16.750           1.469
  22834496.660    -6878114.727 6  -5359563.81821        13.750           0.438
  19709236.301   -24939844.948 8 -19433621.43523        28.000           2.938
  20665991.223   -18904901.772 7 -14552119.74222        21.750           1.656
 91  6  6 19  9 14.9960000  0  4G19G11G 2G 6
  20812819.848      728276.961 6    545065.83622        17.500           1.531
  22839637.129    -6851109.262 6  -5338520.62321        14.250           0.375
  19704920.941   -24962525.689 8 -19451294.73723        28.000           3.000
  20658409.121   -18944746.065 7 -14583167.23122        21.750           1.594
 91  6  6 19  9 29.9960000  0  4G19G11G 2G 6
  20816126.684      745627.759 6    558585.90022        16.500           1.500
  22844796.426    -6823997.337 6  -5317394.46921        14.500           0.500
  19700618.895   -24985132.357 7 -19468910.31823        27.750           3.000
  20650831.973   -18984557.653 7 -14614189.24022        21.750           1.531
 91  6  6 19  9 44.9960000  0  4G19G11G 2G 6
  20819435.996      763041.090 6    572154.68722        17.500           1.563
  22849976.066    -6796786.289 6  -5296191.09721        14.250           0.406
  19696330.856   -25007671.730 7 -19486473.46223        27.750           2.906
  20643261.395   -19024343.324 7 -14645191.05322        21.500           1.531
 91  6  6 19  9 59.9960000  0  4G19G11G 2G 6
  20822763.965      780515.384 6    585770.97922        16.750           1.625
  22855169.504    -6769477.986 6  -5274911.92521        13.750           0.531
  19692053.723   -25030145.600 8 -19503985.56523        28.250           3.031
  20635694.824   -19064104.611 7 -14676173.86522        21.500           1.563
 91  6  6 19 10 14.9960000  0  4G19G11G 2G 6
  20826098.785      798052.139 6    599435.94122        17.500           1.500
  22860382.363    -6742071.316 6  -5253556.11221        13.250           0.438
  19687789.426   -25052552.599 8 -19521445.55523        28.000           3.000
  20628134.051   -19103839.838 7 -14707136.36722        21.500           1.719
 91  6  6 19 10 29.9960000  0  4G19G11G 2G 6
  20829448.488      815651.330 6    613149.55221        17.250           1.469
  22865620.481    -6714566.592 6  -5232123.88821        13.750           0.469
  19683538.191   -25074892.680 8 -19538853.41023        28.000           2.938
  20620576.934   -19143548.973 7 -14738078.53722        21.250           1.625
 91  6  6 19 10 44.9960000  0  4G19G11G 2G 6
  20832807.941      833314.877 6    626913.31622        17.500           1.500
  22870873.965    -6686962.092 6  -5210613.91321        13.500           0.313
  19679301.191   -25097163.847 7 -19556207.55923        27.750           3.031
  20613025.941   -19183229.931 7 -14768998.75722        21.250           1.594
 91  6  6 19 10 59.9960000  0  4G19G11G 2G 6
  20836183.707      851042.695 6    640727.15722        17.000           1.563
  22876145.941    -6659258.392 6  -5189026.65521        13.250           0.563
  19675075.231   -25119366.479 7 -19573508.31123        27.750           3.000
  20605481.051   -19222882.414 7 -14799896.79022        21.500           1.656
 91  6  6 19 11 14.9960000  0  4G19G11G 2G 6
  20839569.481      868840.707 6    654595.69522        17.750           1.531
  22881434.004    -6631449.830 6  -5167357.67621        13.000           0.406
  19670864.645   -25141494.559 7 -19590750.96723        27.500           2.969
  20597941.574   -19262500.547 7 -14830768.05722        21.250           1.719
 91  6  6 19 11 29.9960000  0  4G19G11G 2G 6
  20842969.512      886705.741 6    668516.45722        17.250           1.500
  22886747.074    -6603539.864 6  -5145609.69221        13.000           0.406
  19666668.520   -25163551.205 7 -19607937.96323        27.500           2.906
  20590408.137   -19302087.408 7 -14861614.95622        21.500           1.625
 91  6  6 19 11 44.9960000  0  4G19G11G 2G 6
  20846380.957      904633.731 6    682486.27822        17.500           1.500
  22892074.473    -6575532.860 6  -5123786.08821        13.000           0.406
  19662482.449   -25185540.578 7 -19625072.54023        27.500           2.906
  20582881.660   -19341646.690 7 -14892440.36822        21.500           1.688
 91  6  6 19 11 59.9960000  0  4G19G11G 2G 6
  20849805.293      922622.897 6    696503.76921        16.750           1.438
  22897423.027    -6547431.082 6  -5101888.62421        13.500           0.406
  19658311.027   -25207464.514 7 -19642156.12423        27.500           2.875
  20575356.777   -19381180.062 7 -14923245.59222        21.500           1.719
 91  6  6 19 12 14.9960000  0  4G19G11G 2G 6
  20853239.731      940682.708 6    710576.30221        17.250           1.375
  22902791.152    -6519225.179 6  -5079910.03621        13.500           0.375
  19654152.949   -25229313.406 7 -19659181.23123        27.250           2.875
  20567842.402   -19420677.914 7 -14954023.13422        21.750           1.500
 91  6  6 19 12 29.9960000  0  4G19G11G 2G 6
  20856692.941      958810.249 6    724701.61121        17.000           1.344
  22908178.231    -6490918.512 6  -5057852.91521        13.750           0.313
  19650009.410   -25251090.512 7 -19676150.40323        27.250           2.938
  20560330.613   -19460143.176 7 -14984775.28522        21.500           1.656
 91  6  6 19 12 44.9960000  0  4G19G11G 2G 6
  20860153.270      977009.693 6    738882.95321        17.500           1.438
  22913583.215    -6462507.375 6  -5035714.39721        13.750           0.344
  19645878.824   -25272791.882 7 -19693060.56023        27.000           2.844
  20552828.996   -19499571.434 7 -15015498.59922        21.500           1.594
 91  6  6 19 12 59.9960000  0  4G19G11G 2G 6
  20863631.691      995280.906 6    753120.21421        16.750           1.469
  22919011.949    -6433992.215 6  -5013494.83321        14.000           0.313
  19641764.137   -25294417.606 7 -19709911.77123        27.000           2.906
  20545332.426   -19538962.772 7 -15046193.14722        21.500           1.656
 91  6  6 19 13 14.9960000  0  4G19G11G 2G 6
  20867117.770     1013611.072 6    767403.41821        17.250           1.406
  22924454.574    -6405386.099 6  -4991204.38221        13.750           0.344
  19637661.184   -25315980.476 7 -19726714.00523        27.000           2.875
  20537841.551   -19578329.791 7 -15076868.74222        21.250           1.594
 91  6  6 19 13 29.9960000  0  4G19G11G 2G 6
  20870619.707     1032009.848 6    781740.07621        17.250           1.406
  22929916.738    -6376679.735 6  -4968835.81821        13.750           0.438
  19633571.652   -25337470.903 7 -19743459.79123        27.000           2.813
  20530356.027   -19617662.502 7 -15107517.60122        21.000           1.563
 91  6  6 19 13 44.9960000  0  4G19G11G 2G 6
  20874134.543     1050478.380 6    796131.09221        17.000           1.344
  22935401.668    -6347872.229 6  -4946388.45721        14.000           0.281
  19629495.816   -25358887.714 7 -19760148.21423        27.250           2.813
  20522878.574   -19656959.545 7 -15138138.67122        20.750           1.625
 91  6  6 19 13 59.9960000  0  4G19G11G 2G 6
  20877663.106     1069012.947 6    810573.56622        16.750           1.500
  22940900.629    -6318967.799 6  -4923865.53221        14.000           0.313
  19625433.863   -25380234.543 7 -19776782.10723        27.000           2.844
  20515407.027   -19696224.758 7 -15168734.93622        21.000           1.656
 91  6  6 19 14 14.9960000  0  4G19G11G 2G 6
  20881202.145     1087622.933 6    825074.81021        17.250           1.344
  22946418.684    -6289957.327 6  -4901260.01321        13.750           0.344
  19621387.254   -25401502.223 7 -19793354.32023        27.000           2.719
  20507941.551   -19735448.407 7 -15199298.80922        21.000           1.625
 91  6  6 19 14 29.9960000  0  4G19G11G 2G 6
  20884758.090     1106296.031 6    839625.23021        16.500           1.438
  22951958.012    -6260853.234 6  -4878581.54021        13.750           0.375
  19617351.645   -25422702.959 7 -19809874.37423        27.000           2.688
  20500484.215   -19774642.654 7 -15229839.77922        21.000           1.594
 91  6  6 19 14 44.9960000  0  4G19G11G 2G 6
  20888322.395     1125037.031 6    854228.55921        17.500           1.344
  22957515.723    -6231651.262 6  -4855826.77221        13.750           0.375
  19613331.410   -25443832.027 7 -19826338.58423        27.000           2.750
  20493032.848   -19813802.685 7 -15260354.07622        21.250           1.688
 91  6  6 19 14 59.9960000  0  4G19G11G 2G 6
  20891902.168     1143837.883 6    868878.53421        16.750           1.375
  22963088.981    -6202359.770 6  -4833002.27321        14.000           0.344
  19609323.426   -25464897.439 7 -19842753.18923        27.000           2.719
  20485585.676   -19852936.124 7 -15290847.66222        21.750           1.625
 91  6  6 19 15 14.9960000  0  4G19G11G 2G 6
  20895491.316     1162706.364 6    883581.20421        17.500           1.344
  22968684.770    -6172971.276 6  -4810102.18621        14.000           0.406
  19605328.051   -25485891.631 7 -19859112.29923        26.750           2.719
  20478145.160   -19892035.245 7 -15321314.50122        21.500           1.656
 91  6  6 19 15 29.9960000  0  4G19G11G 2G 6
  20899095.449     1181640.283 6    898334.86421        16.500           1.469
  22974293.418    -6143488.489 6  -4787128.59921        13.750           0.375
  19601346.043   -25506816.909 7 -19875417.71023        27.250           2.781
  20470710.863   -19931102.161 7 -15351756.25022        21.750           1.594
 91  6  6 19 15 44.9960000  0  4G19G11G 2G 6
  20902710.293     1200642.212 6    913141.51021        17.250           1.406
  22979920.043    -6113909.091 6  -4764079.76121        13.500           0.344
  19597377.895   -25527670.678 7 -19891667.39923        27.000           2.656
  20463283.856   -19970133.966 7 -15382170.63622        21.500           1.688
 91  6  6 19 15 59.9960000  0  4G19G11G 2G 6
  20906338.715     1219708.475 6    927998.29621        16.750           1.375
  22985567.356    -6084237.030 6  -4740958.70621        13.750           0.344
  19593422.059   -25548456.516 7 -19907864.15323        27.250           2.688
  20455861.941   -20009134.038 7 -15412560.28922        21.500           1.656
 91  6  6 19 16 14.9960000  0  4G19G11G 2G 6
  20909978.309     1238837.258 6    942903.79321        17.500           1.344
  22991230.941    -6054474.405 6  -4717767.08521        13.750           0.375
  19589479.277   -25569176.369 7 -19924009.49323        27.250           2.750
  20448446.371   -20048104.143 7 -15442926.59822        21.500           1.656
 91  6  6 19 16 29.9960000  0  4G19G11G 2G 6
  20913632.684     1258035.319 6    957863.27221        16.750           1.375
  22996911.254    -6024614.789 6  -4694499.89521        13.500           0.344
  19585550.715   -25589823.558 7 -19940098.21023        27.250           2.594
  20441037.621   -20087037.193 7 -15473264.03022        21.750           1.656
 91  6  6 19 16 44.9960000  0  4G19G11G 2G 6
  20917296.918     1277298.328 6    972873.35721        17.250           1.406
  23002611.629    -5994662.781 6  -4671160.70921        13.500           0.250
  19581634.629   -25610402.152 7 -19956133.47823        27.500           2.625
  20433634.613   -20125937.441 7 -15503575.90422        21.500           1.656
 91  6  6 19 16 59.9960000  0  4G19G11G 2G 6
  20920975.191     1296621.884 6    987930.62021        16.250           1.406
  23008330.402    -5964623.163 6  -4647753.25521        13.750           0.344
  19577730.723   -25630916.793 7 -19972118.91523        27.250           2.656
  20426237.426   -20164809.084 7 -15533865.48622        21.500           1.656
 91  6  6 19 17 14.9960000  0  4G19G11G 2G 6
  20924664.668     1316014.710 6   1003041.86121        17.000           1.406
  23014062.488    -5934487.616 6  -4624271.05621        13.500           0.281
  19573840.691   -25651358.796 7 -19988047.75123        27.250           2.656
  20418847.699   -20203643.360 7 -15564125.94722        21.500           1.625
 91  6  6 19 17 29.9960000  0  4G19G11G 2G 6
  20928368.527     1335472.929 6   1018204.06421        16.500           1.406
  23019815.270    -5904260.126 6  -4600717.21121        13.750           0.313
  19569963.738   -25671731.970 7 -20003922.95123        27.250           2.688
  20411464.316   -20242443.692 7 -15594359.96722        21.750           1.531
 91  6  6 19 17 44.9960000  0  4G19G11G 2G 6
  20932083.199     1354996.372 6   1033417.08921        16.750           1.219
  23025585.606    -5873941.356 6  -4577092.23021        13.500           0.219
  19566100.231   -25692036.606 7 -20019744.74623        27.000           2.625
  20404087.379   -20281210.264 7 -15624567.67222        21.250           1.719
 91  6  6 19 17 59.9960000  0  4G19G11G 2G 6
  20935810.785     1374582.307 6   1048678.80821        16.750           1.375
  23031372.762    -5843534.405 6  -4553398.52421        13.500           0.281
  19562248.738   -25712275.486 7 -20035515.30123        27.250           2.688
  20396716.715   -20319945.703 7 -15654751.12322        21.500           1.688
 91  6  6 19 18 14.9960000  0  4G19G11G 2G 6
  20939549.223     1394236.082 6   1063993.38821        16.750           1.406
  23037174.363    -5813034.196 6  -4529632.16121        13.250           0.281
  19558410.543   -25732443.450 7 -20051230.60323        27.250           2.688
  20389351.449   -20358644.327 7 -15684905.88322        21.500           1.594
 91  6  6 19 18 29.9960000  0  4G19G11G 2G 6
  20943304.285     1413955.984 6   1079359.49521        16.500           1.406
  23042997.223    -5782442.768 6  -4505794.73021        13.250           0.156
  19554586.113   -25752542.140 7 -20066891.91723        27.250           2.625
  20381995.285   -20397307.701 7 -15715033.17822        21.500           1.563
 91  6  6 19 18 44.9960000  0  4G19G11G 2G 6
  20947068.066     1433739.169 6   1094774.91821        16.750           1.438
  23048836.762    -5751763.164 6  -4481888.57321        13.250           0.219
  19550774.941   -25772574.237 7 -20082501.34023        27.000           2.594
  20374642.668   -20435938.505 7 -15745135.09122        21.250           1.688
 91  6  6 19 18 59.9960000  0  4G19G11G 2G 6
  20950846.598     1453583.733 6   1110238.16122        16.000           1.563
  23054689.590    -5720997.910 6  -4457915.67021        13.250           0.219
  19546974.793   -25792541.912 7 -20098060.57023        27.500           2.719
  20367297.410   -20474538.521 7 -15775213.01622        21.500           1.688
 91  6  6 19 19 14.9960000  0  4G19G11G 2G 6
  20954632.496     1473496.672 6   1125754.68921        16.750           1.375
  23060560.840    -5690140.347 6  -4433870.85721        13.500           0.313
  19543188.848   -25812438.241 7 -20113564.20023        27.750           2.656
  20359960.059   -20513100.568 7 -15805261.35022        21.500           1.656
 91  6  6 19 19 29.9960000  0  4G19G11G 2G 6
  20958437.145     1493478.868 6   1141325.18221        15.750           1.438
  23066450.637    -5659189.750 6  -4409753.53821        12.750           0.344
  19539415.832   -25832262.081 7 -20129011.34723        27.750           2.563
  20352629.895   -20551623.442 7 -15835279.16322        21.750           1.688
 91  6  6 19 19 44.9960000  0  4G19G11G 2G 6
  20962249.816     1513523.807 6   1156944.56121        16.750           1.375
  23072358.731    -5628153.053 6  -4385569.12721        12.750           0.344
  19535656.012   -25852020.051 8 -20144407.16523        28.000           2.750
  20345305.777   -20590113.490 7 -15865271.40022        22.000           1.750
 91  6  6 19 19 59.9960000  0  4G19G11G 2G 6
  20966080.379     1533633.067 6   1172614.06322        15.750           1.531
  23078282.207    -5597029.115 6  -4361316.75521        13.000           0.344
  19531908.481   -25871710.896 8 -20159750.67823        28.000           2.594
  20337987.488   -20628569.186 7 -15895236.86722        22.250           1.625
 91  6  6 19 20 14.9960000  0  4G19G11G 2G 6
  20969919.582     1553829.178 6   1188351.24521        16.500           1.438
  23084220.699    -5565795.515 6  -4336978.90821        12.500           0.219
  19528179.418   -25891312.036 8 -20175024.29023        28.250           2.688
  20330680.316   -20666967.625 7 -15925157.72022        22.000           1.594
 91  6  6 19 20 29.9960000  0  4G19G11G 2G 6
  20973777.270     1574093.182 6   1204141.32421        16.000           1.375
  23090186.082    -5534471.655 6  -4312570.74221        12.500           0.344
  19524462.613   -25910842.507 8 -20190242.82823        28.500           2.625
  20323380.090   -20705327.639 7 -15955048.63222        22.000           1.656
 91  6  6 19 20 44.9960000  0  4G19G11G 2G 6
  20977645.238     1594427.957 6   1219986.55521        16.500           1.344
  23096163.934    -5503055.018 6  -4288090.28721        12.500           0.375
  19520760.113   -25930299.339 8 -20205403.99323        28.250           2.563
  20316089.191   -20743646.197 7 -15984907.23722        22.000           1.688
 91  6  6 19 20 59.9960000  0  4G19G11G 2G 6
  20981526.918     1614823.527 6   1235879.15721        16.500           1.281
  23102162.004    -5471555.840 6  -4263545.51821        12.750           0.313
  19517069.449   -25949692.555 8 -20220515.58423        28.250           2.625
  20308803.238   -20781932.927 7 -16014741.05222        22.000           1.656
 91  6  6 19 21 14.9960000  0  4G19G11G 2G 6
  20985419.371     1635281.393 6   1251820.30821        17.000           1.250
  23108166.145    -5439972.987 6  -4238935.54721        12.250           0.375
  19513391.840   -25969020.773 8 -20235576.52823        28.750           2.656
  20301523.301   -20820186.211 7 -16044548.79922        22.000           1.656
 91  6  6 19 21 29.9960000  0  4G19G11G 2G 6
  20989327.754     1655802.973 6   1267811.10521        16.000           1.156
  23114192.035    -5408305.368 6  -4214259.51221        12.000           0.375
  19509726.356   -25988282.592 8 -20250585.73423        28.500           2.688
  20294250.371   -20858404.410 7 -16074329.20322        22.000           1.625
 91  6  6 19 21 44.9960000  0  4G19G11G 2G 6
  20993243.309     1676397.998 6   1283859.12721        16.500           1.313
  23120238.106    -5376543.763 6  -4189510.25521        12.000           0.281
  19506075.231   -26007468.408 8 -20265535.71623        28.750           2.688
  20286987.277   -20896577.830 7 -16104074.72022        22.000           1.719
 91  6  6 19 21 59.9960000  0  4G19G11G 2G 6
  20997179.371     1697054.773 6   1299955.26121        15.250           1.281
  23126299.387    -5344700.081 6  -4164697.03121        12.250           0.344
  19502436.809   -26026589.860 8 -20280435.54723        28.750           2.656
  20279728.887   -20934717.712 7 -16133794.10122        22.000           1.656
 91  6  6 19 22 14.9960000  0  4G19G11G 2G 6
  21001117.371     1717769.620 6   1316096.65621        16.750           1.219
  23132370.535    -5312778.091 6  -4139822.79721        12.000           0.344
  19498810.152   -26045650.355 8 -20295287.87123        29.250           2.625
  20272478.254   -20972827.580 7 -16163490.09122        22.000           1.656
 91  6  6 19 22 29.9960000  0  4G19G11G 2G 6
  21005074.113     1738549.003 6   1332288.33521        15.750           1.281
  23138465.020    -5280771.684 6  -4114882.77921        12.000           0.313
  19495195.027   -26064643.497 8 -20310087.71723        28.750           2.750
  20265232.934   -21010900.631 7 -16193157.39622        22.250           1.688
 91  6  6 19 22 44.9960000  0  4G19G11G 2G 6
  21009038.590     1759397.271 6   1348533.68821        16.750           1.188
  23144567.059    -5248677.095 5  -4089874.04021        11.500           0.281
  19491594.723   -26083565.319 8 -20324831.99123        28.750           2.500
  20257994.246   -21048932.450 7 -16222792.57622        22.250           1.781
 91  6  6 19 22 59.9960000  0  4G19G11G 2G 6
  21013018.379     1780307.753 6   1364827.52321        16.250           1.281
  23150696.270    -5216501.222 5  -4064801.97921        11.750           0.313
  19488005.981   -26102422.411 8 -20339525.82623        28.750           2.750
  20250764.574   -21086929.625 7 -16252400.75822        22.250           1.688
 91  6  6 19 23 14.9960000  0  4G19G11G 2G 6
  21017006.809     1801277.695 6   1381167.69121        16.500           1.250
  23156833.121    -5184247.013 5  -4039668.86221        11.250           0.344
  19484429.395   -26121217.367 8 -20354171.24023        29.000           2.625
  20243539.090   -21124894.533 7 -16281983.79622        22.500           1.656
 91  6  6 19 23 29.9960000  0  4G19G11G 2G 6
  21021011.496     1822312.808 6   1397558.63021        16.000           1.125
  23162985.856    -5151909.439 5  -4014470.80421        11.000           0.313
  19480865.738   -26139944.955 8 -20368764.16323        29.000           2.625
  20236322.707   -21162821.540 7 -16311537.30022        22.250           1.594
 91  6  6 19 23 44.9960000  0  4G19G11G 2G 6
  21025024.488     1843409.149 6   1413997.28521        16.250           1.094
  23169153.871    -5119492.672 5  -3989211.01321        11.000           0.219
  19477314.324   -26158609.002 8 -20383307.57323        28.750           2.719
  20229111.590   -21200714.382 7 -16341064.18522        22.250           1.719
 91  6  6 19 23 59.9960000  0  4G19G11G 2G 6
  21029053.012     1864571.312 6   1430487.23021        16.000           1.125
  23175337.035    -5086992.315 5  -3963886.11821        10.750           0.250
  19473775.746   -26177204.791 8 -20397797.79023        29.000           2.719
  20221908.574   -21238568.033 7 -16370560.52722        22.250           1.688
 91  6  6 19 24 14.9960000  0  4G19G11G 2G 6
  21033092.504     1885802.935 6   1447031.29621        16.250           1.188
  23181540.277    -5054405.109 5  -3938493.51621        10.750           0.250
  19470250.848   -26195728.637 8 -20412231.95123        29.500           2.688
  20214712.199   -21276378.612 7 -16400023.31122        22.000           1.719
 91  6  6 19 24 29.9960000  0  4G19G11G 2G 6
  21037147.895     1907104.518 6   1463629.88521        16.000           1.156
  23187759.082    -5021730.747 5  -3913033.02021        11.250           0.250
  19466739.332   -26214180.062 8 -20426609.67723        29.250           2.688
  20207526.941   -21314145.434 7 -16429451.99522        22.250           1.781
 91  6  6 19 24 44.9960000  0  4G19G11G 2G 6
  21041211.309     1928470.256 6   1480278.45821        16.250           1.094
  23193991.824    -4988975.529 5  -3887509.50321        11.250           0.219
  19463240.981   -26232565.087 8 -20440935.66623        29.250           2.688
  20200345.856   -21351874.139 7 -16458850.98322        22.250           1.688
 91  6  6 19 24 59.9960000  0  4G19G11G 2G 6
  21045290.395     1949897.141 6   1496974.67721        15.500           1.219
  23200236.848    -4956142.643 5  -3861925.47521        11.250           0.188
  19459753.949   -26250886.561 8 -20455212.13323        29.500           2.625
  20193174.801   -21389567.441 7 -16488222.38022        22.250           1.719
 91  6  6 19 25 14.9960000  0  4G19G11G 2G 6
  21049378.215     1971384.004 6   1513717.63921        15.750           1.156
  23206503.598    -4923233.579 5  -3836282.08921        11.750           0.313
  19456280.043   -26269145.687 8 -20469440.01923        29.250           2.750
  20186006.996   -21427226.378 7 -16517566.99722        22.250           1.719
 91  6  6 19 25 29.9960000  0  4G19G11G 2G 6
  21053481.184     1992937.853 6   1530512.78921        15.250           1.250
  23212778.926    -4890241.753 5  -3810574.19821        11.250           0.250
  19452818.645   -26287335.429 8 -20483613.83923        29.500           2.656
  20178848.957   -21464843.728 7 -16546879.21622        22.250           1.781
 91  6  6 19 25 44.9960000  0  4G19G11G 2G 6
  21057595.145     2014559.069 6   1547360.42821        15.750           1.000
  23219072.699    -4857167.195 5  -3784801.84921        11.000           0.313
  19449370.262   -26305455.499 8 -20497733.36623        29.750           2.688
  20171699.363   -21502418.920 7 -16576158.57922        22.250           1.656
 91  6  6 19 25 59.9960000  0  4G19G11G 2G 6
  21061720.348     2036242.642 6   1564256.66621        15.750           1.094
  23225381.160    -4824015.106 5  -3758969.10421        10.750           0.219
  19445934.770   -26323511.018 8 -20511802.59523        29.750           2.688
  20164555.684   -21539956.699 7 -16605408.78922        22.250           1.594
 91  6  6 19 26 14.9960000  0  4G19G11G 2G 6
  21065859.957     2057993.601 6   1581205.40021        15.750           1.063
  23231706.020    -4790780.759 5  -3733072.23221        11.000           0.156
  19442512.145   -26341497.023 8 -20525817.66523        30.000           2.688
  20157420.535   -21577451.870 7 -16634625.80122        22.250           1.656
 91  6  6 19 26 29.9960000  0  4G19G11G 2G 6
  21070013.426     2079810.879 6   1598205.82221        15.250           1.094
  23238048.301    -4757465.583 5  -3707112.39621        11.000           0.313
  19439102.293   -26359414.443 8 -20539779.28723        30.000           2.750
  20150294.371   -21614905.241 7 -16663810.23722        22.250           1.750
 91  6  6 19 26 44.9960000  0  4G19G11G 2G 6
  21074176.543     2101691.997 6   1615255.98721        15.500           1.031
  23244398.199    -4724072.341 5  -3681091.73521        10.250           0.281
  19435705.512   -26377265.782 8 -20553689.41923        29.750           2.781
  20143173.277   -21652319.096 7 -16692963.88722        22.250           1.719
 91  6  6 19 26 59.9960000  0  3G19G 2G 6
  21078353.574     2123637.069 6   1632355.98121        15.000           1.031
  19432320.426   -26395051.108 8 -20567548.11023        29.750           2.781
  20136060.910   -21689693.017 7 -16722086.41722        22.250           1.781
 91  6  6 19 27 14.9960000  0  3G19G 2G 6
  21082538.152     2145645.844 6   1649505.61521        15.750           1.031
  19428948.613   -26412770.473 8 -20581355.41123        29.500           2.656
  20128957.652   -21727027.073 7 -16751177.88122        22.000           1.750
 91  6  6 19 27 29.9960000  0  3G19G 2G 6
  21086742.707     2167723.426 6   1666708.86521        15.250           0.969
  19425590.379   -26430418.997 8 -20595107.50523        30.000           2.750
  20121861.738   -21764316.080 7 -16780234.24122        21.750           1.875
 91  6  6 19 27 44.9960000  0  3G19G 2G 6
  21090954.481     2189862.225 6   1683959.81121        16.000           0.938
  19422244.184   -26448004.360 8 -20608810.38723        29.750           2.781
  20114772.598   -21801567.376 7 -16809261.21722        21.750           1.813
 91  6  6 19 27 59.9950000  0  3G19G 2G 6
  21095181.554     2212061.972 6   1701258.25121        15.500           1.000
  19418910.616   -26465524.026 8 -20622462.07423        30.000           2.844
  20107690.733   -21838777.085 7 -16838255.78822        21.750           1.875
 91  6  6 19 28 14.9950000  0  3G19G 2G 6
  21099413.155     2234313.918 6   1718597.36221        15.750           0.938
  19415585.515   -26482992.153 8 -20636073.59823        30.250           2.813
  20100616.343   -21875961.622 7 -16867230.74522        21.750           1.781
 91  6  6 19 28 29.9950000  0  3G19G 2G 6
  21103659.983     2256622.117 6   1735980.30921        15.250           1.000
  19412272.796   -26500402.267 8 -20649639.91923        30.250           2.750
  20093546.437   -21913112.831 7 -16896179.72522        21.750           1.938
 91  6  6 19 28 44.9950000  0  3G19G 2G 6
  21107915.741     2279000.548 6   1753417.98221        15.500           0.938
  19408973.710   -26517740.087 8 -20663149.90323        30.250           2.750
  20086485.882   -21950216.384 7 -16925091.57422        21.750           1.781
 91  6  6 19 28 59.9950000  0  3G19G 2G 6
  21112187.999     2301438.050 6   1770901.68621        15.000           0.906
  19405686.023   -26535017.053 8 -20676612.46523        30.250           2.813
  20079431.835   -21987283.155 7 -16953974.75822        22.000           1.813
 91  6  6 19 29 14.9950000  0  3G19G 2G 6
  21116468.116     2323933.999 6   1788430.92721        15.500           0.938
  19402410.179   -26552233.936 8 -20690028.21923        30.000           2.844
  20072385.757   -22024313.758 7 -16982829.75822        22.000           1.750
 91  6  6 19 29 29.9950000  0  3G19G 2G 6
  21120764.069     2346504.580 6   1806018.33221        15.000           0.844
  19399148.296   -26569374.116 8 -20703384.19623        30.000           2.781
  20065348.077   -22061291.451 7 -17011643.54322        22.000           1.750
 91  6  6 19 29 44.9950000  0  3G19G 2G 6
  21125069.054     2369135.346 6   1823652.62421        15.500           1.000
  19395898.991   -26586452.200 8 -20716691.79023        30.250           2.844
  20058319.179   -22098230.633 7 -17040427.31022        21.750           1.813
 91  6  6 19 29 59.9950000  0  3G19G 2G 6
  21129388.413     2391828.510 6   1841335.54721        15.000           0.938
  19392660.718   -26603465.949 8 -20729949.25523        30.000           2.781
  20051298.233   -22135128.879 7 -17069179.18322        22.000           1.719
 91  6  6 19 30 14.9950000  0  3G19G 2G 6
  21133719.148     2414590.382 6   1859072.00521        15.750           1.000
  19389436.030   -26620408.995 8 -20743151.62423        30.000           2.813
  20044285.874   -22171979.581 7 -17097894.00622        22.000           1.875
 91  6  6 19 30 29.9950000  0  3G19G 2G 6
  21138064.210     2437417.669 6   1876859.43121        15.500           0.938
  19386224.733   -26637284.975 8 -20756301.73623        29.750           2.938
  20037282.804   -22208785.947 7 -17126574.28722        21.750           1.781
 91  6  6 19 30 44.9950000  0  3G19G 2G 6
  21142419.413     2460310.418 6   1894697.87421        15.500           0.969
  19383025.952   -26654093.854 8 -20769399.56223        29.750           2.906
  20030287.015   -22245547.729 7 -17155219.82422        22.000           1.844
 91  6  6 19 30 59.9950000  0  3G19G 2G 6
  21146788.187     2483267.831 6   1912586.70421        15.250           0.875
  19379839.515   -26670836.292 8 -20782445.61223        29.750           2.813
  20023299.593   -22282265.350 7 -17183830.95222        21.750           1.813
 91  6  6 19 31 14.9950000  0  3G19G 2G 6
  21151170.233     2506290.235 6   1930526.17121        15.750           0.938
  19376667.179   -26687512.048 8 -20795439.70823        30.000           2.813
  20016320.523   -22318938.290 7 -17212407.26422        21.750           1.844
 91  6  6 19 31 29.9950000  0  3G19G 2G 6
  21155565.796     2529374.708 6   1948514.00521        14.250           0.906
  19373505.952   -26704123.784 8 -20808383.91523        30.000           2.906
  20009349.507   -22355569.187 7 -17240950.81622        21.750           1.844
 91  6  6 19 31 44.9950000  0  3G19G 2G 6
  21159965.999     2552524.341 6   1966552.61921        15.250           0.844
  19370357.194   -26720668.515 8 -20821275.91223        29.750           2.906
  20002388.296   -22392154.682 7 -17269458.98522        21.750           1.875
 91  6  6 19 31 59.9950000  0  3G19G 2G 6
  21164386.788     2575734.228 6   1984638.18621        14.750           0.844
  19367220.929   -26737151.146 8 -20834119.52223        30.000           2.875
  19995434.280   -22428699.428 7 -17297935.40822        21.750           1.813
 91  6  6 19 32 14.9950000  0  3G19G 2G 6
  21168812.483     2599008.272 6   2002773.73221        15.500           0.938
  19364096.687   -26753568.008 8 -20846911.88223        29.750           2.938
  19988488.483   -22465199.547 7 -17326377.05322        21.500           1.844
 91  6  6 19 32 29.9950000  0  3G19G 2G 6
  21173256.202     2622345.076 6   2020958.18621        14.750           0.813
  19360985.202   -26769920.491 8 -20859654.07723        30.250           2.875
  19981550.023   -22501656.023 7 -17354784.69222        21.750           1.906
 91  6  6 19 32 44.9950000  0  3G19G 2G 6
  21177706.890     2645750.427 6   2039196.06521        15.250           0.875
  19357886.976   -26786202.724 8 -20872341.53223        29.750           2.969
  19974621.999   -22538062.867 7 -17383153.65522        22.000           1.906
 91  6  6 19 32 59.9950000  0  3G19G 2G 6
  21182176.593     2669225.504 6   2057488.27821        14.750           0.813
  19354801.679   -26802413.593 8 -20884973.37923        29.500           2.969
  19967703.585   -22574418.640 7 -17411482.82322        22.000           1.906
 91  6  6 19 33 14.9950000  0  4G19G15G 2G 6
  21186653.562     2692763.872 6   2075829.79521        15.250           0.781
  22913707.757          -0.89715                        10.000
  19351729.765   -26818559.542 8 -20897554.63823        29.500           2.969
  19960794.046   -22610729.531 7 -17439777.01722        22.250           1.969
 91  6  6 19 33 29.9950000  0  4G19G15G 2G 6
  21191145.905     2716363.721 6   2094219.22521        15.000           0.875
  22906292.882      -38968.594 5                        10.250
  19348669.765   -26834642.417 8 -20910086.74923        29.250           2.938
  19953892.382   -22646997.162 7 -17468037.50522        22.250           1.875
 91  6  6 19 33 44.9950000  0  4G19G15G 2G 6
  21195648.929     2740032.544 6   2112662.39421        15.250           0.844
  22898895.788      -77843.617 5                        10.500
  19345622.140   -26850654.669 8 -20922563.82823        29.250           3.031
  19947000.648   -22683213.732 7 -17496258.20222        22.000           1.938
 91  6  6 19 33 59.9950000  0  4G19G15G 2G 6
  21200168.148     2763763.977 6   2131154.36721        14.750           0.906
  22891515.898     -116631.705 5                        11.250
  19342587.726   -26866602.549 8 -20934990.75023        29.250           3.000
  19940117.171   -22719385.439 7 -17524443.94122        21.750           1.906
 91  6  6 19 34 14.9950000  0  4G19G15G 2G 6
  21204692.421     2787560.622 6   2149697.13921        15.250           0.844
  22884147.335     -155330.310 5                        11.250
  19339565.155   -26882483.661 8 -20947365.64223        29.500           2.969
  19933244.655   -22755509.289 7 -17552592.38822        22.000           1.844
 91  6  6 19 34 29.9950000  0  4G19G15G 2G 6
  21209237.374     2811423.230 6   2168291.32321        14.250           0.875
  22876803.116     -193937.924 5        -0.28131        11.750           0.125
  19336556.069   -26898297.000 8 -20959687.72323        29.250           2.969
  19926379.140   -22791584.311 7 -17580702.79022        22.000           1.906
 91  6  6 19 34 44.9950000  0  4G19G15G 2G 6
  21213785.905     2835343.357 6   2186930.31221        15.000           0.969
  22869471.429     -232462.945 5    -30019.72521        11.750           0.188
  19333557.694   -26914051.355 8 -20971963.84423        29.250           3.031
  19919522.030   -22827618.842 7 -17608781.64222        22.250           2.000
 91  6  6 19 34 59.9950000  0  4G19G15G 2G 6
  21218355.648     2859325.402 6   2205617.56921        14.250           0.875
  22862158.358     -270900.361 6    -59970.90821        12.250           0.156
  19330572.319   -26929742.261 8 -20984190.52623        29.000           2.969
  19912672.233   -22863608.182 7 -17636825.28122        22.000           1.906
 91  6  6 19 35 14.9950000  0  4G19G15G 2G 6
  21222925.843     2883377.008 6   2224359.02021        14.750           0.875
  22854864.015     -309242.186 6    -89847.62621        12.500           0.125
  19327600.413   -26945362.166 8 -20996361.87823        29.000           3.063
  19905834.358   -22899544.438 7 -17664827.55522        22.000           1.938
 91  6  6 19 35 29.9950000  0  4G19G15G 2G 6
  21227511.913     2907492.618 6   2243150.34921        14.500           0.781
  22847578.765     -347493.298 5   -119653.62821        11.750           0.156
  19324640.187   -26960916.453 8 -21008482.10423        29.250           2.938
  19899006.257   -22935432.792 7 -17692792.49922        22.500           2.031
 91  6  6 19 35 44.9950000  0  4G19G15G 2G 6
  21232116.835     2931671.727 6   2261991.15621        15.000           0.875
  22840320.257     -385654.094 6   -149389.29721        12.250           0.156
  19321692.015   -26976405.708 8 -21020551.65323        29.000           2.969
  19892185.929   -22971273.540 7 -17720720.34222        22.500           1.875
 91  6  6 19 35 59.9950000  0  4G19G15G 2G 6
  21236730.976     2955911.109 6   2280878.91921        14.500           0.969
  22833075.530     -423727.692 6   -179056.98721        12.750           0.125
  19318756.608   -26991833.339 8 -21032573.18323        29.250           2.969
  19885373.952   -23007069.882 7 -17748613.58422        22.500           1.906
 91  6  6 19 36 14.9950000  0  4G19G15G 2G 6
  21241353.655     2980212.135 6   2299814.72221        14.750           0.844
  22825845.069     -461711.990 6   -208655.08521        12.000           0.094
  19315833.483   -27007197.771 8 -21044545.47223        29.250           2.875
  19878569.562   -23042820.079 7 -17776470.87422        22.750           2.000
 91  6  6 19 36 29.9950000  0  4G19G15G 2G 6
  21245992.179     3004580.104 6   2318802.68821        14.500           0.813
  22818638.687     -499601.424 6   -238179.31821        13.000           0.313
  19312922.194   -27022493.711 8 -21056464.38323        28.750           2.875
  19871777.046   -23078518.447 7 -17804287.77422        22.750           1.938
 91  6  6 19 36 44.9950000  0  4G19G15G 2G 6
  21250642.249     3029022.010 6   2337848.27221        14.750           0.844
  22811447.140     -537388.499 6   -267623.75521        12.250           0.094
  19310025.648   -27037714.167 8 -21068324.48323        28.750           2.813
  19864995.983   -23114157.830 7 -17832058.71022        22.750           1.844
 91  6  6 19 36 59.9950000  0  4G19G15G 2G 6
  21255305.991     3053523.728 6   2356940.46121        14.250           0.781
  22804270.866     -575086.879 6   -296999.06221        12.000           0.188
  19307141.233   -27052873.351 8 -21080136.83023        28.750           3.000
  19858221.687   -23149751.955 7 -17859794.38122        23.000           1.969
 91  6  6 19 37 14.9950000  0  4G19G15G 2G 6
  21259980.632     3078093.170 6   2376085.42021        14.250           0.875
  22797113.983     -612688.317 6   -326298.83521        12.250           0.313
  19304270.382   -27067963.098 8 -21091895.07223        28.750           2.844
  19851458.374   -23185292.772 7 -17887488.51322        23.000           2.063
 91  6  6 19 37 29.9950000  0  4G19G15G 2G 6
  21264669.671     3102727.782 6   2395281.16721        13.750           0.906
  22789984.710     -650195.022 6   -355524.80921        12.750           0.125
  19301411.116   -27082986.074 8 -21103601.28723        29.000           2.906
  19844704.913   -23220782.693 7 -17915142.99522        23.250           2.000
 91  6  6 19 37 44.9950000  0  4G19G15G 2G 6
  21269368.280     3127426.897 6   2414527.16321        14.000           0.813
  22782859.491     -687607.189 5   -384677.13821        11.500           0.281
  19298564.390   -27097942.997 8 -21115256.03223        28.750           2.875
  19837961.499   -23256222.033 7 -17942758.05422        23.250           2.000
 91  6  6 19 37 59.9950000  0  4G19G15G 2G 6
  21274081.054     3152184.364 6   2433818.63321        13.250           0.844
  22775750.312     -724930.698 5   -413760.33421        11.000           0.250
  19295730.249   -27112840.316 8 -21126864.33123        28.750           2.844
  19831225.249   -23291616.732 7 -17970338.33522        23.500           1.906
 91  6  6 19 38 14.9950000  0  4G19G15G 2G 6
  21278803.226     3177005.438 6   2453159.66921        14.000           0.781
  22768675.796     -762159.803 5   -442769.98021        11.750           0.281
  19292907.562   -27127672.607 8 -21138421.95923        28.500           2.906
  19824500.632   -23326961.208 7 -17997879.48222        23.750           1.844
 91  6  6 19 38 29.9950000  0  4G19G15G 2G 6
  21283538.452     3201885.641 6   2472546.77421        14.000           0.844
  22761607.054     -799298.549 5   -471709.22621        11.250           0.250
  19290096.124   -27142444.317 8 -21149932.38423        28.500           2.938
  19817783.319   -23362259.647 7 -18025384.75822        23.500           1.938
 91  6  6 19 38 44.9950000  0  4G19G15G 2G 6
  21288282.648     3226825.267 6   2491980.19021        14.000           0.781
  22754557.882     -836346.539 6   -500577.77021        12.000           0.281
  19287297.343   -27157155.288 8 -21161395.47723        28.250           2.938
  19811073.780   -23397511.653 7 -18052853.85422        24.000           1.938
 91  6  6 19 38 59.9950000  0  4G19G15G 2G 6
  21293041.710     3251825.487 6   2511460.82321        13.750           0.813
  22747518.398     -873301.904 5   -529374.10221        11.250           0.344
  19284508.804   -27171803.986 8 -21172810.04723        28.250           2.906
  19804375.577   -23432715.616 7 -18080285.51022        23.750           2.000
 91  6  6 19 39 14.9950000  0  4G19G15G 2G 6
  21297808.874     3276886.282 6   2530988.65721        14.000           0.781
  22740506.827     -910164.325 5   -558098.03021        11.250           0.344
  19281733.077   -27186390.497 8 -21184176.15623        28.250           2.906
  19797685.858   -23467871.358 7 -18107679.59722        23.750           2.000
 91  6  6 19 39 29.9950000  0  4G19G15G 2G 6
  21302592.140     3302006.775 6   2550563.01621        13.500           0.688
  22733510.585     -946934.383 5   -586749.97921        11.250           0.406
  19278970.507   -27200915.897 8 -21195494.64823        28.500           2.938
  19791004.015   -23502979.372 7 -18135036.49122        23.750           1.969
 91  6  6 19 39 44.9950000  0  4G19G15G 2G 6
  21307384.007     3327188.954 6   2570185.42921        14.250           0.719
  22726533.991     -983609.591 5   -615328.02721        10.500           0.281
  19276217.077   -27215378.243 8 -21206764.00723        28.500           3.000
  19784333.773   -23538037.627 7 -18162354.60822        23.750           1.938
 91  6  6 19 39 59.9950000  0  4G19G15G 2G 6
  21312187.468     3352431.615 6   2589854.97621        13.500           0.719
  22719570.968    -1020190.960 5   -643832.94621        10.750           0.344
  19273477.163   -27229778.740 8 -21217985.17523        28.750           2.938
  19777671.585   -23573047.065 7 -18189634.68922        24.000           2.031
 91  6  6 19 40 14.9950000  0  4G19G15G 2G 6
  21317001.273     3377737.069 6   2609573.45221        14.250           0.750
  22712627.663    -1056675.716 5   -672262.59121        10.500           0.313
  19270749.515   -27244114.828 8 -21229156.15123        28.750           2.813
  19771019.163   -23608004.996 7 -18216874.62622        24.000           1.875
 91  6  6 19 40 29.9950000  0  4G19G15G 2G 6
  21321830.382     3403105.010 6   2629340.61321        13.250           0.688
  22705704.335    -1093063.530 5   -700616.66721        10.500           0.406
  19268033.069   -27258386.979 8 -21240277.31023        28.750           2.906
  19764377.491   -23642911.358 7 -18244074.38622        24.000           2.094
 91  6  6 19 40 44.9950000  0  5G19G15G 2G13G 6
  21326669.366     3428534.529 6   2649155.76521        13.750           0.688
  22698796.249    -1129355.117 5   -728895.78621        10.250           0.438
  19265329.757   -27272596.162 8 -21251349.39823        28.500           2.938
  22675167.835          -0.81914                         6.750
  19757743.148   -23677767.113 7 -18271234.70622        23.750           2.063
 91  6  6 19 40 59.9950000  0  5G19G15G 2G13G 6
  21331521.187     3454026.264 6   2669019.38921        13.750           0.688
  22691906.452    -1165549.358 5   -757099.04221         9.500           0.469
  19262637.335   -27286741.645 8 -21262371.85223        28.750           2.844
  22661404.866      -72318.164 4                         7.250
  19751121.257   -23712570.997 7 -18298354.61722        24.000           2.031
 91  6  6 19 41 14.9950000  0  5G19G15G 2G13G 6
  21336383.382     3479582.367 6   2688933.17821        14.000           0.719
  22685045.374    -1201643.823 5   -785224.56021        10.750           0.469
  19259958.382   -27300821.228 8 -21273342.95723        28.750           3.031
  22647647.991     -144605.828 4                         6.750
  19744507.062   -23747320.733 7 -18325432.33522        24.000           2.031
 91  6  6 19 41 29.9950000  0  5G19G15G 2G13G 6
  21341258.437     3505194.243 6   2708890.41821        13.500           0.563
  22678189.655    -1237646.849 5   -813278.81121        10.250           0.469
  19257290.124   -27314843.514 8 -21284269.41123        28.750           2.969
  22633898.374     -216871.880 4                         7.000
  19737903.616   -23782024.590 7 -18352474.29722        24.000           1.906
 91  6  6 19 41 44.9950000  0  5G19G15G 2G13G 6
  21346139.835     3530859.393 6   2728889.16921        14.000           0.656
  22671357.741    -1273560.478 5   -841263.40521        10.250           0.500
  19254631.366   -27328810.986 8 -21295153.15623        28.750           2.938
  22620150.218     -289118.391 4                         6.750
  19731309.015   -23816684.794 7 -18379482.24822        24.000           2.031
 91  6  6 19 41 59.9950000  0  5G19G15G 2G13G 6
  21351036.827     3556586.513 6   2748936.21021        13.500           0.625
  22664538.765    -1309375.543 5   -869171.18821        10.000           0.531
  19251986.515   -27342715.132 8 -21305987.55623        28.750           3.031
  22606405.694     -361336.492 4                         7.000
  19724722.874   -23851292.488 7 -18406449.28422        24.250           2.094
 91  6  6 19 42 14.9950000  0  5G19G15G 2G13G 6
  21355943.194     3582376.509 6   2769032.24621        14.250           0.656
  22657743.890    -1345090.942 5   -897001.31221        10.000           0.594
  19249352.077   -27356555.022 8 -21316771.89023        28.750           2.969
  22592668.905     -433524.772 4                         7.000
  19718148.437   -23885846.531 7 -18433374.51222        24.250           2.031
 91  6  6 19 42 29.9950000  0  5G19G15G 2G13G 6
  21360862.694     3608218.077 6   2789168.46421        13.500           0.656
  22650971.343    -1380717.555 5   -924762.25221        10.750           0.594
  19246729.429   -27370341.905 8 -21327514.91923        28.500           3.031
  22578936.007     -505693.988 4                         7.250
  19711580.054   -23920357.853 7 -18460266.45022        24.000           2.063
 91  6  6 19 42 44.9950000  0  5G19G15G 2G13G 6
  21365788.843     3634116.924 6   2809349.32021        14.000           0.688
  22644203.733    -1416249.146 5   -952449.16821        10.250           0.531
  19244116.218   -27384069.930 8 -21338212.08523        28.750           2.906
  22565206.546     -577838.055 5        -0.15131         7.750           0.156
  19705023.905   -23954820.513 7 -18487120.47122        23.750           2.094
 91  6  6 19 42 59.9950000  0  5G19G15G 2G13G 6
  21370731.148     3660075.807 6   2829576.95921        13.750           0.719
  22637460.421    -1451682.704 5   -980059.67721        10.750           0.500
  19241515.843   -27397736.438 8 -21348861.31623        28.500           2.813
  22551484.015     -649953.691 5    -56194.00421         8.000           0.156
  19698473.718   -23989231.348 7 -18513934.10422        23.500           2.000
 91  6  6 19 43 14.9950000  0  5G19G15G 2G13G 6
  21375680.983     3686093.266 6   2849850.24121        14.250           0.656
  22630733.077    -1487019.034 5  -1007594.45221        10.000           0.594
  19238926.648   -27411342.862 8 -21359463.72623        28.500           2.875
  22537764.796     -722042.151 5   -112366.68821         8.250           0.094
  19691936.062   -24023591.614 7 -18540708.33422        23.500           1.969
 91  6  6 19 43 29.9950000  0  5G19G15G 2G13G 6
  21380644.179     3712170.170 6   2870169.84221        13.250           0.656
  22624024.608    -1522257.004 5  -1035052.54921        10.250           0.656
  19236349.202   -27424888.235 8 -21370018.56823        28.250           2.906
  22524053.335     -794102.088 5   -168517.18921         8.500           0.156
  19685406.491   -24057900.249 7 -18567442.32822        23.500           2.188
 91  6  6 19 43 44.9950000  0  5G19G15G 2G13G 6
  21385615.187     3738307.922 6   2890536.86221        13.500           0.531
  22617350.624    -1557394.727 5  -1062432.54121        11.000           0.656
  19233783.148   -27438371.177 8 -21380524.76223        28.500           3.000
  22510345.023     -866131.593 5   -224643.93421         8.250           0.125
  19678888.210   -24092155.500 7 -18594134.72522        23.250           2.156
 91  6  6 19 43 59.9950000  0  5G19G15G 2G13G 6
  21390606.179     3764512.554 6   2910955.98921        12.750           0.625
  22610683.749    -1592425.854 5  -1089729.47321        11.250           0.594
  19231231.468   -27451785.597 8 -21390977.55823        28.250           2.969
  22496644.851     -938124.111 5   -280741.85021         8.000           0.125
  19672380.530   -24126351.001 7 -18620780.56222        23.500           2.125
 91  6  6 19 44 14.9950000  0  5G19G15G 2G13G 6
  21395600.694     3790772.235 6   2931418.01421        14.000           0.656
  22604026.663    -1627361.763 5  -1116952.21921        10.000           0.563
  19228688.749   -27465143.400 8 -21401386.23823        28.500           3.094
  22482950.358    -1010091.114 5   -336819.98021         8.250           0.094
  19665883.062   -24160498.314 7 -18647388.85022        23.500           2.156
 91  6  6 19 44 29.9950000  0  5G19G15G 2G13G 6
  21400613.140     3817097.342 6   2951931.01221        13.000           0.594
  22597402.382    -1662191.643 5  -1144092.33421        10.250           0.563
  19226160.023   -27478434.156 8 -21411742.67423        28.750           2.969
  22469263.671    -1082021.583 5   -392869.57121         8.000           0.031
  19659395.437   -24194586.706 7 -18673951.22922        23.500           2.125
 91  6  6 19 44 44.9950000  0  5G19G15G 2G13G 6
  21405631.405     3843484.295 6   2972492.20521        13.500           0.719
  22590789.288    -1696918.890 5  -1171152.48121         9.750           0.625
  19223642.343   -27491661.597 8 -21422049.77423        28.750           2.969
  22455580.319    -1153918.840 5                         7.500
  19652920.671   -24228619.597 7 -18700470.35922        23.250           2.156
 91  6  6 19 44 59.9950000  0  5G19G15G 2G13G 6
  21410665.187     3869928.344 6   2993097.90121        13.000           0.594
  22584205.687    -1731547.922 5  -1198136.08821        10.750           0.500
  19221136.679   -27504830.435 8 -21432311.20923        28.750           2.969
  22441904.835    -1225787.073 5                         7.750
  19646452.976   -24262601.561 7 -18726949.80322        23.500           2.219
 91  6  6 19 45 14.9950000  0  5G19G15G 2G13G 6
  21415707.233     3896432.117 6   3013750.12321        13.250           0.594
  22577634.835    -1766075.640 5  -1225040.76221        11.000           0.656
  19218642.280   -27517937.890 8 -21442524.81623        29.000           3.063
  22428235.812    -1297623.202 5                         8.000
  19639997.476   -24296529.650 7 -18753387.27322        23.500           2.188
 91  6  6 19 45 29.9950000  0  5G19G15G 2G13G 6
  21420764.554     3923000.007 6   3034452.29921        12.750           0.563
  22571081.413    -1800497.270 5  -1251862.74821        11.000           0.594
  19216161.265   -27530979.577 8 -21452687.17223        29.000           2.875
  22414571.569    -1369422.380 5                         7.750
  19633551.335   -24330399.077 7 -18779779.03122        23.250           2.125
 91  6  6 19 45 44.9950000  0  5G19G15G 2G13G 6
  21425828.398     3949624.172 6   3055198.33321        13.000           0.563
  22564554.608    -1834820.304 5  -1278607.92921        11.500           0.531
  19213689.694   -27543963.388 8 -21462804.43323        29.000           3.031
  22400915.437    -1441192.017 5                         7.500
  19627117.577   -24364217.405 7 -18806130.97122        23.500           2.219
 91  6  6 19 45 59.9950000  0  5G19G15G 2G13G 6
  21430908.866     3976312.953 6   3075994.73321        13.000           0.594
  22558039.366    -1869035.907 5  -1305269.39321        11.000           0.563
  19211232.226   -27556881.056 8 -21472870.15023        29.250           3.031
  22387264.358    -1512923.322 4                         7.250
  19620691.827   -24397975.987 7 -18832436.35322        23.500           2.219
 91  6  6 19 46 14.9950000  0  5G19G15G 2G13G 6
  21435997.101     4003060.906 6   3096837.22621        13.250           0.625
  22551548.679    -1903149.274 5  -1331851.19421        11.250           0.594
  19208785.023   -27569737.845 8 -21482888.42723        29.000           2.844
  22373620.429    -1584621.445 5                         7.750
  19614279.687   -24431680.063 7 -18858699.26722        23.750           2.188
 91  6  6 19 46 29.9950000  0  5G19G15G 2G13G 6
  21441102.148     4029868.990 6   3117726.57721        12.500           0.656
  22545075.983    -1937159.003 5  -1358352.25321        11.250           0.500
  19206350.773   -27582532.765 8 -21492858.50123        29.250           2.969
  22359983.577    -1656284.877 5                         8.000
  19607875.585   -24465328.285 7 -18884918.65922        23.750           2.156
 91  6  6 19 46 44.9950000  0  5G19G15G 2G13G 6
  21446213.116     4056741.975 6   3138666.49821        13.000           0.531
  22538629.163    -1971059.800 5  -1384768.41821        11.750           0.594
  19203928.421   -27595261.048 8 -21502776.65023        29.000           2.938
  22346353.671    -1727908.311 5                         7.750
  19601484.999   -24498915.595 7 -18911090.58822        23.750           2.156
 91  6  6 19 46 59.9950000  0  5G19G15G 2G13G 6
  21451344.585     4083675.838 6   3159653.86621        12.500           0.594
  22532189.273    -2004855.692 5  -1411102.83921        10.750           0.531
  19201518.562   -27607926.850 8 -21512646.11223        29.000           2.906
  22332733.249    -1799495.513 5                         8.000
  19595103.577   -24532445.889 7 -18937218.09022        23.750           2.156
 91  6  6 19 47 14.9950000  0  5G19G15G 2G13G 6
  21456475.757     4110668.301 6   3180686.88321        13.000           0.563
  22525790.819    -2038548.406 6  -1437356.85521        12.250           0.469
  19199119.101   -27620532.511 8 -21522468.71023        28.750           2.969
  22319115.843    -1871048.158 5        -0.29431         7.750           0.156
  19588733.702   -24565921.082 7 -18963302.65422        23.750           2.219
 91  6  6 19 47 29.9950000  0  5G19G15G 2G13G 6
  21461627.710     4137725.685 6   3201770.50521        12.500           0.594
  22519395.694    -2072131.275 6  -1463525.28421        12.250           0.563
  19196733.366   -27633071.583 8 -21532239.42323        29.000           2.813
  22305509.226    -1942559.541 5    -55723.37521         8.000           0.125
  19582375.702   -24599334.496 7 -18989339.07922        23.750           2.156
 91  6  6 19 47 44.9950000  0  5G19G15G 2G13G 6
  21466782.874     4164836.845 6   3222896.02321        13.250           0.531
  22513029.999    -2105614.990 6  -1489616.45421        12.750           0.563
  19194358.023   -27645554.968 8 -21541966.73923        28.750           3.063
  22291905.523    -2014040.404 5   -111422.68021         8.250           0.031
  19576025.812   -24632696.932 7 -19015335.78122        23.750           2.188
 91  6  6 19 47 59.9950000  0  5G19G15G 2G13G 6
  21471955.499     4192010.161 6   3244069.96721        13.000           0.438
  22506670.116    -2138990.775 6                        12.000
  19191994.671   -27657974.301 8 -21551644.14723        29.250           2.938
  22278308.538    -2085481.862 5   -167091.26321         8.250           0.094
  19569689.319   -24665999.753 7                        23.750
 91  6  6 19 48 14.9950000  0  5G19G15G 2G13G 6
  21477136.226     4219246.317 6   3265292.87521        13.000           0.531
  22500331.632    -2172257.649 5                        11.000
  19189643.562   -27670329.151 8 -21561271.30423        29.000           2.938
  22264721.968    -2156882.800 5   -222728.29621         8.000           0.156
  19563363.491   -24699242.170 7                        23.750
 91  6  6 19 48 29.9950000  0  5G19G15G 2G13G 6
  21482332.038     4246540.128 6   3286560.71121        12.500           0.625
  22494031.273    -2205420.375 6                        12.250
  19187303.718   -27682624.429 8 -21570852.04123        29.000           2.875
  22251142.351    -2228247.831 5   -278337.30921         8.500           0.063
  19557048.866   -24732428.857 7                        24.000
 91  6  6 19 48 44.9950000  0  5G19G15G 2G13G 6
  21487535.944     4273892.771 6   3307874.39321        12.750           0.563
  22487731.726    -2238477.351 5  -1593145.42321        11.500           0.531
  19184976.390   -27694859.114 8 -21580385.56523        29.000           2.781
  22237569.062    -2299575.510 5   -333917.23321         8.750           0.094
  19550743.390   -24765558.509 7 -19118864.26122        24.250           2.188
 91  6  6 19 48 59.9950000  0  5G19G15G 2G13G 6
  21492753.358     4301304.891 6   3329234.41521        12.500           0.625
  22481468.773    -2271427.566 6  -1618820.87221        12.000           0.344
  19182659.648   -27707032.638 8 -21589871.42923        29.000           2.875
  22224003.632    -2370864.524 5   -389467.06721         8.750           0.031
  19544450.437   -24798630.115 7 -19144634.33722        24.250           2.188
 91  6  6 19 49 14.9950000  0  5G19G15G 2G13G 6
  21497981.429     4328779.521 6   3350643.14421        12.750           0.688
  22475223.952    -2304267.589 6  -1644410.47321        12.500           0.531
  19180355.257   -27719141.694 8 -21599307.05823        29.000           2.906
  22210445.390    -2442111.409 5   -444984.03521         8.500           0.094
  19538169.007   -24831640.240 7 -19170356.50722        24.250           2.188
 91  6  6 19 49 29.9950000  0  5G19G15G 2G13G 6
  21503222.390     4356315.279 6   3372099.51421        12.500           0.500
  22468998.788    -2336998.697 6  -1669915.17621        13.500           0.563
  19178062.491   -27731187.706 8 -21608693.56523        28.750           2.875
  22196897.702    -2513317.311 5   -500469.04921         8.500           0.125
  19531898.765   -24864590.092 7 -19196031.70822        24.250           2.156
 91  6  6 19 49 44.9950000  0  5G19G15G 2G13G 6
  21508472.398     4383910.035 6   3393601.84721        12.750           0.656
  22462781.265    -2369622.416 6  -1695336.21821        12.750           0.438
  19175781.491   -27743172.815 8 -21618032.61123        28.750           2.750
  22183351.671    -2584483.755 5   -555923.28421         8.250           0.063
  19525640.687   -24897481.452 7 -19221661.33622        24.250           2.094
 91  6  6 19 49 59.9950000  0  5G19G15G 2G13G 6
  21513735.890     4411562.457 6   3415149.12021        12.250           0.656
  22456587.038    -2402139.697 6  -1720674.32321        12.000           0.563
  19173512.726   -27755098.270 8 -21627325.17723        29.000           2.969
  22169818.280    -2655611.616 5                         8.500
  19519391.273   -24930315.380 7 -19247246.20822        24.500           2.188
 91  6  6 19 50 14.9950000  0  5G19G15G 2G13G 6
  21519008.351     4439277.009 6   3436744.80621        12.500           0.563
  22450427.273    -2434545.904 6  -1745925.88421        12.750           0.375
  19171255.085   -27766959.777 8 -21636567.91123        28.750           2.813
  22156289.765    -2726696.185 5                         8.000
  19513155.468   -24963087.125 7 -19272782.62822        24.750           2.156
 91  6  6 19 50 29.9950000  0  5G19G15G 2G13G 6
  21524295.663     4467052.723 6   3458388.14321        12.250           0.563
  22444284.624    -2466841.652 6  -1771091.34821        13.500           0.531
  19169010.163   -27778758.229 8 -21645761.50723        28.750           2.719
  22142770.905    -2797737.825 5                         7.750
  19506930.694   -24995797.474 7 -19298271.20822        24.500           2.156
 91  6  6 19 50 44.9950000  0  5G19G15G 2G13G 6
  21529589.499     4494889.620 6   3480079.16121        12.250           0.563
  22438161.312    -2499026.372 6  -1796170.32221        13.500           0.500
  19166776.890   -27790493.436 8 -21654905.82423        28.500           2.750
  22129261.280    -2868736.069 5        -0.12931         7.500           0.063
  19500718.069   -25028445.854 7 -19323711.49922        24.250           2.125
 91  6  6 19 50 59.9950000  0  5G19G15G 2G13G 6
  21534897.968     4522784.814 6   3501815.59621        12.250           0.500
  22432049.124    -2531102.402 6  -1821164.57221        12.500           0.406
  19164555.069   -27802168.346 8 -21664003.15623        29.000           2.688
  22115756.765    -2939693.234 5    -55291.26621         8.000           0.125
  19494517.288   -25061034.785 7 -19349105.46422        24.500           2.188
 91  6  6 19 51 14.9950000  0  5G19G15G 2G13G 6
  21540218.968     4550737.941 5   3523597.18821        11.750           0.563
  22425974.999    -2563069.780 6  -1846074.18221        13.750           0.375
  19162345.398   -27813783.293 8 -21673053.76123        28.750           2.844
  22102263.312    -3010609.309 5   -110550.38721         8.000           0.125
  19488324.898   -25093564.545 7 -19374453.32322        24.250           2.094
 91  6  6 19 51 29.9950000  0  5G19G15G 2G13G 6
  21545550.601     4578752.922 5   3545426.96721        11.750           0.594
  22419907.546    -2594924.488 6  -1870895.99021        13.250           0.375
  19160146.413   -27825334.290 8 -21682054.53723        28.750           2.813
  22088778.429    -3081479.950 5   -165774.08621         8.000           0.156
  19482149.327   -25126030.804 7 -19399751.69522        24.500           2.188
 91  6  6 19 51 44.9950000  0  5G19G15G 2G13G 6
  21550892.038     4606826.816 6   3567302.65521        12.250           0.469
  22413868.007    -2626668.865 6  -1895631.82321        12.750           0.375
  19157961.382   -27836824.164 8 -21691007.68523        28.250           2.719
  22075296.476    -3152307.446 5   -220964.16521         7.500           0.031
  19475980.851   -25158436.230 7 -19425002.67322        24.000           2.125
 91  6  6 19 51 59.9950000  0  5G19G15G 2G13G 6
  21556246.085     4634958.351 5   3589223.25721        11.750           0.438
  22407851.405    -2658303.764 6  -1920282.33621        13.750           0.313
  19155785.140   -27848254.138 8 -21699914.15923        28.250           2.781
  22061826.546    -3223092.598 5   -276121.26321         7.750           0.031
  19469827.663   -25190781.721 7 -19450206.94322        24.250           2.188
 91  6  6 19 52 14.9950000  0  5G19G15G 2G13G 6
  21561608.999     4663147.099 6   3611188.44621        12.000           0.594
  22401847.249    -2689829.299 6  -1944847.64821        12.750           0.438
  19153621.663   -27859624.834 8 -21708774.44323        28.500           2.781
  22048367.116    -3293835.507 5   -331245.40121         8.000           0.188
  19463682.351   -25223067.424 7 -19475364.62622        24.250           2.188
 91  6  6 19 52 29.9950000  0  5G19G15G 2G13G 6
  21566985.749     4691395.930 5   3633200.43921        11.500           0.500
  22395865.804    -2721242.309 6  -1969325.27021        12.500           0.375
  19151469.913   -27870933.285 8 -21717586.22623        28.250           2.719
  22034912.929    -3364532.909 5   -386334.09721         8.250           0.125
  19457551.187   -25255290.331 7 -19500473.37822        24.250           2.156
 91  6  6 19 52 44.9950000  0  5G19G15G 2G13G 6
  21572370.765     4719699.914 5   3655255.42121        11.500           0.531
  22389911.483    -2752547.490 6  -1993718.88121        12.500           0.469
  19149328.538   -27882184.482 8 -21726353.39523        28.250           2.594
  22021467.460    -3435189.430 5   -441390.93821         8.750           0.094
  19451430.249   -25287454.976 7 -19525536.73222        24.250           2.125
 91  6  6 19 52 59.9950000  0  5G19G15G 2G13G 6
  21577769.554     4748063.855 5   3677357.11621        11.000           0.656
  22383974.491    -2783739.538 6  -2018024.32421        13.000           0.344
  19147199.773   -27893373.455 8 -21735072.07623        28.250           2.750
  22008031.640    -3505799.589 5   -496411.65221         8.750           0.094
  19445321.265   -25319556.176 7 -19550550.64422        24.000           2.125
 91  6  6 19 53 14.9950000  0  5G19G15G 2G13G 6
  21583177.851     4776487.000 5   3699504.95021        11.500           0.656
  22378073.944    -2814818.647 6  -2042241.73821        14.250           0.313
  19145081.952   -27904501.039 7 -21743742.92923        27.750           2.750
  21994600.280    -3576363.645 5   -551396.42321         8.250           0.219
  19439225.718   -25351594.328 7 -19575515.43422        24.000           2.156
 91  6  6 19 53 29.9950000  0  5G19G15G 2G13G 6
  21588598.624     4804966.350 5   3721696.57421        11.250           0.594
  22372167.030    -2845787.732 6  -2066373.46321        12.750           0.438
  19142975.905   -27915570.303 8 -21752368.32923        28.250           2.625
  21981182.382    -3646884.368 5   -606347.40421         8.500           0.188
  19433139.054   -25383572.346 7 -19600433.36322        24.000           2.125
 91  6  6 19 53 44.9950000  0  5G19G15G 2G13G 6
  21594027.296     4833502.548 5   3743932.50021        11.750           0.594
  22366297.101    -2876645.957 6  -2090418.78921        12.500           0.406
  19140880.046   -27926580.497 8 -21760947.70623        28.000           2.719
  21967772.530    -3717360.665 5   -661263.80121         8.750           0.125
  19427066.741   -25415489.290 7 -19625303.70622        23.750           2.156
